<?xml version="1.0" encoding="UTF-8" standalone="no" ?>
<gpx xmlns="http://www.topografix.com/GPX/1/1" xmlns:xsi="http://www.w3.org/2001/XMLSchema-instance" xsi:schemaLocation="http://www.topografix.com/GPX/1/1 http://www.topografix.com/GPX/1/1/gpx.xsd" version="1.1" creator="VisuGPX - https://www.visugpx.com">
  <metadata>
    <name>Hirmentaz</name>
    <desc><![CDATA[Boucle au départ de Mégevette via le col du Creux et Hirmentaz]]></desc>
  </metadata>
  <trk>
    <name><![CDATA[2021-08-26 Hirmentaz]]></name>
    <trkseg>
      <trkpt lat="46.19415" lon="6.49656">
        <ele>872.90625</ele>
        <time>2021-08-26T13:19:11Z</time>
      </trkpt>
      <trkpt lat="46.19413" lon="6.49649">
        <ele>873.57421875</ele>
        <time>2021-08-26T13:19:41Z</time>
      </trkpt>
      <trkpt lat="46.19413" lon="6.49649">
        <ele>873.59375</ele>
        <time>2021-08-26T13:19:42Z</time>
      </trkpt>
      <trkpt lat="46.19413" lon="6.49649">
        <ele>873.60546875</ele>
        <time>2021-08-26T13:19:43Z</time>
      </trkpt>
      <trkpt lat="46.19414" lon="6.49648">
        <ele>873.671875</ele>
        <time>2021-08-26T13:19:46Z</time>
      </trkpt>
      <trkpt lat="46.19418" lon="6.49648">
        <ele>873.984375</ele>
        <time>2021-08-26T13:20:13Z</time>
      </trkpt>
      <trkpt lat="46.19417" lon="6.49649">
        <ele>873.90234375</ele>
        <time>2021-08-26T13:20:47Z</time>
      </trkpt>
      <trkpt lat="46.19421" lon="6.49651">
        <ele>873.87109375</ele>
        <time>2021-08-26T13:21:19Z</time>
      </trkpt>
      <trkpt lat="46.19424" lon="6.49648">
        <ele>874.48046875</ele>
        <time>2021-08-26T13:21:48Z</time>
      </trkpt>
      <trkpt lat="46.19426" lon="6.49647">
        <ele>874.703125</ele>
        <time>2021-08-26T13:22:19Z</time>
      </trkpt>
      <trkpt lat="46.19422" lon="6.49646">
        <ele>874.53125</ele>
        <time>2021-08-26T13:22:50Z</time>
      </trkpt>
      <trkpt lat="46.19419" lon="6.49648">
        <ele>874.1328125</ele>
        <time>2021-08-26T13:22:56Z</time>
      </trkpt>
      <trkpt lat="46.19417" lon="6.49643">
        <ele>874.4453125</ele>
        <time>2021-08-26T13:23:06Z</time>
      </trkpt>
      <trkpt lat="46.19417" lon="6.4964">
        <ele>874.7890625</ele>
        <time>2021-08-26T13:23:16Z</time>
      </trkpt>
      <trkpt lat="46.19417" lon="6.49639">
        <ele>874.88671875</ele>
        <time>2021-08-26T13:23:17Z</time>
      </trkpt>
      <trkpt lat="46.19422" lon="6.49632">
        <ele>876.046875</ele>
        <time>2021-08-26T13:23:29Z</time>
      </trkpt>
      <trkpt lat="46.1943" lon="6.49634">
        <ele>876.38671875</ele>
        <time>2021-08-26T13:23:36Z</time>
      </trkpt>
      <trkpt lat="46.19439" lon="6.49636">
        <ele>876.703125</ele>
        <time>2021-08-26T13:23:40Z</time>
      </trkpt>
      <trkpt lat="46.19462" lon="6.49639">
        <ele>877.4296875</ele>
        <time>2021-08-26T13:23:48Z</time>
      </trkpt>
      <trkpt lat="46.1946" lon="6.49626">
        <ele>878.52734375</ele>
        <time>2021-08-26T13:23:51Z</time>
      </trkpt>
      <trkpt lat="46.19461" lon="6.49623">
        <ele>878.90234375</ele>
        <time>2021-08-26T13:23:52Z</time>
      </trkpt>
      <trkpt lat="46.19462" lon="6.49621">
        <ele>879.16796875</ele>
        <time>2021-08-26T13:23:53Z</time>
      </trkpt>
      <trkpt lat="46.19464" lon="6.49621">
        <ele>879.2265625</ele>
        <time>2021-08-26T13:23:54Z</time>
      </trkpt>
      <trkpt lat="46.19466" lon="6.49623">
        <ele>879.01171875</ele>
        <time>2021-08-26T13:23:55Z</time>
      </trkpt>
      <trkpt lat="46.19467" lon="6.49628">
        <ele>878.55078125</ele>
        <time>2021-08-26T13:23:56Z</time>
      </trkpt>
      <trkpt lat="46.19467" lon="6.49634">
        <ele>878.03125</ele>
        <time>2021-08-26T13:23:57Z</time>
      </trkpt>
      <trkpt lat="46.19467" lon="6.49639">
        <ele>877.66015625</ele>
        <time>2021-08-26T13:23:58Z</time>
      </trkpt>
      <trkpt lat="46.19468" lon="6.49643">
        <ele>877.36328125</ele>
        <time>2021-08-26T13:23:59Z</time>
      </trkpt>
      <trkpt lat="46.19469" lon="6.49654">
        <ele>876.6640625</ele>
        <time>2021-08-26T13:24:02Z</time>
      </trkpt>
      <trkpt lat="46.19471" lon="6.49658">
        <ele>876.36328125</ele>
        <time>2021-08-26T13:24:03Z</time>
      </trkpt>
      <trkpt lat="46.19473" lon="6.49664">
        <ele>876.0859375</ele>
        <time>2021-08-26T13:24:04Z</time>
      </trkpt>
      <trkpt lat="46.19476" lon="6.4967">
        <ele>875.875</ele>
        <time>2021-08-26T13:24:05Z</time>
      </trkpt>
      <trkpt lat="46.1948" lon="6.49676">
        <ele>875.78515625</ele>
        <time>2021-08-26T13:24:06Z</time>
      </trkpt>
      <trkpt lat="46.195" lon="6.49697">
        <ele>875.7265625</ele>
        <time>2021-08-26T13:24:10Z</time>
      </trkpt>
      <trkpt lat="46.1951" lon="6.49705">
        <ele>875.81640625</ele>
        <time>2021-08-26T13:24:12Z</time>
      </trkpt>
      <trkpt lat="46.19513" lon="6.4971">
        <ele>875.828125</ele>
        <time>2021-08-26T13:24:13Z</time>
      </trkpt>
      <trkpt lat="46.19515" lon="6.49715">
        <ele>875.73046875</ele>
        <time>2021-08-26T13:24:14Z</time>
      </trkpt>
      <trkpt lat="46.19515" lon="6.49722">
        <ele>875.55859375</ele>
        <time>2021-08-26T13:24:15Z</time>
      </trkpt>
      <trkpt lat="46.19514" lon="6.49728">
        <ele>875.29296875</ele>
        <time>2021-08-26T13:24:16Z</time>
      </trkpt>
      <trkpt lat="46.19513" lon="6.49733">
        <ele>875.1015625</ele>
        <time>2021-08-26T13:24:17Z</time>
      </trkpt>
      <trkpt lat="46.19514" lon="6.49737">
        <ele>875.0078125</ele>
        <time>2021-08-26T13:24:18Z</time>
      </trkpt>
      <trkpt lat="46.19516" lon="6.49742">
        <ele>874.94140625</ele>
        <time>2021-08-26T13:24:19Z</time>
      </trkpt>
      <trkpt lat="46.19518" lon="6.49746">
        <ele>874.9765625</ele>
        <time>2021-08-26T13:24:20Z</time>
      </trkpt>
      <trkpt lat="46.19521" lon="6.4975">
        <ele>875.07421875</ele>
        <time>2021-08-26T13:24:21Z</time>
      </trkpt>
      <trkpt lat="46.19523" lon="6.49756">
        <ele>875.140625</ele>
        <time>2021-08-26T13:24:22Z</time>
      </trkpt>
      <trkpt lat="46.19524" lon="6.49761">
        <ele>875.1875</ele>
        <time>2021-08-26T13:24:23Z</time>
      </trkpt>
      <trkpt lat="46.19527" lon="6.49793">
        <ele>875.29296875</ele>
        <time>2021-08-26T13:24:29Z</time>
      </trkpt>
      <trkpt lat="46.19528" lon="6.49797">
        <ele>875.34375</ele>
        <time>2021-08-26T13:24:30Z</time>
      </trkpt>
      <trkpt lat="46.19531" lon="6.49801">
        <ele>875.4375</ele>
        <time>2021-08-26T13:24:31Z</time>
      </trkpt>
      <trkpt lat="46.19534" lon="6.49804">
        <ele>875.5625</ele>
        <time>2021-08-26T13:24:32Z</time>
      </trkpt>
      <trkpt lat="46.19538" lon="6.49807">
        <ele>875.69921875</ele>
        <time>2021-08-26T13:24:33Z</time>
      </trkpt>
      <trkpt lat="46.19542" lon="6.49811">
        <ele>875.83203125</ele>
        <time>2021-08-26T13:24:34Z</time>
      </trkpt>
      <trkpt lat="46.19545" lon="6.49815">
        <ele>875.94921875</ele>
        <time>2021-08-26T13:24:35Z</time>
      </trkpt>
      <trkpt lat="46.19548" lon="6.4982">
        <ele>876.046875</ele>
        <time>2021-08-26T13:24:36Z</time>
      </trkpt>
      <trkpt lat="46.19583" lon="6.4986">
        <ele>877.3359375</ele>
        <time>2021-08-26T13:24:49Z</time>
      </trkpt>
      <trkpt lat="46.19632" lon="6.49866">
        <ele>878.09375</ele>
        <time>2021-08-26T13:25:02Z</time>
      </trkpt>
      <trkpt lat="46.19657" lon="6.49898">
        <ele>878.98828125</ele>
        <time>2021-08-26T13:25:10Z</time>
      </trkpt>
      <trkpt lat="46.19699" lon="6.49896">
        <ele>879</ele>
        <time>2021-08-26T13:25:20Z</time>
      </trkpt>
      <trkpt lat="46.19745" lon="6.4988">
        <ele>879</ele>
        <time>2021-08-26T13:25:30Z</time>
      </trkpt>
      <trkpt lat="46.19765" lon="6.49873">
        <ele>879</ele>
        <time>2021-08-26T13:25:35Z</time>
      </trkpt>
      <trkpt lat="46.19785" lon="6.49883">
        <ele>879</ele>
        <time>2021-08-26T13:25:40Z</time>
      </trkpt>
      <trkpt lat="46.19815" lon="6.49934">
        <ele>879</ele>
        <time>2021-08-26T13:25:53Z</time>
      </trkpt>
      <trkpt lat="46.19844" lon="6.49934">
        <ele>879</ele>
        <time>2021-08-26T13:26:01Z</time>
      </trkpt>
      <trkpt lat="46.19865" lon="6.49943">
        <ele>879</ele>
        <time>2021-08-26T13:26:06Z</time>
      </trkpt>
      <trkpt lat="46.19868" lon="6.49948">
        <ele>879</ele>
        <time>2021-08-26T13:26:07Z</time>
      </trkpt>
      <trkpt lat="46.1987" lon="6.49954">
        <ele>879</ele>
        <time>2021-08-26T13:26:08Z</time>
      </trkpt>
      <trkpt lat="46.19872" lon="6.4996">
        <ele>879</ele>
        <time>2021-08-26T13:26:09Z</time>
      </trkpt>
      <trkpt lat="46.19873" lon="6.49967">
        <ele>879</ele>
        <time>2021-08-26T13:26:10Z</time>
      </trkpt>
      <trkpt lat="46.19874" lon="6.49973">
        <ele>879</ele>
        <time>2021-08-26T13:26:11Z</time>
      </trkpt>
      <trkpt lat="46.19874" lon="6.4998">
        <ele>879</ele>
        <time>2021-08-26T13:26:12Z</time>
      </trkpt>
      <trkpt lat="46.19874" lon="6.49987">
        <ele>879</ele>
        <time>2021-08-26T13:26:13Z</time>
      </trkpt>
      <trkpt lat="46.19873" lon="6.49994">
        <ele>879.03515625</ele>
        <time>2021-08-26T13:26:14Z</time>
      </trkpt>
      <trkpt lat="46.19871" lon="6.50007">
        <ele>879.51171875</ele>
        <time>2021-08-26T13:26:16Z</time>
      </trkpt>
      <trkpt lat="46.1987" lon="6.50014">
        <ele>879.74609375</ele>
        <time>2021-08-26T13:26:17Z</time>
      </trkpt>
      <trkpt lat="46.19871" lon="6.50097">
        <ele>882.55078125</ele>
        <time>2021-08-26T13:26:31Z</time>
      </trkpt>
      <trkpt lat="46.19872" lon="6.50171">
        <ele>887.0703125</ele>
        <time>2021-08-26T13:26:45Z</time>
      </trkpt>
      <trkpt lat="46.19872" lon="6.50188">
        <ele>888.3125</ele>
        <time>2021-08-26T13:26:48Z</time>
      </trkpt>
      <trkpt lat="46.19872" lon="6.50204">
        <ele>889.31640625</ele>
        <time>2021-08-26T13:26:51Z</time>
      </trkpt>
      <trkpt lat="46.19868" lon="6.50256">
        <ele>891.953125</ele>
        <time>2021-08-26T13:27:01Z</time>
      </trkpt>
      <trkpt lat="46.19869" lon="6.50261">
        <ele>892.3046875</ele>
        <time>2021-08-26T13:27:02Z</time>
      </trkpt>
      <trkpt lat="46.19871" lon="6.50264">
        <ele>892.546875</ele>
        <time>2021-08-26T13:27:03Z</time>
      </trkpt>
      <trkpt lat="46.19874" lon="6.50265">
        <ele>892.62109375</ele>
        <time>2021-08-26T13:27:04Z</time>
      </trkpt>
      <trkpt lat="46.19877" lon="6.50265">
        <ele>892.6328125</ele>
        <time>2021-08-26T13:27:05Z</time>
      </trkpt>
      <trkpt lat="46.19881" lon="6.50264">
        <ele>892.55078125</ele>
        <time>2021-08-26T13:27:06Z</time>
      </trkpt>
      <trkpt lat="46.19885" lon="6.50263">
        <ele>892.44140625</ele>
        <time>2021-08-26T13:27:07Z</time>
      </trkpt>
      <trkpt lat="46.19932" lon="6.50242">
        <ele>890.03125</ele>
        <time>2021-08-26T13:27:16Z</time>
      </trkpt>
      <trkpt lat="46.19939" lon="6.50242">
        <ele>889.91015625</ele>
        <time>2021-08-26T13:27:17Z</time>
      </trkpt>
      <trkpt lat="46.19946" lon="6.50242">
        <ele>889.953125</ele>
        <time>2021-08-26T13:27:18Z</time>
      </trkpt>
      <trkpt lat="46.19952" lon="6.50244">
        <ele>890.08203125</ele>
        <time>2021-08-26T13:27:19Z</time>
      </trkpt>
      <trkpt lat="46.19958" lon="6.50246">
        <ele>890.265625</ele>
        <time>2021-08-26T13:27:20Z</time>
      </trkpt>
      <trkpt lat="46.19964" lon="6.50249">
        <ele>890.3203125</ele>
        <time>2021-08-26T13:27:21Z</time>
      </trkpt>
      <trkpt lat="46.19983" lon="6.50257">
        <ele>889.9921875</ele>
        <time>2021-08-26T13:27:24Z</time>
      </trkpt>
      <trkpt lat="46.19989" lon="6.50262">
        <ele>890.1640625</ele>
        <time>2021-08-26T13:27:25Z</time>
      </trkpt>
      <trkpt lat="46.19995" lon="6.50267">
        <ele>890.51171875</ele>
        <time>2021-08-26T13:27:26Z</time>
      </trkpt>
      <trkpt lat="46.2" lon="6.50273">
        <ele>890.9453125</ele>
        <time>2021-08-26T13:27:27Z</time>
      </trkpt>
      <trkpt lat="46.20006" lon="6.50279">
        <ele>891.4609375</ele>
        <time>2021-08-26T13:27:28Z</time>
      </trkpt>
      <trkpt lat="46.20026" lon="6.50301">
        <ele>893.27734375</ele>
        <time>2021-08-26T13:27:32Z</time>
      </trkpt>
      <trkpt lat="46.20031" lon="6.50305">
        <ele>893.77734375</ele>
        <time>2021-08-26T13:27:33Z</time>
      </trkpt>
      <trkpt lat="46.20042" lon="6.50311">
        <ele>894.4609375</ele>
        <time>2021-08-26T13:27:35Z</time>
      </trkpt>
      <trkpt lat="46.20048" lon="6.50313">
        <ele>894.640625</ele>
        <time>2021-08-26T13:27:36Z</time>
      </trkpt>
      <trkpt lat="46.20053" lon="6.50314">
        <ele>894.83984375</ele>
        <time>2021-08-26T13:27:37Z</time>
      </trkpt>
      <trkpt lat="46.20059" lon="6.50314">
        <ele>894.87890625</ele>
        <time>2021-08-26T13:27:38Z</time>
      </trkpt>
      <trkpt lat="46.20064" lon="6.50314">
        <ele>894.78515625</ele>
        <time>2021-08-26T13:27:39Z</time>
      </trkpt>
      <trkpt lat="46.2007" lon="6.50313">
        <ele>894.59375</ele>
        <time>2021-08-26T13:27:40Z</time>
      </trkpt>
      <trkpt lat="46.20075" lon="6.50311">
        <ele>894.31640625</ele>
        <time>2021-08-26T13:27:41Z</time>
      </trkpt>
      <trkpt lat="46.2015" lon="6.503">
        <ele>892.32421875</ele>
        <time>2021-08-26T13:27:57Z</time>
      </trkpt>
      <trkpt lat="46.20192" lon="6.503">
        <ele>893.53515625</ele>
        <time>2021-08-26T13:28:08Z</time>
      </trkpt>
      <trkpt lat="46.20223" lon="6.50287">
        <ele>893.5390625</ele>
        <time>2021-08-26T13:28:16Z</time>
      </trkpt>
      <trkpt lat="46.20297" lon="6.50257">
        <ele>894.05078125</ele>
        <time>2021-08-26T13:28:32Z</time>
      </trkpt>
      <trkpt lat="46.20366" lon="6.50232">
        <ele>894.7890625</ele>
        <time>2021-08-26T13:28:47Z</time>
      </trkpt>
      <trkpt lat="46.2044" lon="6.50208">
        <ele>894.48828125</ele>
        <time>2021-08-26T13:29:01Z</time>
      </trkpt>
      <trkpt lat="46.20456" lon="6.50204">
        <ele>894.18359375</ele>
        <time>2021-08-26T13:29:04Z</time>
      </trkpt>
      <trkpt lat="46.20462" lon="6.50203">
        <ele>894.16015625</ele>
        <time>2021-08-26T13:29:05Z</time>
      </trkpt>
      <trkpt lat="46.20469" lon="6.50204">
        <ele>893.97265625</ele>
        <time>2021-08-26T13:29:06Z</time>
      </trkpt>
      <trkpt lat="46.20583" lon="6.50228">
        <ele>893.87109375</ele>
        <time>2021-08-26T13:29:23Z</time>
      </trkpt>
      <trkpt lat="46.20675" lon="6.5022">
        <ele>891.84375</ele>
        <time>2021-08-26T13:29:38Z</time>
      </trkpt>
      <trkpt lat="46.20741" lon="6.50199">
        <ele>891.50390625</ele>
        <time>2021-08-26T13:29:51Z</time>
      </trkpt>
      <trkpt lat="46.2075" lon="6.50197">
        <ele>891.84375</ele>
        <time>2021-08-26T13:29:53Z</time>
      </trkpt>
      <trkpt lat="46.20754" lon="6.50196">
        <ele>891.97265625</ele>
        <time>2021-08-26T13:29:54Z</time>
      </trkpt>
      <trkpt lat="46.20758" lon="6.50195">
        <ele>892.1171875</ele>
        <time>2021-08-26T13:29:55Z</time>
      </trkpt>
      <trkpt lat="46.20767" lon="6.50194">
        <ele>892.41796875</ele>
        <time>2021-08-26T13:29:57Z</time>
      </trkpt>
      <trkpt lat="46.20771" lon="6.50193">
        <ele>892.5078125</ele>
        <time>2021-08-26T13:29:58Z</time>
      </trkpt>
      <trkpt lat="46.20784" lon="6.5019">
        <ele>892.75390625</ele>
        <time>2021-08-26T13:30:01Z</time>
      </trkpt>
      <trkpt lat="46.208" lon="6.50187">
        <ele>893.125</ele>
        <time>2021-08-26T13:30:05Z</time>
      </trkpt>
      <trkpt lat="46.20803" lon="6.50183">
        <ele>892.98828125</ele>
        <time>2021-08-26T13:30:06Z</time>
      </trkpt>
      <trkpt lat="46.20806" lon="6.50179">
        <ele>892.73828125</ele>
        <time>2021-08-26T13:30:07Z</time>
      </trkpt>
      <trkpt lat="46.20807" lon="6.50173">
        <ele>892.37890625</ele>
        <time>2021-08-26T13:30:08Z</time>
      </trkpt>
      <trkpt lat="46.20808" lon="6.50166">
        <ele>891.89453125</ele>
        <time>2021-08-26T13:30:09Z</time>
      </trkpt>
      <trkpt lat="46.20807" lon="6.50158">
        <ele>891.36328125</ele>
        <time>2021-08-26T13:30:10Z</time>
      </trkpt>
      <trkpt lat="46.20807" lon="6.50148">
        <ele>891.0078125</ele>
        <time>2021-08-26T13:30:11Z</time>
      </trkpt>
      <trkpt lat="46.20804" lon="6.50111">
        <ele>890.07421875</ele>
        <time>2021-08-26T13:30:15Z</time>
      </trkpt>
      <trkpt lat="46.20803" lon="6.50079">
        <ele>889.11328125</ele>
        <time>2021-08-26T13:30:20Z</time>
      </trkpt>
      <trkpt lat="46.20806" lon="6.50075">
        <ele>888.96484375</ele>
        <time>2021-08-26T13:30:21Z</time>
      </trkpt>
      <trkpt lat="46.20862" lon="6.5001">
        <ele>889.40234375</ele>
        <time>2021-08-26T13:30:34Z</time>
      </trkpt>
      <trkpt lat="46.20936" lon="6.49934">
        <ele>892.1015625</ele>
        <time>2021-08-26T13:30:51Z</time>
      </trkpt>
      <trkpt lat="46.20981" lon="6.49887">
        <ele>894.6015625</ele>
        <time>2021-08-26T13:31:03Z</time>
      </trkpt>
      <trkpt lat="46.20985" lon="6.49885">
        <ele>894.76171875</ele>
        <time>2021-08-26T13:31:04Z</time>
      </trkpt>
      <trkpt lat="46.2099" lon="6.49884">
        <ele>894.86328125</ele>
        <time>2021-08-26T13:31:05Z</time>
      </trkpt>
      <trkpt lat="46.20994" lon="6.49883">
        <ele>894.89453125</ele>
        <time>2021-08-26T13:31:06Z</time>
      </trkpt>
      <trkpt lat="46.20999" lon="6.49883">
        <ele>894.90625</ele>
        <time>2021-08-26T13:31:07Z</time>
      </trkpt>
      <trkpt lat="46.21043" lon="6.49888">
        <ele>894.7734375</ele>
        <time>2021-08-26T13:31:18Z</time>
      </trkpt>
      <trkpt lat="46.21085" lon="6.49872">
        <ele>896.109375</ele>
        <time>2021-08-26T13:31:31Z</time>
      </trkpt>
      <trkpt lat="46.21103" lon="6.49857">
        <ele>897.80859375</ele>
        <time>2021-08-26T13:31:37Z</time>
      </trkpt>
      <trkpt lat="46.21105" lon="6.49855">
        <ele>897.90625</ele>
        <time>2021-08-26T13:31:38Z</time>
      </trkpt>
      <trkpt lat="46.21108" lon="6.49855">
        <ele>897.9140625</ele>
        <time>2021-08-26T13:31:39Z</time>
      </trkpt>
      <trkpt lat="46.21112" lon="6.49856">
        <ele>897.8984375</ele>
        <time>2021-08-26T13:31:40Z</time>
      </trkpt>
      <trkpt lat="46.21116" lon="6.49857">
        <ele>897.859375</ele>
        <time>2021-08-26T13:31:41Z</time>
      </trkpt>
      <trkpt lat="46.2118" lon="6.49871">
        <ele>897.7578125</ele>
        <time>2021-08-26T13:31:53Z</time>
      </trkpt>
      <trkpt lat="46.21266" lon="6.49898">
        <ele>898.7578125</ele>
        <time>2021-08-26T13:32:10Z</time>
      </trkpt>
      <trkpt lat="46.21294" lon="6.49904">
        <ele>899.15234375</ele>
        <time>2021-08-26T13:32:16Z</time>
      </trkpt>
      <trkpt lat="46.2136" lon="6.49906">
        <ele>901.6015625</ele>
        <time>2021-08-26T13:32:31Z</time>
      </trkpt>
      <trkpt lat="46.21398" lon="6.49889">
        <ele>904.16796875</ele>
        <time>2021-08-26T13:32:42Z</time>
      </trkpt>
      <trkpt lat="46.21404" lon="6.49886">
        <ele>904.65234375</ele>
        <time>2021-08-26T13:32:44Z</time>
      </trkpt>
      <trkpt lat="46.21418" lon="6.49887">
        <ele>905.48046875</ele>
        <time>2021-08-26T13:32:48Z</time>
      </trkpt>
      <trkpt lat="46.21472" lon="6.49913">
        <ele>907.44140625</ele>
        <time>2021-08-26T13:33:03Z</time>
      </trkpt>
      <trkpt lat="46.21474" lon="6.49911">
        <ele>907.7734375</ele>
        <time>2021-08-26T13:33:04Z</time>
      </trkpt>
      <trkpt lat="46.21477" lon="6.49904">
        <ele>908.45703125</ele>
        <time>2021-08-26T13:33:06Z</time>
      </trkpt>
      <trkpt lat="46.21477" lon="6.499">
        <ele>908.765625</ele>
        <time>2021-08-26T13:33:07Z</time>
      </trkpt>
      <trkpt lat="46.21477" lon="6.49896">
        <ele>909.0390625</ele>
        <time>2021-08-26T13:33:08Z</time>
      </trkpt>
      <trkpt lat="46.21476" lon="6.49893">
        <ele>909.2578125</ele>
        <time>2021-08-26T13:33:09Z</time>
      </trkpt>
      <trkpt lat="46.21475" lon="6.49889">
        <ele>909.4140625</ele>
        <time>2021-08-26T13:33:10Z</time>
      </trkpt>
      <trkpt lat="46.21446" lon="6.49859">
        <ele>909.55078125</ele>
        <time>2021-08-26T13:33:22Z</time>
      </trkpt>
      <trkpt lat="46.21445" lon="6.4985">
        <ele>910.12890625</ele>
        <time>2021-08-26T13:33:24Z</time>
      </trkpt>
      <trkpt lat="46.21445" lon="6.49846">
        <ele>910.578125</ele>
        <time>2021-08-26T13:33:25Z</time>
      </trkpt>
      <trkpt lat="46.21446" lon="6.49842">
        <ele>911.0234375</ele>
        <time>2021-08-26T13:33:26Z</time>
      </trkpt>
      <trkpt lat="46.21448" lon="6.49838">
        <ele>911.4296875</ele>
        <time>2021-08-26T13:33:27Z</time>
      </trkpt>
      <trkpt lat="46.21451" lon="6.49836">
        <ele>911.78515625</ele>
        <time>2021-08-26T13:33:28Z</time>
      </trkpt>
      <trkpt lat="46.21454" lon="6.49834">
        <ele>912.0703125</ele>
        <time>2021-08-26T13:33:29Z</time>
      </trkpt>
      <trkpt lat="46.21457" lon="6.49833">
        <ele>912.2734375</ele>
        <time>2021-08-26T13:33:30Z</time>
      </trkpt>
      <trkpt lat="46.2146" lon="6.49833">
        <ele>912.41015625</ele>
        <time>2021-08-26T13:33:31Z</time>
      </trkpt>
      <trkpt lat="46.21463" lon="6.49834">
        <ele>912.52734375</ele>
        <time>2021-08-26T13:33:32Z</time>
      </trkpt>
      <trkpt lat="46.21475" lon="6.49833">
        <ele>913.40234375</ele>
        <time>2021-08-26T13:33:36Z</time>
      </trkpt>
      <trkpt lat="46.21487" lon="6.49798">
        <ele>916.97265625</ele>
        <time>2021-08-26T13:33:46Z</time>
      </trkpt>
      <trkpt lat="46.21461" lon="6.49765">
        <ele>919.5703125</ele>
        <time>2021-08-26T13:33:57Z</time>
      </trkpt>
      <trkpt lat="46.21421" lon="6.49744">
        <ele>921.33203125</ele>
        <time>2021-08-26T13:34:11Z</time>
      </trkpt>
      <trkpt lat="46.21389" lon="6.49728">
        <ele>922.79296875</ele>
        <time>2021-08-26T13:34:23Z</time>
      </trkpt>
      <trkpt lat="46.21358" lon="6.49699">
        <ele>925.109375</ele>
        <time>2021-08-26T13:34:37Z</time>
      </trkpt>
      <trkpt lat="46.21336" lon="6.4967">
        <ele>926.59765625</ele>
        <time>2021-08-26T13:34:48Z</time>
      </trkpt>
      <trkpt lat="46.21324" lon="6.49654">
        <ele>927.27734375</ele>
        <time>2021-08-26T13:34:55Z</time>
      </trkpt>
      <trkpt lat="46.21303" lon="6.4962">
        <ele>932.171875</ele>
        <time>2021-08-26T13:35:07Z</time>
      </trkpt>
      <trkpt lat="46.21281" lon="6.49588">
        <ele>936.7890625</ele>
        <time>2021-08-26T13:35:19Z</time>
      </trkpt>
      <trkpt lat="46.21253" lon="6.49562">
        <ele>942.7109375</ele>
        <time>2021-08-26T13:35:33Z</time>
      </trkpt>
      <trkpt lat="46.21231" lon="6.49555">
        <ele>945.3984375</ele>
        <time>2021-08-26T13:35:43Z</time>
      </trkpt>
      <trkpt lat="46.21207" lon="6.49547">
        <ele>949.72265625</ele>
        <time>2021-08-26T13:35:54Z</time>
      </trkpt>
      <trkpt lat="46.21205" lon="6.49543">
        <ele>951.12109375</ele>
        <time>2021-08-26T13:35:55Z</time>
      </trkpt>
      <trkpt lat="46.21203" lon="6.49539">
        <ele>952.96484375</ele>
        <time>2021-08-26T13:35:56Z</time>
      </trkpt>
      <trkpt lat="46.21201" lon="6.49529">
        <ele>957.16015625</ele>
        <time>2021-08-26T13:36:00Z</time>
      </trkpt>
      <trkpt lat="46.21202" lon="6.49526">
        <ele>957.7734375</ele>
        <time>2021-08-26T13:36:01Z</time>
      </trkpt>
      <trkpt lat="46.21205" lon="6.49525">
        <ele>957.98046875</ele>
        <time>2021-08-26T13:36:02Z</time>
      </trkpt>
      <trkpt lat="46.21208" lon="6.49524">
        <ele>957.79296875</ele>
        <time>2021-08-26T13:36:03Z</time>
      </trkpt>
      <trkpt lat="46.2121" lon="6.49524">
        <ele>957.2890625</ele>
        <time>2021-08-26T13:36:04Z</time>
      </trkpt>
      <trkpt lat="46.21212" lon="6.49524">
        <ele>956.6953125</ele>
        <time>2021-08-26T13:36:05Z</time>
      </trkpt>
      <trkpt lat="46.21215" lon="6.49526">
        <ele>956.14453125</ele>
        <time>2021-08-26T13:36:06Z</time>
      </trkpt>
      <trkpt lat="46.21217" lon="6.49527">
        <ele>955.6484375</ele>
        <time>2021-08-26T13:36:07Z</time>
      </trkpt>
      <trkpt lat="46.21219" lon="6.49527">
        <ele>955.25390625</ele>
        <time>2021-08-26T13:36:08Z</time>
      </trkpt>
      <trkpt lat="46.21222" lon="6.49528">
        <ele>954.9765625</ele>
        <time>2021-08-26T13:36:09Z</time>
      </trkpt>
      <trkpt lat="46.21224" lon="6.49528">
        <ele>954.77734375</ele>
        <time>2021-08-26T13:36:10Z</time>
      </trkpt>
      <trkpt lat="46.21227" lon="6.49528">
        <ele>954.609375</ele>
        <time>2021-08-26T13:36:11Z</time>
      </trkpt>
      <trkpt lat="46.21255" lon="6.49532">
        <ele>951.734375</ele>
        <time>2021-08-26T13:36:22Z</time>
      </trkpt>
      <trkpt lat="46.21257" lon="6.49533">
        <ele>951.37890625</ele>
        <time>2021-08-26T13:36:23Z</time>
      </trkpt>
      <trkpt lat="46.21258" lon="6.49534">
        <ele>951.10546875</ele>
        <time>2021-08-26T13:36:24Z</time>
      </trkpt>
      <trkpt lat="46.21285" lon="6.49546">
        <ele>949.95703125</ele>
        <time>2021-08-26T13:36:35Z</time>
      </trkpt>
      <trkpt lat="46.21312" lon="6.49555">
        <ele>952.68359375</ele>
        <time>2021-08-26T13:36:48Z</time>
      </trkpt>
      <trkpt lat="46.2134" lon="6.49567">
        <ele>955.40625</ele>
        <time>2021-08-26T13:37:01Z</time>
      </trkpt>
      <trkpt lat="46.21352" lon="6.4957">
        <ele>957.27734375</ele>
        <time>2021-08-26T13:37:06Z</time>
      </trkpt>
      <trkpt lat="46.21377" lon="6.49575">
        <ele>959.24609375</ele>
        <time>2021-08-26T13:37:19Z</time>
      </trkpt>
      <trkpt lat="46.21379" lon="6.49575">
        <ele>959.3828125</ele>
        <time>2021-08-26T13:37:20Z</time>
      </trkpt>
      <trkpt lat="46.21397" lon="6.49562">
        <ele>965.69921875</ele>
        <time>2021-08-26T13:37:29Z</time>
      </trkpt>
      <trkpt lat="46.21398" lon="6.4955">
        <ele>969.578125</ele>
        <time>2021-08-26T13:37:33Z</time>
      </trkpt>
      <trkpt lat="46.21397" lon="6.49548">
        <ele>970.171875</ele>
        <time>2021-08-26T13:37:34Z</time>
      </trkpt>
      <trkpt lat="46.21395" lon="6.49546">
        <ele>970.66796875</ele>
        <time>2021-08-26T13:37:35Z</time>
      </trkpt>
      <trkpt lat="46.21393" lon="6.49545">
        <ele>970.75390625</ele>
        <time>2021-08-26T13:37:36Z</time>
      </trkpt>
      <trkpt lat="46.21391" lon="6.49545">
        <ele>970.6484375</ele>
        <time>2021-08-26T13:37:37Z</time>
      </trkpt>
      <trkpt lat="46.21389" lon="6.49545">
        <ele>970.37109375</ele>
        <time>2021-08-26T13:37:38Z</time>
      </trkpt>
      <trkpt lat="46.21387" lon="6.49546">
        <ele>970.02734375</ele>
        <time>2021-08-26T13:37:39Z</time>
      </trkpt>
      <trkpt lat="46.21385" lon="6.49546">
        <ele>969.71875</ele>
        <time>2021-08-26T13:37:40Z</time>
      </trkpt>
      <trkpt lat="46.21383" lon="6.49546">
        <ele>969.44921875</ele>
        <time>2021-08-26T13:37:41Z</time>
      </trkpt>
      <trkpt lat="46.21353" lon="6.49539">
        <ele>967.59375</ele>
        <time>2021-08-26T13:37:55Z</time>
      </trkpt>
      <trkpt lat="46.21341" lon="6.49531">
        <ele>967.95703125</ele>
        <time>2021-08-26T13:38:01Z</time>
      </trkpt>
      <trkpt lat="46.21323" lon="6.49507">
        <ele>971.859375</ele>
        <time>2021-08-26T13:38:11Z</time>
      </trkpt>
      <trkpt lat="46.21322" lon="6.49505">
        <ele>972.66796875</ele>
        <time>2021-08-26T13:38:12Z</time>
      </trkpt>
      <trkpt lat="46.21321" lon="6.49501">
        <ele>973.5625</ele>
        <time>2021-08-26T13:38:13Z</time>
      </trkpt>
      <trkpt lat="46.2132" lon="6.49498">
        <ele>974.46484375</ele>
        <time>2021-08-26T13:38:14Z</time>
      </trkpt>
      <trkpt lat="46.21319" lon="6.49496">
        <ele>975.234375</ele>
        <time>2021-08-26T13:38:15Z</time>
      </trkpt>
      <trkpt lat="46.21317" lon="6.49493">
        <ele>975.734375</ele>
        <time>2021-08-26T13:38:16Z</time>
      </trkpt>
      <trkpt lat="46.21316" lon="6.49491">
        <ele>976.48828125</ele>
        <time>2021-08-26T13:38:17Z</time>
      </trkpt>
      <trkpt lat="46.21314" lon="6.49488">
        <ele>977.08984375</ele>
        <time>2021-08-26T13:38:18Z</time>
      </trkpt>
      <trkpt lat="46.21292" lon="6.49462">
        <ele>982.58203125</ele>
        <time>2021-08-26T13:38:31Z</time>
      </trkpt>
      <trkpt lat="46.21268" lon="6.49436">
        <ele>987.50390625</ele>
        <time>2021-08-26T13:38:44Z</time>
      </trkpt>
      <trkpt lat="46.21242" lon="6.49408">
        <ele>996.4140625</ele>
        <time>2021-08-26T13:38:58Z</time>
      </trkpt>
      <trkpt lat="46.21231" lon="6.4939">
        <ele>1001.68359375</ele>
        <time>2021-08-26T13:39:07Z</time>
      </trkpt>
      <trkpt lat="46.21232" lon="6.49388">
        <ele>1002.0859375</ele>
        <time>2021-08-26T13:39:08Z</time>
      </trkpt>
      <trkpt lat="46.21234" lon="6.49386">
        <ele>1002.484375</ele>
        <time>2021-08-26T13:39:09Z</time>
      </trkpt>
      <trkpt lat="46.21235" lon="6.49384">
        <ele>1002.82421875</ele>
        <time>2021-08-26T13:39:10Z</time>
      </trkpt>
      <trkpt lat="46.21237" lon="6.49383">
        <ele>1002.92578125</ele>
        <time>2021-08-26T13:39:11Z</time>
      </trkpt>
      <trkpt lat="46.21239" lon="6.49383">
        <ele>1002.94140625</ele>
        <time>2021-08-26T13:39:12Z</time>
      </trkpt>
      <trkpt lat="46.21241" lon="6.49382">
        <ele>1002.91796875</ele>
        <time>2021-08-26T13:39:13Z</time>
      </trkpt>
      <trkpt lat="46.21243" lon="6.49382">
        <ele>1002.73828125</ele>
        <time>2021-08-26T13:39:14Z</time>
      </trkpt>
      <trkpt lat="46.21245" lon="6.49383">
        <ele>1002.4765625</ele>
        <time>2021-08-26T13:39:15Z</time>
      </trkpt>
      <trkpt lat="46.21248" lon="6.49383">
        <ele>1002.1171875</ele>
        <time>2021-08-26T13:39:16Z</time>
      </trkpt>
      <trkpt lat="46.21283" lon="6.49396">
        <ele>999.62890625</ele>
        <time>2021-08-26T13:39:31Z</time>
      </trkpt>
      <trkpt lat="46.21288" lon="6.49397">
        <ele>999.921875</ele>
        <time>2021-08-26T13:39:33Z</time>
      </trkpt>
      <trkpt lat="46.21315" lon="6.49406">
        <ele>1001.62890625</ele>
        <time>2021-08-26T13:39:46Z</time>
      </trkpt>
      <trkpt lat="46.21339" lon="6.49422">
        <ele>1002.64453125</ele>
        <time>2021-08-26T13:39:58Z</time>
      </trkpt>
      <trkpt lat="46.21345" lon="6.49428">
        <ele>1002.56640625</ele>
        <time>2021-08-26T13:40:01Z</time>
      </trkpt>
      <trkpt lat="46.21347" lon="6.4943">
        <ele>1002.80859375</ele>
        <time>2021-08-26T13:40:02Z</time>
      </trkpt>
      <trkpt lat="46.21349" lon="6.49432">
        <ele>1002.92578125</ele>
        <time>2021-08-26T13:40:03Z</time>
      </trkpt>
      <trkpt lat="46.21351" lon="6.49434">
        <ele>1002.796875</ele>
        <time>2021-08-26T13:40:04Z</time>
      </trkpt>
      <trkpt lat="46.21352" lon="6.49437">
        <ele>1002.57421875</ele>
        <time>2021-08-26T13:40:05Z</time>
      </trkpt>
      <trkpt lat="46.2137" lon="6.49458">
        <ele>1002.09375</ele>
        <time>2021-08-26T13:40:16Z</time>
      </trkpt>
      <trkpt lat="46.21404" lon="6.49481">
        <ele>1001.40625</ele>
        <time>2021-08-26T13:40:31Z</time>
      </trkpt>
      <trkpt lat="46.21435" lon="6.49483">
        <ele>1004.3125</ele>
        <time>2021-08-26T13:40:45Z</time>
      </trkpt>
      <trkpt lat="46.21446" lon="6.49478">
        <ele>1007.8125</ele>
        <time>2021-08-26T13:40:57Z</time>
      </trkpt>
      <trkpt lat="46.21446" lon="6.49471">
        <ele>1011.31640625</ele>
        <time>2021-08-26T13:41:25Z</time>
      </trkpt>
      <trkpt lat="46.21451" lon="6.49462">
        <ele>1015.1796875</ele>
        <time>2021-08-26T13:41:42Z</time>
      </trkpt>
      <trkpt lat="46.21438" lon="6.49439">
        <ele>1018.94140625</ele>
        <time>2021-08-26T13:41:53Z</time>
      </trkpt>
      <trkpt lat="46.21411" lon="6.49404">
        <ele>1022.45703125</ele>
        <time>2021-08-26T13:42:08Z</time>
      </trkpt>
      <trkpt lat="46.21393" lon="6.49364">
        <ele>1024.61328125</ele>
        <time>2021-08-26T13:42:21Z</time>
      </trkpt>
      <trkpt lat="46.21375" lon="6.49336">
        <ele>1025.5625</ele>
        <time>2021-08-26T13:42:31Z</time>
      </trkpt>
      <trkpt lat="46.21354" lon="6.49296">
        <ele>1029.26953125</ele>
        <time>2021-08-26T13:42:45Z</time>
      </trkpt>
      <trkpt lat="46.21377" lon="6.49279">
        <ele>1037.09375</ele>
        <time>2021-08-26T13:42:56Z</time>
      </trkpt>
      <trkpt lat="46.21413" lon="6.49288">
        <ele>1041.609375</ele>
        <time>2021-08-26T13:43:10Z</time>
      </trkpt>
      <trkpt lat="46.21418" lon="6.4929">
        <ele>1041.89453125</ele>
        <time>2021-08-26T13:43:12Z</time>
      </trkpt>
      <trkpt lat="46.21451" lon="6.493">
        <ele>1043.60546875</ele>
        <time>2021-08-26T13:43:25Z</time>
      </trkpt>
      <trkpt lat="46.21472" lon="6.49289">
        <ele>1046.953125</ele>
        <time>2021-08-26T13:43:35Z</time>
      </trkpt>
      <trkpt lat="46.21472" lon="6.49285">
        <ele>1047.6171875</ele>
        <time>2021-08-26T13:43:36Z</time>
      </trkpt>
      <trkpt lat="46.21472" lon="6.49281">
        <ele>1048.27734375</ele>
        <time>2021-08-26T13:43:37Z</time>
      </trkpt>
      <trkpt lat="46.2147" lon="6.49278">
        <ele>1048.8828125</ele>
        <time>2021-08-26T13:43:38Z</time>
      </trkpt>
      <trkpt lat="46.21468" lon="6.49275">
        <ele>1049.37109375</ele>
        <time>2021-08-26T13:43:39Z</time>
      </trkpt>
      <trkpt lat="46.21466" lon="6.49273">
        <ele>1049.6640625</ele>
        <time>2021-08-26T13:43:40Z</time>
      </trkpt>
      <trkpt lat="46.21463" lon="6.49272">
        <ele>1049.8828125</ele>
        <time>2021-08-26T13:43:41Z</time>
      </trkpt>
      <trkpt lat="46.21427" lon="6.49248">
        <ele>1050.265625</ele>
        <time>2021-08-26T13:43:56Z</time>
      </trkpt>
      <trkpt lat="46.21404" lon="6.49219">
        <ele>1053.12109375</ele>
        <time>2021-08-26T13:44:08Z</time>
      </trkpt>
      <trkpt lat="46.21386" lon="6.49197">
        <ele>1056.140625</ele>
        <time>2021-08-26T13:44:20Z</time>
      </trkpt>
      <trkpt lat="46.21358" lon="6.4919">
        <ele>1056.61328125</ele>
        <time>2021-08-26T13:44:32Z</time>
      </trkpt>
      <trkpt lat="46.21328" lon="6.49193">
        <ele>1053.73046875</ele>
        <time>2021-08-26T13:44:44Z</time>
      </trkpt>
      <trkpt lat="46.21323" lon="6.49192">
        <ele>1053.625</ele>
        <time>2021-08-26T13:44:46Z</time>
      </trkpt>
      <trkpt lat="46.2129" lon="6.49183">
        <ele>1055.59375</ele>
        <time>2021-08-26T13:45:00Z</time>
      </trkpt>
      <trkpt lat="46.21263" lon="6.49171">
        <ele>1058.89453125</ele>
        <time>2021-08-26T13:45:13Z</time>
      </trkpt>
      <trkpt lat="46.21235" lon="6.49161">
        <ele>1061.59765625</ele>
        <time>2021-08-26T13:45:25Z</time>
      </trkpt>
      <trkpt lat="46.21207" lon="6.49144">
        <ele>1066.7265625</ele>
        <time>2021-08-26T13:45:38Z</time>
      </trkpt>
      <trkpt lat="46.21179" lon="6.49134">
        <ele>1069.42578125</ele>
        <time>2021-08-26T13:45:51Z</time>
      </trkpt>
      <trkpt lat="46.21164" lon="6.49123">
        <ele>1073.05078125</ele>
        <time>2021-08-26T13:46:00Z</time>
      </trkpt>
      <trkpt lat="46.21149" lon="6.49113">
        <ele>1076.359375</ele>
        <time>2021-08-26T13:46:07Z</time>
      </trkpt>
      <trkpt lat="46.21147" lon="6.49112">
        <ele>1076.83984375</ele>
        <time>2021-08-26T13:46:08Z</time>
      </trkpt>
      <trkpt lat="46.21145" lon="6.49112">
        <ele>1077.1171875</ele>
        <time>2021-08-26T13:46:09Z</time>
      </trkpt>
      <trkpt lat="46.21143" lon="6.49111">
        <ele>1077.4375</ele>
        <time>2021-08-26T13:46:10Z</time>
      </trkpt>
      <trkpt lat="46.21141" lon="6.4911">
        <ele>1077.9140625</ele>
        <time>2021-08-26T13:46:11Z</time>
      </trkpt>
      <trkpt lat="46.21139" lon="6.49108">
        <ele>1078.46875</ele>
        <time>2021-08-26T13:46:12Z</time>
      </trkpt>
      <trkpt lat="46.21132" lon="6.49105">
        <ele>1079.65234375</ele>
        <time>2021-08-26T13:46:15Z</time>
      </trkpt>
      <trkpt lat="46.21107" lon="6.49096">
        <ele>1085.921875</ele>
        <time>2021-08-26T13:46:26Z</time>
      </trkpt>
      <trkpt lat="46.21077" lon="6.4909">
        <ele>1093.72265625</ele>
        <time>2021-08-26T13:46:38Z</time>
      </trkpt>
      <trkpt lat="46.21053" lon="6.49096">
        <ele>1097.875</ele>
        <time>2021-08-26T13:46:50Z</time>
      </trkpt>
      <trkpt lat="46.21028" lon="6.49111">
        <ele>1099.42578125</ele>
        <time>2021-08-26T13:46:59Z</time>
      </trkpt>
      <trkpt lat="46.21" lon="6.49124">
        <ele>1102.21875</ele>
        <time>2021-08-26T13:47:14Z</time>
      </trkpt>
      <trkpt lat="46.2097" lon="6.49137">
        <ele>1103.37109375</ele>
        <time>2021-08-26T13:47:27Z</time>
      </trkpt>
      <trkpt lat="46.20945" lon="6.49143">
        <ele>1104.10546875</ele>
        <time>2021-08-26T13:47:38Z</time>
      </trkpt>
      <trkpt lat="46.20913" lon="6.49144">
        <ele>1105.29296875</ele>
        <time>2021-08-26T13:47:52Z</time>
      </trkpt>
      <trkpt lat="46.20887" lon="6.4914">
        <ele>1107.22265625</ele>
        <time>2021-08-26T13:48:04Z</time>
      </trkpt>
      <trkpt lat="46.20885" lon="6.49141">
        <ele>1106.66796875</ele>
        <time>2021-08-26T13:48:18Z</time>
      </trkpt>
      <trkpt lat="46.20885" lon="6.49139">
        <ele>1107.57421875</ele>
        <time>2021-08-26T13:48:28Z</time>
      </trkpt>
      <trkpt lat="46.20887" lon="6.49139">
        <ele>1107.4765625</ele>
        <time>2021-08-26T13:48:30Z</time>
      </trkpt>
      <trkpt lat="46.20887" lon="6.49141">
        <ele>1106.75</ele>
        <time>2021-08-26T13:48:31Z</time>
      </trkpt>
      <trkpt lat="46.20887" lon="6.49143">
        <ele>1105.875</ele>
        <time>2021-08-26T13:48:32Z</time>
      </trkpt>
      <trkpt lat="46.20881" lon="6.49146">
        <ele>1105.09765625</ele>
        <time>2021-08-26T13:48:36Z</time>
      </trkpt>
      <trkpt lat="46.20853" lon="6.49133">
        <ele>1109.6171875</ele>
        <time>2021-08-26T13:48:49Z</time>
      </trkpt>
      <trkpt lat="46.20831" lon="6.49122">
        <ele>1114.7265625</ele>
        <time>2021-08-26T13:49:00Z</time>
      </trkpt>
      <trkpt lat="46.20804" lon="6.49106">
        <ele>1122.8671875</ele>
        <time>2021-08-26T13:49:13Z</time>
      </trkpt>
      <trkpt lat="46.20771" lon="6.49108">
        <ele>1125.02734375</ele>
        <time>2021-08-26T13:49:26Z</time>
      </trkpt>
      <trkpt lat="46.20741" lon="6.49115">
        <ele>1125.05859375</ele>
        <time>2021-08-26T13:49:38Z</time>
      </trkpt>
      <trkpt lat="46.20713" lon="6.49122">
        <ele>1123.2578125</ele>
        <time>2021-08-26T13:49:50Z</time>
      </trkpt>
      <trkpt lat="46.20684" lon="6.49122">
        <ele>1125.78125</ele>
        <time>2021-08-26T13:50:02Z</time>
      </trkpt>
      <trkpt lat="46.20657" lon="6.49113">
        <ele>1132.40625</ele>
        <time>2021-08-26T13:50:14Z</time>
      </trkpt>
      <trkpt lat="46.20627" lon="6.49113">
        <ele>1134.4140625</ele>
        <time>2021-08-26T13:50:28Z</time>
      </trkpt>
      <trkpt lat="46.20595" lon="6.49121">
        <ele>1131.98046875</ele>
        <time>2021-08-26T13:50:41Z</time>
      </trkpt>
      <trkpt lat="46.20565" lon="6.49119">
        <ele>1130.453125</ele>
        <time>2021-08-26T13:50:53Z</time>
      </trkpt>
      <trkpt lat="46.20532" lon="6.491">
        <ele>1131.42578125</ele>
        <time>2021-08-26T13:51:07Z</time>
      </trkpt>
      <trkpt lat="46.20512" lon="6.49074">
        <ele>1135.2578125</ele>
        <time>2021-08-26T13:51:19Z</time>
      </trkpt>
      <trkpt lat="46.20492" lon="6.49041">
        <ele>1139.23046875</ele>
        <time>2021-08-26T13:51:32Z</time>
      </trkpt>
      <trkpt lat="46.2047" lon="6.49015">
        <ele>1141.3359375</ele>
        <time>2021-08-26T13:51:45Z</time>
      </trkpt>
      <trkpt lat="46.20438" lon="6.49014">
        <ele>1136.53125</ele>
        <time>2021-08-26T13:51:58Z</time>
      </trkpt>
      <trkpt lat="46.20412" lon="6.48981">
        <ele>1151.98046875</ele>
        <time>2021-08-26T13:52:12Z</time>
      </trkpt>
      <trkpt lat="46.20388" lon="6.48945">
        <ele>1168.45703125</ele>
        <time>2021-08-26T13:52:24Z</time>
      </trkpt>
      <trkpt lat="46.20367" lon="6.48946">
        <ele>1171.55859375</ele>
        <time>2021-08-26T13:52:33Z</time>
      </trkpt>
      <trkpt lat="46.2034" lon="6.48936">
        <ele>1178.40625</ele>
        <time>2021-08-26T13:52:45Z</time>
      </trkpt>
      <trkpt lat="46.20359" lon="6.48909">
        <ele>1180.33984375</ele>
        <time>2021-08-26T13:52:56Z</time>
      </trkpt>
      <trkpt lat="46.20385" lon="6.48894">
        <ele>1179.87890625</ele>
        <time>2021-08-26T13:53:07Z</time>
      </trkpt>
      <trkpt lat="46.20415" lon="6.48876">
        <ele>1182.1953125</ele>
        <time>2021-08-26T13:53:20Z</time>
      </trkpt>
      <trkpt lat="46.20443" lon="6.48879">
        <ele>1183.703125</ele>
        <time>2021-08-26T13:53:32Z</time>
      </trkpt>
      <trkpt lat="46.20466" lon="6.48913">
        <ele>1181.23046875</ele>
        <time>2021-08-26T13:53:46Z</time>
      </trkpt>
      <trkpt lat="46.20488" lon="6.48942">
        <ele>1178.9453125</ele>
        <time>2021-08-26T13:53:59Z</time>
      </trkpt>
      <trkpt lat="46.20492" lon="6.48945">
        <ele>1178.7578125</ele>
        <time>2021-08-26T13:54:01Z</time>
      </trkpt>
      <trkpt lat="46.20493" lon="6.48947">
        <ele>1178.62109375</ele>
        <time>2021-08-26T13:54:02Z</time>
      </trkpt>
      <trkpt lat="46.20504" lon="6.4896">
        <ele>1177.6015625</ele>
        <time>2021-08-26T13:54:09Z</time>
      </trkpt>
      <trkpt lat="46.20505" lon="6.48961">
        <ele>1177.78515625</ele>
        <time>2021-08-26T13:54:10Z</time>
      </trkpt>
      <trkpt lat="46.20507" lon="6.48962">
        <ele>1177.98046875</ele>
        <time>2021-08-26T13:54:11Z</time>
      </trkpt>
      <trkpt lat="46.20509" lon="6.48963">
        <ele>1178.19140625</ele>
        <time>2021-08-26T13:54:12Z</time>
      </trkpt>
      <trkpt lat="46.20511" lon="6.48964">
        <ele>1178.28515625</ele>
        <time>2021-08-26T13:54:13Z</time>
      </trkpt>
      <trkpt lat="46.20513" lon="6.48966">
        <ele>1178.40625</ele>
        <time>2021-08-26T13:54:14Z</time>
      </trkpt>
      <trkpt lat="46.20516" lon="6.48968">
        <ele>1178.46484375</ele>
        <time>2021-08-26T13:54:15Z</time>
      </trkpt>
      <trkpt lat="46.20546" lon="6.48982">
        <ele>1183.53125</ele>
        <time>2021-08-26T13:54:27Z</time>
      </trkpt>
      <trkpt lat="46.20561" lon="6.48983">
        <ele>1187.0546875</ele>
        <time>2021-08-26T13:54:33Z</time>
      </trkpt>
      <trkpt lat="46.20563" lon="6.48983">
        <ele>1187.65625</ele>
        <time>2021-08-26T13:54:34Z</time>
      </trkpt>
      <trkpt lat="46.20565" lon="6.48984">
        <ele>1188.015625</ele>
        <time>2021-08-26T13:54:35Z</time>
      </trkpt>
      <trkpt lat="46.20591" lon="6.48985">
        <ele>1194.28125</ele>
        <time>2021-08-26T13:54:47Z</time>
      </trkpt>
      <trkpt lat="46.20617" lon="6.48985">
        <ele>1197.37109375</ele>
        <time>2021-08-26T13:54:59Z</time>
      </trkpt>
      <trkpt lat="46.20642" lon="6.48972">
        <ele>1202.70703125</ele>
        <time>2021-08-26T13:55:08Z</time>
      </trkpt>
      <trkpt lat="46.20652" lon="6.48961">
        <ele>1206.44140625</ele>
        <time>2021-08-26T13:55:13Z</time>
      </trkpt>
      <trkpt lat="46.20652" lon="6.48958">
        <ele>1207.625</ele>
        <time>2021-08-26T13:55:14Z</time>
      </trkpt>
      <trkpt lat="46.20653" lon="6.48954">
        <ele>1208.859375</ele>
        <time>2021-08-26T13:55:15Z</time>
      </trkpt>
      <trkpt lat="46.20654" lon="6.48951">
        <ele>1209.921875</ele>
        <time>2021-08-26T13:55:16Z</time>
      </trkpt>
      <trkpt lat="46.20655" lon="6.48948">
        <ele>1210.9453125</ele>
        <time>2021-08-26T13:55:17Z</time>
      </trkpt>
      <trkpt lat="46.20672" lon="6.4891">
        <ele>1220.07421875</ele>
        <time>2021-08-26T13:55:30Z</time>
      </trkpt>
      <trkpt lat="46.20702" lon="6.48899">
        <ele>1218.1953125</ele>
        <time>2021-08-26T13:55:42Z</time>
      </trkpt>
      <trkpt lat="46.20732" lon="6.48895">
        <ele>1217.94140625</ele>
        <time>2021-08-26T13:55:55Z</time>
      </trkpt>
      <trkpt lat="46.20765" lon="6.48885">
        <ele>1223.19921875</ele>
        <time>2021-08-26T13:56:09Z</time>
      </trkpt>
      <trkpt lat="46.20793" lon="6.48877">
        <ele>1228.71875</ele>
        <time>2021-08-26T13:56:21Z</time>
      </trkpt>
      <trkpt lat="46.20823" lon="6.48865">
        <ele>1233.875</ele>
        <time>2021-08-26T13:56:35Z</time>
      </trkpt>
      <trkpt lat="46.20852" lon="6.48831">
        <ele>1237.44921875</ele>
        <time>2021-08-26T13:56:49Z</time>
      </trkpt>
      <trkpt lat="46.20886" lon="6.48787">
        <ele>1237.921875</ele>
        <time>2021-08-26T13:57:06Z</time>
      </trkpt>
      <trkpt lat="46.20905" lon="6.48756">
        <ele>1240.29296875</ele>
        <time>2021-08-26T13:57:19Z</time>
      </trkpt>
      <trkpt lat="46.20914" lon="6.48745">
        <ele>1241.26953125</ele>
        <time>2021-08-26T13:57:28Z</time>
      </trkpt>
      <trkpt lat="46.20946" lon="6.4874">
        <ele>1237.6328125</ele>
        <time>2021-08-26T13:57:41Z</time>
      </trkpt>
      <trkpt lat="46.20997" lon="6.48717">
        <ele>1239.75</ele>
        <time>2021-08-26T13:57:53Z</time>
      </trkpt>
      <trkpt lat="46.2104" lon="6.48698">
        <ele>1244.46484375</ele>
        <time>2021-08-26T13:58:05Z</time>
      </trkpt>
      <trkpt lat="46.21042" lon="6.48659">
        <ele>1253.53125</ele>
        <time>2021-08-26T13:58:14Z</time>
      </trkpt>
      <trkpt lat="46.21037" lon="6.48652">
        <ele>1254.6796875</ele>
        <time>2021-08-26T13:58:16Z</time>
      </trkpt>
      <trkpt lat="46.21014" lon="6.48634">
        <ele>1259.49609375</ele>
        <time>2021-08-26T13:58:24Z</time>
      </trkpt>
      <trkpt lat="46.21011" lon="6.48633">
        <ele>1259.9765625</ele>
        <time>2021-08-26T13:58:25Z</time>
      </trkpt>
      <trkpt lat="46.21008" lon="6.48632">
        <ele>1260.4921875</ele>
        <time>2021-08-26T13:58:26Z</time>
      </trkpt>
      <trkpt lat="46.21004" lon="6.4863">
        <ele>1261.09765625</ele>
        <time>2021-08-26T13:58:27Z</time>
      </trkpt>
      <trkpt lat="46.21" lon="6.48629">
        <ele>1261.765625</ele>
        <time>2021-08-26T13:58:28Z</time>
      </trkpt>
      <trkpt lat="46.20996" lon="6.48627">
        <ele>1262.40234375</ele>
        <time>2021-08-26T13:58:29Z</time>
      </trkpt>
      <trkpt lat="46.20993" lon="6.48626">
        <ele>1263.05078125</ele>
        <time>2021-08-26T13:58:30Z</time>
      </trkpt>
      <trkpt lat="46.2099" lon="6.48623">
        <ele>1263.78125</ele>
        <time>2021-08-26T13:58:31Z</time>
      </trkpt>
      <trkpt lat="46.20987" lon="6.4862">
        <ele>1264.796875</ele>
        <time>2021-08-26T13:58:32Z</time>
      </trkpt>
      <trkpt lat="46.20958" lon="6.48584">
        <ele>1275.47265625</ele>
        <time>2021-08-26T13:58:43Z</time>
      </trkpt>
      <trkpt lat="46.20947" lon="6.48529">
        <ele>1272.30859375</ele>
        <time>2021-08-26T13:58:55Z</time>
      </trkpt>
      <trkpt lat="46.20966" lon="6.48479">
        <ele>1266.28515625</ele>
        <time>2021-08-26T13:59:06Z</time>
      </trkpt>
      <trkpt lat="46.2097" lon="6.48476">
        <ele>1265.859375</ele>
        <time>2021-08-26T13:59:07Z</time>
      </trkpt>
      <trkpt lat="46.21004" lon="6.48468">
        <ele>1261.6953125</ele>
        <time>2021-08-26T13:59:17Z</time>
      </trkpt>
      <trkpt lat="46.2105" lon="6.48469">
        <ele>1259.41796875</ele>
        <time>2021-08-26T13:59:29Z</time>
      </trkpt>
      <trkpt lat="46.21086" lon="6.48462">
        <ele>1261.296875</ele>
        <time>2021-08-26T13:59:39Z</time>
      </trkpt>
      <trkpt lat="46.21093" lon="6.48442">
        <ele>1265.1875</ele>
        <time>2021-08-26T13:59:49Z</time>
      </trkpt>
      <trkpt lat="46.21092" lon="6.48444">
        <ele>1264.96875</ele>
        <time>2021-08-26T14:00:17Z</time>
      </trkpt>
      <trkpt lat="46.21093" lon="6.48442">
        <ele>1265.35546875</ele>
        <time>2021-08-26T14:00:23Z</time>
      </trkpt>
      <trkpt lat="46.21095" lon="6.48441">
        <ele>1265.51171875</ele>
        <time>2021-08-26T14:00:24Z</time>
      </trkpt>
      <trkpt lat="46.21097" lon="6.4844">
        <ele>1265.703125</ele>
        <time>2021-08-26T14:00:25Z</time>
      </trkpt>
      <trkpt lat="46.21137" lon="6.4842">
        <ele>1265.6484375</ele>
        <time>2021-08-26T14:00:36Z</time>
      </trkpt>
      <trkpt lat="46.21185" lon="6.48415">
        <ele>1262.68359375</ele>
        <time>2021-08-26T14:00:49Z</time>
      </trkpt>
      <trkpt lat="46.21222" lon="6.48416">
        <ele>1261.44140625</ele>
        <time>2021-08-26T14:00:58Z</time>
      </trkpt>
      <trkpt lat="46.21264" lon="6.48407">
        <ele>1259.92578125</ele>
        <time>2021-08-26T14:01:09Z</time>
      </trkpt>
      <trkpt lat="46.21289" lon="6.48393">
        <ele>1259.70703125</ele>
        <time>2021-08-26T14:01:15Z</time>
      </trkpt>
      <trkpt lat="46.21306" lon="6.48388">
        <ele>1257.84765625</ele>
        <time>2021-08-26T14:01:19Z</time>
      </trkpt>
      <trkpt lat="46.2131" lon="6.48387">
        <ele>1257.55859375</ele>
        <time>2021-08-26T14:01:20Z</time>
      </trkpt>
      <trkpt lat="46.21313" lon="6.48384">
        <ele>1257.46875</ele>
        <time>2021-08-26T14:01:21Z</time>
      </trkpt>
      <trkpt lat="46.21316" lon="6.48382">
        <ele>1257.6171875</ele>
        <time>2021-08-26T14:01:22Z</time>
      </trkpt>
      <trkpt lat="46.21319" lon="6.48379">
        <ele>1257.828125</ele>
        <time>2021-08-26T14:01:23Z</time>
      </trkpt>
      <trkpt lat="46.21322" lon="6.48376">
        <ele>1258.109375</ele>
        <time>2021-08-26T14:01:24Z</time>
      </trkpt>
      <trkpt lat="46.21326" lon="6.48372">
        <ele>1258.40625</ele>
        <time>2021-08-26T14:01:25Z</time>
      </trkpt>
      <trkpt lat="46.21331" lon="6.48369">
        <ele>1258.52734375</ele>
        <time>2021-08-26T14:01:26Z</time>
      </trkpt>
      <trkpt lat="46.21336" lon="6.48365">
        <ele>1258.47265625</ele>
        <time>2021-08-26T14:01:27Z</time>
      </trkpt>
      <trkpt lat="46.21341" lon="6.48363">
        <ele>1258.34765625</ele>
        <time>2021-08-26T14:01:28Z</time>
      </trkpt>
      <trkpt lat="46.21359" lon="6.48354">
        <ele>1257.46875</ele>
        <time>2021-08-26T14:01:31Z</time>
      </trkpt>
      <trkpt lat="46.21404" lon="6.48341">
        <ele>1253.95703125</ele>
        <time>2021-08-26T14:01:37Z</time>
      </trkpt>
      <trkpt lat="46.2141" lon="6.48337">
        <ele>1254.66796875</ele>
        <time>2021-08-26T14:01:38Z</time>
      </trkpt>
      <trkpt lat="46.21416" lon="6.48333">
        <ele>1255.65234375</ele>
        <time>2021-08-26T14:01:39Z</time>
      </trkpt>
      <trkpt lat="46.21449" lon="6.48319">
        <ele>1259.578125</ele>
        <time>2021-08-26T14:01:48Z</time>
      </trkpt>
      <trkpt lat="46.21482" lon="6.4832">
        <ele>1260.33984375</ele>
        <time>2021-08-26T14:02:00Z</time>
      </trkpt>
      <trkpt lat="46.21517" lon="6.48322">
        <ele>1261.86328125</ele>
        <time>2021-08-26T14:02:14Z</time>
      </trkpt>
      <trkpt lat="46.21534" lon="6.48317">
        <ele>1263.71875</ele>
        <time>2021-08-26T14:02:22Z</time>
      </trkpt>
      <trkpt lat="46.21543" lon="6.48312">
        <ele>1265.60546875</ele>
        <time>2021-08-26T14:02:27Z</time>
      </trkpt>
      <trkpt lat="46.21545" lon="6.4831">
        <ele>1266.078125</ele>
        <time>2021-08-26T14:02:28Z</time>
      </trkpt>
      <trkpt lat="46.21546" lon="6.4831">
        <ele>1266.234375</ele>
        <time>2021-08-26T14:02:29Z</time>
      </trkpt>
      <trkpt lat="46.21565" lon="6.48298">
        <ele>1269.7578125</ele>
        <time>2021-08-26T14:02:43Z</time>
      </trkpt>
      <trkpt lat="46.21577" lon="6.4829">
        <ele>1272.13671875</ele>
        <time>2021-08-26T14:02:50Z</time>
      </trkpt>
      <trkpt lat="46.21578" lon="6.48289">
        <ele>1272.19921875</ele>
        <time>2021-08-26T14:02:51Z</time>
      </trkpt>
      <trkpt lat="46.21586" lon="6.48284">
        <ele>1273.49609375</ele>
        <time>2021-08-26T14:02:56Z</time>
      </trkpt>
      <trkpt lat="46.21599" lon="6.48272">
        <ele>1277.109375</ele>
        <time>2021-08-26T14:03:06Z</time>
      </trkpt>
      <trkpt lat="46.21607" lon="6.48262">
        <ele>1279.42578125</ele>
        <time>2021-08-26T14:03:13Z</time>
      </trkpt>
      <trkpt lat="46.21613" lon="6.48254">
        <ele>1281.27734375</ele>
        <time>2021-08-26T14:03:18Z</time>
      </trkpt>
      <trkpt lat="46.21615" lon="6.48252">
        <ele>1281.5</ele>
        <time>2021-08-26T14:03:20Z</time>
      </trkpt>
      <trkpt lat="46.21616" lon="6.48251">
        <ele>1281.87890625</ele>
        <time>2021-08-26T14:03:21Z</time>
      </trkpt>
      <trkpt lat="46.2162" lon="6.48247">
        <ele>1282.48046875</ele>
        <time>2021-08-26T14:03:25Z</time>
      </trkpt>
      <trkpt lat="46.21623" lon="6.48243">
        <ele>1283.21875</ele>
        <time>2021-08-26T14:03:28Z</time>
      </trkpt>
      <trkpt lat="46.21625" lon="6.48241">
        <ele>1283.96875</ele>
        <time>2021-08-26T14:03:29Z</time>
      </trkpt>
      <trkpt lat="46.21645" lon="6.48224">
        <ele>1288.33203125</ele>
        <time>2021-08-26T14:03:43Z</time>
      </trkpt>
      <trkpt lat="46.21656" lon="6.48221">
        <ele>1287.66015625</ele>
        <time>2021-08-26T14:03:49Z</time>
      </trkpt>
      <trkpt lat="46.21658" lon="6.4822">
        <ele>1287.4375</ele>
        <time>2021-08-26T14:03:50Z</time>
      </trkpt>
      <trkpt lat="46.21673" lon="6.48208">
        <ele>1289.15625</ele>
        <time>2021-08-26T14:03:55Z</time>
      </trkpt>
      <trkpt lat="46.21676" lon="6.48206">
        <ele>1289.1953125</ele>
        <time>2021-08-26T14:03:56Z</time>
      </trkpt>
      <trkpt lat="46.21679" lon="6.48203">
        <ele>1289.56640625</ele>
        <time>2021-08-26T14:03:57Z</time>
      </trkpt>
      <trkpt lat="46.21681" lon="6.48201">
        <ele>1289.90234375</ele>
        <time>2021-08-26T14:03:58Z</time>
      </trkpt>
      <trkpt lat="46.21684" lon="6.48197">
        <ele>1290.60546875</ele>
        <time>2021-08-26T14:03:59Z</time>
      </trkpt>
      <trkpt lat="46.21688" lon="6.48193">
        <ele>1291.58984375</ele>
        <time>2021-08-26T14:04:00Z</time>
      </trkpt>
      <trkpt lat="46.21691" lon="6.48189">
        <ele>1292.375</ele>
        <time>2021-08-26T14:04:01Z</time>
      </trkpt>
      <trkpt lat="46.21706" lon="6.48178">
        <ele>1293.4296875</ele>
        <time>2021-08-26T14:04:03Z</time>
      </trkpt>
      <trkpt lat="46.21712" lon="6.48178">
        <ele>1292.35546875</ele>
        <time>2021-08-26T14:04:04Z</time>
      </trkpt>
      <trkpt lat="46.21717" lon="6.48179">
        <ele>1291.046875</ele>
        <time>2021-08-26T14:04:05Z</time>
      </trkpt>
      <trkpt lat="46.21722" lon="6.48183">
        <ele>1289.14453125</ele>
        <time>2021-08-26T14:04:06Z</time>
      </trkpt>
      <trkpt lat="46.21726" lon="6.48189">
        <ele>1286.87890625</ele>
        <time>2021-08-26T14:04:07Z</time>
      </trkpt>
      <trkpt lat="46.21729" lon="6.48194">
        <ele>1284.63671875</ele>
        <time>2021-08-26T14:04:08Z</time>
      </trkpt>
      <trkpt lat="46.21734" lon="6.48198">
        <ele>1282.609375</ele>
        <time>2021-08-26T14:04:09Z</time>
      </trkpt>
      <trkpt lat="46.21738" lon="6.48202">
        <ele>1280.7578125</ele>
        <time>2021-08-26T14:04:10Z</time>
      </trkpt>
      <trkpt lat="46.21742" lon="6.48205">
        <ele>1279.6796875</ele>
        <time>2021-08-26T14:04:11Z</time>
      </trkpt>
      <trkpt lat="46.21747" lon="6.48208">
        <ele>1279.125</ele>
        <time>2021-08-26T14:04:12Z</time>
      </trkpt>
      <trkpt lat="46.21751" lon="6.4821">
        <ele>1278.8359375</ele>
        <time>2021-08-26T14:04:13Z</time>
      </trkpt>
      <trkpt lat="46.21756" lon="6.48211">
        <ele>1278.671875</ele>
        <time>2021-08-26T14:04:14Z</time>
      </trkpt>
      <trkpt lat="46.21772" lon="6.48216">
        <ele>1278.44921875</ele>
        <time>2021-08-26T14:04:17Z</time>
      </trkpt>
      <trkpt lat="46.21778" lon="6.48216">
        <ele>1278.77734375</ele>
        <time>2021-08-26T14:04:18Z</time>
      </trkpt>
      <trkpt lat="46.21784" lon="6.48215">
        <ele>1279.4140625</ele>
        <time>2021-08-26T14:04:19Z</time>
      </trkpt>
      <trkpt lat="46.2179" lon="6.48213">
        <ele>1280.28125</ele>
        <time>2021-08-26T14:04:20Z</time>
      </trkpt>
      <trkpt lat="46.21795" lon="6.4821">
        <ele>1281.3125</ele>
        <time>2021-08-26T14:04:21Z</time>
      </trkpt>
      <trkpt lat="46.21801" lon="6.48206">
        <ele>1282.21875</ele>
        <time>2021-08-26T14:04:22Z</time>
      </trkpt>
      <trkpt lat="46.21832" lon="6.48184">
        <ele>1285.76171875</ele>
        <time>2021-08-26T14:04:30Z</time>
      </trkpt>
      <trkpt lat="46.21856" lon="6.48145">
        <ele>1290.375</ele>
        <time>2021-08-26T14:04:44Z</time>
      </trkpt>
      <trkpt lat="46.21884" lon="6.48107">
        <ele>1291.91015625</ele>
        <time>2021-08-26T14:04:54Z</time>
      </trkpt>
      <trkpt lat="46.21903" lon="6.48075">
        <ele>1292.52734375</ele>
        <time>2021-08-26T14:04:59Z</time>
      </trkpt>
      <trkpt lat="46.21917" lon="6.48052">
        <ele>1291.51171875</ele>
        <time>2021-08-26T14:05:02Z</time>
      </trkpt>
      <trkpt lat="46.21926" lon="6.4804">
        <ele>1289.8671875</ele>
        <time>2021-08-26T14:05:04Z</time>
      </trkpt>
      <trkpt lat="46.21934" lon="6.48032">
        <ele>1287.65234375</ele>
        <time>2021-08-26T14:05:06Z</time>
      </trkpt>
      <trkpt lat="46.2194" lon="6.48027">
        <ele>1286.546875</ele>
        <time>2021-08-26T14:05:08Z</time>
      </trkpt>
      <trkpt lat="46.21939" lon="6.48027">
        <ele>1286.55078125</ele>
        <time>2021-08-26T14:05:18Z</time>
      </trkpt>
      <trkpt lat="46.21938" lon="6.48025">
        <ele>1286.6171875</ele>
        <time>2021-08-26T14:05:40Z</time>
      </trkpt>
      <trkpt lat="46.21937" lon="6.48024">
        <ele>1286.6796875</ele>
        <time>2021-08-26T14:05:45Z</time>
      </trkpt>
      <trkpt lat="46.2194" lon="6.48022">
        <ele>1285.9296875</ele>
        <time>2021-08-26T14:05:47Z</time>
      </trkpt>
      <trkpt lat="46.21942" lon="6.48019">
        <ele>1285.3203125</ele>
        <time>2021-08-26T14:05:48Z</time>
      </trkpt>
      <trkpt lat="46.2195" lon="6.48015">
        <ele>1283.41796875</ele>
        <time>2021-08-26T14:05:50Z</time>
      </trkpt>
      <trkpt lat="46.21954" lon="6.48014">
        <ele>1282.3203125</ele>
        <time>2021-08-26T14:05:51Z</time>
      </trkpt>
      <trkpt lat="46.21958" lon="6.48013">
        <ele>1281.28515625</ele>
        <time>2021-08-26T14:05:52Z</time>
      </trkpt>
      <trkpt lat="46.21961" lon="6.48012">
        <ele>1280.39453125</ele>
        <time>2021-08-26T14:05:53Z</time>
      </trkpt>
      <trkpt lat="46.21965" lon="6.48012">
        <ele>1280.31640625</ele>
        <time>2021-08-26T14:05:54Z</time>
      </trkpt>
      <trkpt lat="46.21968" lon="6.48012">
        <ele>1280.18359375</ele>
        <time>2021-08-26T14:05:55Z</time>
      </trkpt>
      <trkpt lat="46.21972" lon="6.48011">
        <ele>1279.90625</ele>
        <time>2021-08-26T14:05:56Z</time>
      </trkpt>
      <trkpt lat="46.2199" lon="6.48">
        <ele>1276.875</ele>
        <time>2021-08-26T14:06:00Z</time>
      </trkpt>
      <trkpt lat="46.21995" lon="6.47995">
        <ele>1275.6015625</ele>
        <time>2021-08-26T14:06:01Z</time>
      </trkpt>
      <trkpt lat="46.22" lon="6.47989">
        <ele>1273.96875</ele>
        <time>2021-08-26T14:06:02Z</time>
      </trkpt>
      <trkpt lat="46.22021" lon="6.47963">
        <ele>1264.68359375</ele>
        <time>2021-08-26T14:06:06Z</time>
      </trkpt>
      <trkpt lat="46.22038" lon="6.47951">
        <ele>1262.86328125</ele>
        <time>2021-08-26T14:06:09Z</time>
      </trkpt>
      <trkpt lat="46.22047" lon="6.4794">
        <ele>1260.609375</ele>
        <time>2021-08-26T14:06:11Z</time>
      </trkpt>
      <trkpt lat="46.2205" lon="6.47933">
        <ele>1258.66015625</ele>
        <time>2021-08-26T14:06:12Z</time>
      </trkpt>
      <trkpt lat="46.22052" lon="6.47926">
        <ele>1256.7265625</ele>
        <time>2021-08-26T14:06:13Z</time>
      </trkpt>
      <trkpt lat="46.22055" lon="6.47921">
        <ele>1255.23046875</ele>
        <time>2021-08-26T14:06:14Z</time>
      </trkpt>
      <trkpt lat="46.22059" lon="6.47916">
        <ele>1253.98046875</ele>
        <time>2021-08-26T14:06:15Z</time>
      </trkpt>
      <trkpt lat="46.22063" lon="6.47911">
        <ele>1252.78125</ele>
        <time>2021-08-26T14:06:16Z</time>
      </trkpt>
      <trkpt lat="46.22068" lon="6.47906">
        <ele>1251.93359375</ele>
        <time>2021-08-26T14:06:17Z</time>
      </trkpt>
      <trkpt lat="46.22073" lon="6.47901">
        <ele>1251.03125</ele>
        <time>2021-08-26T14:06:18Z</time>
      </trkpt>
      <trkpt lat="46.22087" lon="6.47886">
        <ele>1248.6640625</ele>
        <time>2021-08-26T14:06:21Z</time>
      </trkpt>
      <trkpt lat="46.22091" lon="6.4788">
        <ele>1247.79296875</ele>
        <time>2021-08-26T14:06:22Z</time>
      </trkpt>
      <trkpt lat="46.22095" lon="6.47874">
        <ele>1246.98828125</ele>
        <time>2021-08-26T14:06:23Z</time>
      </trkpt>
      <trkpt lat="46.22108" lon="6.47856">
        <ele>1244.71484375</ele>
        <time>2021-08-26T14:06:26Z</time>
      </trkpt>
      <trkpt lat="46.22112" lon="6.47851">
        <ele>1244.234375</ele>
        <time>2021-08-26T14:06:27Z</time>
      </trkpt>
      <trkpt lat="46.22116" lon="6.47846">
        <ele>1243.5703125</ele>
        <time>2021-08-26T14:06:28Z</time>
      </trkpt>
      <trkpt lat="46.22122" lon="6.47835">
        <ele>1242.0703125</ele>
        <time>2021-08-26T14:06:30Z</time>
      </trkpt>
      <trkpt lat="46.22126" lon="6.4783">
        <ele>1241.33984375</ele>
        <time>2021-08-26T14:06:31Z</time>
      </trkpt>
      <trkpt lat="46.2213" lon="6.47825">
        <ele>1240.7734375</ele>
        <time>2021-08-26T14:06:32Z</time>
      </trkpt>
      <trkpt lat="46.22144" lon="6.47806">
        <ele>1238.30859375</ele>
        <time>2021-08-26T14:06:36Z</time>
      </trkpt>
      <trkpt lat="46.22147" lon="6.478">
        <ele>1237.34375</ele>
        <time>2021-08-26T14:06:37Z</time>
      </trkpt>
      <trkpt lat="46.22151" lon="6.47794">
        <ele>1236.44140625</ele>
        <time>2021-08-26T14:06:38Z</time>
      </trkpt>
      <trkpt lat="46.22155" lon="6.47789">
        <ele>1235.54296875</ele>
        <time>2021-08-26T14:06:39Z</time>
      </trkpt>
      <trkpt lat="46.22158" lon="6.47784">
        <ele>1234.609375</ele>
        <time>2021-08-26T14:06:40Z</time>
      </trkpt>
      <trkpt lat="46.22161" lon="6.47779">
        <ele>1233.67578125</ele>
        <time>2021-08-26T14:06:41Z</time>
      </trkpt>
      <trkpt lat="46.22168" lon="6.47769">
        <ele>1232.03125</ele>
        <time>2021-08-26T14:06:43Z</time>
      </trkpt>
      <trkpt lat="46.22171" lon="6.47766">
        <ele>1231.546875</ele>
        <time>2021-08-26T14:06:44Z</time>
      </trkpt>
      <trkpt lat="46.22181" lon="6.4776">
        <ele>1230.3046875</ele>
        <time>2021-08-26T14:06:46Z</time>
      </trkpt>
      <trkpt lat="46.22192" lon="6.47756">
        <ele>1229.01953125</ele>
        <time>2021-08-26T14:06:48Z</time>
      </trkpt>
      <trkpt lat="46.22203" lon="6.47754">
        <ele>1227.8828125</ele>
        <time>2021-08-26T14:06:50Z</time>
      </trkpt>
      <trkpt lat="46.22208" lon="6.47752">
        <ele>1227.171875</ele>
        <time>2021-08-26T14:06:51Z</time>
      </trkpt>
      <trkpt lat="46.22214" lon="6.47751">
        <ele>1226.47265625</ele>
        <time>2021-08-26T14:06:52Z</time>
      </trkpt>
      <trkpt lat="46.2223" lon="6.4775">
        <ele>1224.703125</ele>
        <time>2021-08-26T14:06:55Z</time>
      </trkpt>
      <trkpt lat="46.22236" lon="6.47748">
        <ele>1223.69921875</ele>
        <time>2021-08-26T14:06:57Z</time>
      </trkpt>
      <trkpt lat="46.22239" lon="6.47745">
        <ele>1223.0703125</ele>
        <time>2021-08-26T14:06:58Z</time>
      </trkpt>
      <trkpt lat="46.22241" lon="6.47741">
        <ele>1222.53125</ele>
        <time>2021-08-26T14:06:59Z</time>
      </trkpt>
      <trkpt lat="46.22243" lon="6.47738">
        <ele>1221.99609375</ele>
        <time>2021-08-26T14:07:00Z</time>
      </trkpt>
      <trkpt lat="46.22245" lon="6.47734">
        <ele>1221.38671875</ele>
        <time>2021-08-26T14:07:01Z</time>
      </trkpt>
      <trkpt lat="46.22249" lon="6.47732">
        <ele>1220.75</ele>
        <time>2021-08-26T14:07:02Z</time>
      </trkpt>
      <trkpt lat="46.22252" lon="6.4773">
        <ele>1220.109375</ele>
        <time>2021-08-26T14:07:03Z</time>
      </trkpt>
      <trkpt lat="46.22304" lon="6.47703">
        <ele>1209.6484375</ele>
        <time>2021-08-26T14:07:13Z</time>
      </trkpt>
      <trkpt lat="46.2231" lon="6.47701">
        <ele>1208.765625</ele>
        <time>2021-08-26T14:07:14Z</time>
      </trkpt>
      <trkpt lat="46.22317" lon="6.47699">
        <ele>1207.86328125</ele>
        <time>2021-08-26T14:07:15Z</time>
      </trkpt>
      <trkpt lat="46.22356" lon="6.47685">
        <ele>1202.94921875</ele>
        <time>2021-08-26T14:07:21Z</time>
      </trkpt>
      <trkpt lat="46.22399" lon="6.47681">
        <ele>1201.3203125</ele>
        <time>2021-08-26T14:07:27Z</time>
      </trkpt>
      <trkpt lat="46.2241" lon="6.47678">
        <ele>1200.84375</ele>
        <time>2021-08-26T14:07:29Z</time>
      </trkpt>
      <trkpt lat="46.22416" lon="6.47674">
        <ele>1200.62890625</ele>
        <time>2021-08-26T14:07:30Z</time>
      </trkpt>
      <trkpt lat="46.22422" lon="6.47671">
        <ele>1200.40625</ele>
        <time>2021-08-26T14:07:31Z</time>
      </trkpt>
      <trkpt lat="46.22451" lon="6.47656">
        <ele>1198.77734375</ele>
        <time>2021-08-26T14:07:35Z</time>
      </trkpt>
      <trkpt lat="46.22487" lon="6.47635">
        <ele>1195.31640625</ele>
        <time>2021-08-26T14:07:39Z</time>
      </trkpt>
      <trkpt lat="46.22505" lon="6.4762">
        <ele>1193.00390625</ele>
        <time>2021-08-26T14:07:41Z</time>
      </trkpt>
      <trkpt lat="46.22524" lon="6.47604">
        <ele>1190.21484375</ele>
        <time>2021-08-26T14:07:43Z</time>
      </trkpt>
      <trkpt lat="46.22533" lon="6.47596">
        <ele>1188.92578125</ele>
        <time>2021-08-26T14:07:44Z</time>
      </trkpt>
      <trkpt lat="46.22557" lon="6.4758">
        <ele>1185.3203125</ele>
        <time>2021-08-26T14:07:47Z</time>
      </trkpt>
      <trkpt lat="46.22563" lon="6.47579">
        <ele>1184.32421875</ele>
        <time>2021-08-26T14:07:48Z</time>
      </trkpt>
      <trkpt lat="46.2257" lon="6.47582">
        <ele>1183.55859375</ele>
        <time>2021-08-26T14:07:49Z</time>
      </trkpt>
      <trkpt lat="46.22575" lon="6.47588">
        <ele>1183.015625</ele>
        <time>2021-08-26T14:07:50Z</time>
      </trkpt>
      <trkpt lat="46.22579" lon="6.47597">
        <ele>1182.8125</ele>
        <time>2021-08-26T14:07:51Z</time>
      </trkpt>
      <trkpt lat="46.22581" lon="6.47607">
        <ele>1182.875</ele>
        <time>2021-08-26T14:07:52Z</time>
      </trkpt>
      <trkpt lat="46.22582" lon="6.47617">
        <ele>1183.1171875</ele>
        <time>2021-08-26T14:07:53Z</time>
      </trkpt>
      <trkpt lat="46.22585" lon="6.47627">
        <ele>1183.3515625</ele>
        <time>2021-08-26T14:07:54Z</time>
      </trkpt>
      <trkpt lat="46.22588" lon="6.47646">
        <ele>1184.27734375</ele>
        <time>2021-08-26T14:07:56Z</time>
      </trkpt>
      <trkpt lat="46.22588" lon="6.47656">
        <ele>1184.9140625</ele>
        <time>2021-08-26T14:07:57Z</time>
      </trkpt>
      <trkpt lat="46.22588" lon="6.47666">
        <ele>1185.66796875</ele>
        <time>2021-08-26T14:07:58Z</time>
      </trkpt>
      <trkpt lat="46.22587" lon="6.47676">
        <ele>1186.54296875</ele>
        <time>2021-08-26T14:07:59Z</time>
      </trkpt>
      <trkpt lat="46.22584" lon="6.47686">
        <ele>1187.56640625</ele>
        <time>2021-08-26T14:08:00Z</time>
      </trkpt>
      <trkpt lat="46.2258" lon="6.47696">
        <ele>1188.7421875</ele>
        <time>2021-08-26T14:08:01Z</time>
      </trkpt>
      <trkpt lat="46.22575" lon="6.47716">
        <ele>1190.77734375</ele>
        <time>2021-08-26T14:08:03Z</time>
      </trkpt>
      <trkpt lat="46.22575" lon="6.47726">
        <ele>1191.46875</ele>
        <time>2021-08-26T14:08:04Z</time>
      </trkpt>
      <trkpt lat="46.22577" lon="6.47734">
        <ele>1191.91015625</ele>
        <time>2021-08-26T14:08:05Z</time>
      </trkpt>
      <trkpt lat="46.2258" lon="6.47739">
        <ele>1192.09375</ele>
        <time>2021-08-26T14:08:06Z</time>
      </trkpt>
      <trkpt lat="46.22584" lon="6.47743">
        <ele>1192.0859375</ele>
        <time>2021-08-26T14:08:07Z</time>
      </trkpt>
      <trkpt lat="46.22587" lon="6.47744">
        <ele>1191.90625</ele>
        <time>2021-08-26T14:08:08Z</time>
      </trkpt>
      <trkpt lat="46.22591" lon="6.47744">
        <ele>1191.64453125</ele>
        <time>2021-08-26T14:08:09Z</time>
      </trkpt>
      <trkpt lat="46.22594" lon="6.47744">
        <ele>1191.421875</ele>
        <time>2021-08-26T14:08:10Z</time>
      </trkpt>
      <trkpt lat="46.22649" lon="6.47755">
        <ele>1187.74609375</ele>
        <time>2021-08-26T14:08:23Z</time>
      </trkpt>
      <trkpt lat="46.22695" lon="6.47767">
        <ele>1184.1171875</ele>
        <time>2021-08-26T14:08:33Z</time>
      </trkpt>
      <trkpt lat="46.22697" lon="6.47767">
        <ele>1184.015625</ele>
        <time>2021-08-26T14:08:43Z</time>
      </trkpt>
      <trkpt lat="46.22698" lon="6.47766">
        <ele>1183.7734375</ele>
        <time>2021-08-26T14:09:07Z</time>
      </trkpt>
      <trkpt lat="46.22699" lon="6.47766">
        <ele>1183.671875</ele>
        <time>2021-08-26T14:09:27Z</time>
      </trkpt>
      <trkpt lat="46.227" lon="6.47765">
        <ele>1183.49609375</ele>
        <time>2021-08-26T14:09:28Z</time>
      </trkpt>
      <trkpt lat="46.22702" lon="6.47766">
        <ele>1183.30859375</ele>
        <time>2021-08-26T14:09:29Z</time>
      </trkpt>
      <trkpt lat="46.22749" lon="6.47771">
        <ele>1181.16015625</ele>
        <time>2021-08-26T14:09:40Z</time>
      </trkpt>
      <trkpt lat="46.22775" lon="6.47772">
        <ele>1180.0703125</ele>
        <time>2021-08-26T14:09:48Z</time>
      </trkpt>
      <trkpt lat="46.22776" lon="6.47776">
        <ele>1180.62109375</ele>
        <time>2021-08-26T14:09:49Z</time>
      </trkpt>
      <trkpt lat="46.22775" lon="6.47779">
        <ele>1181.1640625</ele>
        <time>2021-08-26T14:09:50Z</time>
      </trkpt>
      <trkpt lat="46.22773" lon="6.47781">
        <ele>1181.56640625</ele>
        <time>2021-08-26T14:09:51Z</time>
      </trkpt>
      <trkpt lat="46.22771" lon="6.47782">
        <ele>1181.80859375</ele>
        <time>2021-08-26T14:09:52Z</time>
      </trkpt>
      <trkpt lat="46.22768" lon="6.47783">
        <ele>1181.9921875</ele>
        <time>2021-08-26T14:09:53Z</time>
      </trkpt>
      <trkpt lat="46.2275" lon="6.47793">
        <ele>1184.609375</ele>
        <time>2021-08-26T14:10:00Z</time>
      </trkpt>
      <trkpt lat="46.22724" lon="6.47822">
        <ele>1191.140625</ele>
        <time>2021-08-26T14:10:13Z</time>
      </trkpt>
      <trkpt lat="46.22715" lon="6.47828">
        <ele>1192.87890625</ele>
        <time>2021-08-26T14:10:24Z</time>
      </trkpt>
      <trkpt lat="46.22697" lon="6.4784">
        <ele>1197.70703125</ele>
        <time>2021-08-26T14:10:32Z</time>
      </trkpt>
      <trkpt lat="46.22697" lon="6.47844">
        <ele>1198.66796875</ele>
        <time>2021-08-26T14:10:33Z</time>
      </trkpt>
      <trkpt lat="46.22698" lon="6.47848">
        <ele>1199.59765625</ele>
        <time>2021-08-26T14:10:34Z</time>
      </trkpt>
      <trkpt lat="46.227" lon="6.47851">
        <ele>1200.25</ele>
        <time>2021-08-26T14:10:35Z</time>
      </trkpt>
      <trkpt lat="46.22702" lon="6.47854">
        <ele>1200.75</ele>
        <time>2021-08-26T14:10:36Z</time>
      </trkpt>
      <trkpt lat="46.22704" lon="6.47857">
        <ele>1201.18359375</ele>
        <time>2021-08-26T14:10:37Z</time>
      </trkpt>
      <trkpt lat="46.22707" lon="6.47858">
        <ele>1201.3671875</ele>
        <time>2021-08-26T14:10:38Z</time>
      </trkpt>
      <trkpt lat="46.2271" lon="6.47859">
        <ele>1201.38671875</ele>
        <time>2021-08-26T14:10:39Z</time>
      </trkpt>
      <trkpt lat="46.22712" lon="6.47861">
        <ele>1201.5078125</ele>
        <time>2021-08-26T14:10:40Z</time>
      </trkpt>
      <trkpt lat="46.22739" lon="6.47875">
        <ele>1201.9375</ele>
        <time>2021-08-26T14:10:51Z</time>
      </trkpt>
      <trkpt lat="46.22749" lon="6.4788">
        <ele>1202.046875</ele>
        <time>2021-08-26T14:10:55Z</time>
      </trkpt>
      <trkpt lat="46.22777" lon="6.47898">
        <ele>1203.94921875</ele>
        <time>2021-08-26T14:11:06Z</time>
      </trkpt>
      <trkpt lat="46.22812" lon="6.47921">
        <ele>1205.84375</ele>
        <time>2021-08-26T14:11:21Z</time>
      </trkpt>
      <trkpt lat="46.22842" lon="6.47933">
        <ele>1207.875</ele>
        <time>2021-08-26T14:11:33Z</time>
      </trkpt>
      <trkpt lat="46.22871" lon="6.47928">
        <ele>1208.54296875</ele>
        <time>2021-08-26T14:11:44Z</time>
      </trkpt>
      <trkpt lat="46.22873" lon="6.47927">
        <ele>1208.4609375</ele>
        <time>2021-08-26T14:11:45Z</time>
      </trkpt>
      <trkpt lat="46.22892" lon="6.47902">
        <ele>1207.53125</ele>
        <time>2021-08-26T14:11:56Z</time>
      </trkpt>
      <trkpt lat="46.22912" lon="6.4788">
        <ele>1209.19921875</ele>
        <time>2021-08-26T14:12:07Z</time>
      </trkpt>
      <trkpt lat="46.2292" lon="6.47874">
        <ele>1210.9765625</ele>
        <time>2021-08-26T14:12:11Z</time>
      </trkpt>
      <trkpt lat="46.22922" lon="6.4787">
        <ele>1211.13671875</ele>
        <time>2021-08-26T14:12:13Z</time>
      </trkpt>
      <trkpt lat="46.22957" lon="6.4784">
        <ele>1217.14453125</ele>
        <time>2021-08-26T14:12:29Z</time>
      </trkpt>
      <trkpt lat="46.22988" lon="6.47824">
        <ele>1223.48828125</ele>
        <time>2021-08-26T14:12:42Z</time>
      </trkpt>
      <trkpt lat="46.23025" lon="6.47818">
        <ele>1231.1484375</ele>
        <time>2021-08-26T14:12:56Z</time>
      </trkpt>
      <trkpt lat="46.23056" lon="6.4782">
        <ele>1236.6875</ele>
        <time>2021-08-26T14:13:06Z</time>
      </trkpt>
      <trkpt lat="46.231" lon="6.47824">
        <ele>1242.53125</ele>
        <time>2021-08-26T14:13:18Z</time>
      </trkpt>
      <trkpt lat="46.23138" lon="6.47832">
        <ele>1244.46875</ele>
        <time>2021-08-26T14:13:29Z</time>
      </trkpt>
      <trkpt lat="46.23176" lon="6.47835">
        <ele>1244.4296875</ele>
        <time>2021-08-26T14:13:41Z</time>
      </trkpt>
      <trkpt lat="46.23215" lon="6.47824">
        <ele>1240.0078125</ele>
        <time>2021-08-26T14:13:50Z</time>
      </trkpt>
      <trkpt lat="46.2322" lon="6.47823">
        <ele>1239.86328125</ele>
        <time>2021-08-26T14:13:51Z</time>
      </trkpt>
      <trkpt lat="46.23224" lon="6.47823">
        <ele>1239.92578125</ele>
        <time>2021-08-26T14:13:52Z</time>
      </trkpt>
      <trkpt lat="46.2326" lon="6.47818">
        <ele>1240.046875</ele>
        <time>2021-08-26T14:14:02Z</time>
      </trkpt>
      <trkpt lat="46.233" lon="6.47819">
        <ele>1241.48046875</ele>
        <time>2021-08-26T14:14:12Z</time>
      </trkpt>
      <trkpt lat="46.23356" lon="6.47849">
        <ele>1245.02734375</ele>
        <time>2021-08-26T14:14:27Z</time>
      </trkpt>
      <trkpt lat="46.23393" lon="6.47875">
        <ele>1245.13671875</ele>
        <time>2021-08-26T14:14:42Z</time>
      </trkpt>
      <trkpt lat="46.23393" lon="6.47874">
        <ele>1244.94140625</ele>
        <time>2021-08-26T14:15:12Z</time>
      </trkpt>
      <trkpt lat="46.23395" lon="6.47872">
        <ele>1244.3984375</ele>
        <time>2021-08-26T14:15:30Z</time>
      </trkpt>
      <trkpt lat="46.23394" lon="6.47872">
        <ele>1244.578125</ele>
        <time>2021-08-26T14:16:07Z</time>
      </trkpt>
      <trkpt lat="46.23394" lon="6.47871">
        <ele>1244.4140625</ele>
        <time>2021-08-26T14:16:33Z</time>
      </trkpt>
      <trkpt lat="46.23394" lon="6.47871">
        <ele>1244.359375</ele>
        <time>2021-08-26T14:16:46Z</time>
      </trkpt>
      <trkpt lat="46.23396" lon="6.47873">
        <ele>1244.3515625</ele>
        <time>2021-08-26T14:16:47Z</time>
      </trkpt>
      <trkpt lat="46.23397" lon="6.47874">
        <ele>1244.34375</ele>
        <time>2021-08-26T14:16:48Z</time>
      </trkpt>
      <trkpt lat="46.23398" lon="6.47876">
        <ele>1244.3984375</ele>
        <time>2021-08-26T14:16:49Z</time>
      </trkpt>
      <trkpt lat="46.234" lon="6.47879">
        <ele>1244.4453125</ele>
        <time>2021-08-26T14:16:50Z</time>
      </trkpt>
      <trkpt lat="46.23402" lon="6.47881">
        <ele>1244.3828125</ele>
        <time>2021-08-26T14:16:51Z</time>
      </trkpt>
      <trkpt lat="46.23412" lon="6.47891">
        <ele>1243.73828125</ele>
        <time>2021-08-26T14:16:54Z</time>
      </trkpt>
      <trkpt lat="46.23415" lon="6.47896">
        <ele>1243.5859375</ele>
        <time>2021-08-26T14:16:55Z</time>
      </trkpt>
      <trkpt lat="46.23419" lon="6.47902">
        <ele>1243.51953125</ele>
        <time>2021-08-26T14:16:56Z</time>
      </trkpt>
      <trkpt lat="46.23423" lon="6.47908">
        <ele>1243.45703125</ele>
        <time>2021-08-26T14:16:57Z</time>
      </trkpt>
      <trkpt lat="46.23428" lon="6.47914">
        <ele>1243.328125</ele>
        <time>2021-08-26T14:16:58Z</time>
      </trkpt>
      <trkpt lat="46.23432" lon="6.4792">
        <ele>1243.12890625</ele>
        <time>2021-08-26T14:16:59Z</time>
      </trkpt>
      <trkpt lat="46.23442" lon="6.47933">
        <ele>1242.77734375</ele>
        <time>2021-08-26T14:17:01Z</time>
      </trkpt>
      <trkpt lat="46.23447" lon="6.47938">
        <ele>1242.48828125</ele>
        <time>2021-08-26T14:17:02Z</time>
      </trkpt>
      <trkpt lat="46.23451" lon="6.47942">
        <ele>1242.24609375</ele>
        <time>2021-08-26T14:17:03Z</time>
      </trkpt>
      <trkpt lat="46.23455" lon="6.47944">
        <ele>1241.859375</ele>
        <time>2021-08-26T14:17:04Z</time>
      </trkpt>
      <trkpt lat="46.23458" lon="6.47944">
        <ele>1241.32421875</ele>
        <time>2021-08-26T14:17:05Z</time>
      </trkpt>
      <trkpt lat="46.2346" lon="6.47943">
        <ele>1240.74609375</ele>
        <time>2021-08-26T14:17:06Z</time>
      </trkpt>
      <trkpt lat="46.23461" lon="6.47941">
        <ele>1240.19140625</ele>
        <time>2021-08-26T14:17:07Z</time>
      </trkpt>
      <trkpt lat="46.23461" lon="6.47938">
        <ele>1239.80078125</ele>
        <time>2021-08-26T14:17:08Z</time>
      </trkpt>
      <trkpt lat="46.23457" lon="6.47925">
        <ele>1239.20703125</ele>
        <time>2021-08-26T14:17:18Z</time>
      </trkpt>
      <trkpt lat="46.23457" lon="6.47919">
        <ele>1238.63671875</ele>
        <time>2021-08-26T14:17:19Z</time>
      </trkpt>
      <trkpt lat="46.23457" lon="6.47911">
        <ele>1237.765625</ele>
        <time>2021-08-26T14:17:20Z</time>
      </trkpt>
      <trkpt lat="46.23458" lon="6.47902">
        <ele>1236.62109375</ele>
        <time>2021-08-26T14:17:21Z</time>
      </trkpt>
      <trkpt lat="46.23459" lon="6.47892">
        <ele>1235.3203125</ele>
        <time>2021-08-26T14:17:22Z</time>
      </trkpt>
      <trkpt lat="46.23461" lon="6.47882">
        <ele>1233.9140625</ele>
        <time>2021-08-26T14:17:23Z</time>
      </trkpt>
      <trkpt lat="46.23463" lon="6.47873">
        <ele>1232.421875</ele>
        <time>2021-08-26T14:17:24Z</time>
      </trkpt>
      <trkpt lat="46.23467" lon="6.47864">
        <ele>1230.859375</ele>
        <time>2021-08-26T14:17:25Z</time>
      </trkpt>
      <trkpt lat="46.2347" lon="6.47854">
        <ele>1229.28125</ele>
        <time>2021-08-26T14:17:26Z</time>
      </trkpt>
      <trkpt lat="46.23472" lon="6.47843">
        <ele>1227.64453125</ele>
        <time>2021-08-26T14:17:27Z</time>
      </trkpt>
      <trkpt lat="46.23475" lon="6.47833">
        <ele>1225.921875</ele>
        <time>2021-08-26T14:17:28Z</time>
      </trkpt>
      <trkpt lat="46.23479" lon="6.47822">
        <ele>1223.9921875</ele>
        <time>2021-08-26T14:17:29Z</time>
      </trkpt>
      <trkpt lat="46.23484" lon="6.47812">
        <ele>1222.02734375</ele>
        <time>2021-08-26T14:17:30Z</time>
      </trkpt>
      <trkpt lat="46.23489" lon="6.47804">
        <ele>1220.30078125</ele>
        <time>2021-08-26T14:17:31Z</time>
      </trkpt>
      <trkpt lat="46.23495" lon="6.47798">
        <ele>1218.48828125</ele>
        <time>2021-08-26T14:17:32Z</time>
      </trkpt>
      <trkpt lat="46.23501" lon="6.47793">
        <ele>1216.69921875</ele>
        <time>2021-08-26T14:17:33Z</time>
      </trkpt>
      <trkpt lat="46.23508" lon="6.4779">
        <ele>1215.296875</ele>
        <time>2021-08-26T14:17:34Z</time>
      </trkpt>
      <trkpt lat="46.23514" lon="6.47789">
        <ele>1214.16015625</ele>
        <time>2021-08-26T14:17:35Z</time>
      </trkpt>
      <trkpt lat="46.23521" lon="6.4779">
        <ele>1213.171875</ele>
        <time>2021-08-26T14:17:36Z</time>
      </trkpt>
      <trkpt lat="46.23527" lon="6.47791">
        <ele>1212.26953125</ele>
        <time>2021-08-26T14:17:37Z</time>
      </trkpt>
      <trkpt lat="46.23538" lon="6.47792">
        <ele>1210.41015625</ele>
        <time>2021-08-26T14:17:39Z</time>
      </trkpt>
      <trkpt lat="46.23544" lon="6.47789">
        <ele>1209.21484375</ele>
        <time>2021-08-26T14:17:40Z</time>
      </trkpt>
      <trkpt lat="46.2355" lon="6.47783">
        <ele>1207.6328125</ele>
        <time>2021-08-26T14:17:41Z</time>
      </trkpt>
      <trkpt lat="46.23562" lon="6.47769">
        <ele>1204.6328125</ele>
        <time>2021-08-26T14:17:43Z</time>
      </trkpt>
      <trkpt lat="46.23569" lon="6.47764">
        <ele>1203.39453125</ele>
        <time>2021-08-26T14:17:44Z</time>
      </trkpt>
      <trkpt lat="46.2359" lon="6.47752">
        <ele>1198.515625</ele>
        <time>2021-08-26T14:17:47Z</time>
      </trkpt>
      <trkpt lat="46.23603" lon="6.47744">
        <ele>1195.00390625</ele>
        <time>2021-08-26T14:17:49Z</time>
      </trkpt>
      <trkpt lat="46.23622" lon="6.47732">
        <ele>1190.3203125</ele>
        <time>2021-08-26T14:17:52Z</time>
      </trkpt>
      <trkpt lat="46.23632" lon="6.47724">
        <ele>1187.609375</ele>
        <time>2021-08-26T14:17:54Z</time>
      </trkpt>
      <trkpt lat="46.23637" lon="6.47719">
        <ele>1186.20703125</ele>
        <time>2021-08-26T14:17:55Z</time>
      </trkpt>
      <trkpt lat="46.23642" lon="6.47714">
        <ele>1184.73046875</ele>
        <time>2021-08-26T14:17:56Z</time>
      </trkpt>
      <trkpt lat="46.23646" lon="6.47707">
        <ele>1183.30859375</ele>
        <time>2021-08-26T14:17:57Z</time>
      </trkpt>
      <trkpt lat="46.23649" lon="6.47701">
        <ele>1181.9921875</ele>
        <time>2021-08-26T14:17:58Z</time>
      </trkpt>
      <trkpt lat="46.23653" lon="6.47694">
        <ele>1180.77734375</ele>
        <time>2021-08-26T14:17:59Z</time>
      </trkpt>
      <trkpt lat="46.23658" lon="6.47681">
        <ele>1178.1015625</ele>
        <time>2021-08-26T14:18:01Z</time>
      </trkpt>
      <trkpt lat="46.23659" lon="6.47675">
        <ele>1176.97265625</ele>
        <time>2021-08-26T14:18:02Z</time>
      </trkpt>
      <trkpt lat="46.2366" lon="6.47669">
        <ele>1175.78125</ele>
        <time>2021-08-26T14:18:03Z</time>
      </trkpt>
      <trkpt lat="46.23662" lon="6.47651">
        <ele>1172.5234375</ele>
        <time>2021-08-26T14:18:05Z</time>
      </trkpt>
      <trkpt lat="46.23669" lon="6.47624">
        <ele>1167.16796875</ele>
        <time>2021-08-26T14:18:08Z</time>
      </trkpt>
      <trkpt lat="46.23678" lon="6.47598">
        <ele>1162.63671875</ele>
        <time>2021-08-26T14:18:12Z</time>
      </trkpt>
      <trkpt lat="46.23682" lon="6.47594">
        <ele>1161.8125</ele>
        <time>2021-08-26T14:18:13Z</time>
      </trkpt>
      <trkpt lat="46.23687" lon="6.4759">
        <ele>1160.953125</ele>
        <time>2021-08-26T14:18:14Z</time>
      </trkpt>
      <trkpt lat="46.23704" lon="6.47581">
        <ele>1158.65625</ele>
        <time>2021-08-26T14:18:17Z</time>
      </trkpt>
      <trkpt lat="46.23711" lon="6.4758">
        <ele>1158.0625</ele>
        <time>2021-08-26T14:18:18Z</time>
      </trkpt>
      <trkpt lat="46.23718" lon="6.47581">
        <ele>1157.5</ele>
        <time>2021-08-26T14:18:19Z</time>
      </trkpt>
      <trkpt lat="46.23725" lon="6.47583">
        <ele>1156.93359375</ele>
        <time>2021-08-26T14:18:20Z</time>
      </trkpt>
      <trkpt lat="46.23732" lon="6.47587">
        <ele>1156.265625</ele>
        <time>2021-08-26T14:18:21Z</time>
      </trkpt>
      <trkpt lat="46.23738" lon="6.47593">
        <ele>1155.42578125</ele>
        <time>2021-08-26T14:18:22Z</time>
      </trkpt>
      <trkpt lat="46.23744" lon="6.47603">
        <ele>1154.1875</ele>
        <time>2021-08-26T14:18:23Z</time>
      </trkpt>
      <trkpt lat="46.23747" lon="6.47614">
        <ele>1152.8828125</ele>
        <time>2021-08-26T14:18:24Z</time>
      </trkpt>
      <trkpt lat="46.23749" lon="6.47626">
        <ele>1151.75</ele>
        <time>2021-08-26T14:18:25Z</time>
      </trkpt>
      <trkpt lat="46.23749" lon="6.47636">
        <ele>1151.00390625</ele>
        <time>2021-08-26T14:18:26Z</time>
      </trkpt>
      <trkpt lat="46.23749" lon="6.47644">
        <ele>1150.671875</ele>
        <time>2021-08-26T14:18:27Z</time>
      </trkpt>
      <trkpt lat="46.23748" lon="6.47648">
        <ele>1150.625</ele>
        <time>2021-08-26T14:18:28Z</time>
      </trkpt>
      <trkpt lat="46.23746" lon="6.47651">
        <ele>1150.98828125</ele>
        <time>2021-08-26T14:18:29Z</time>
      </trkpt>
      <trkpt lat="46.23743" lon="6.47655">
        <ele>1151.64453125</ele>
        <time>2021-08-26T14:18:30Z</time>
      </trkpt>
      <trkpt lat="46.23741" lon="6.47657">
        <ele>1152.375</ele>
        <time>2021-08-26T14:18:31Z</time>
      </trkpt>
      <trkpt lat="46.23739" lon="6.47659">
        <ele>1152.97265625</ele>
        <time>2021-08-26T14:18:32Z</time>
      </trkpt>
      <trkpt lat="46.23737" lon="6.47661">
        <ele>1153.53125</ele>
        <time>2021-08-26T14:18:33Z</time>
      </trkpt>
      <trkpt lat="46.23735" lon="6.47664">
        <ele>1154.2578125</ele>
        <time>2021-08-26T14:18:34Z</time>
      </trkpt>
      <trkpt lat="46.23732" lon="6.47668">
        <ele>1155.078125</ele>
        <time>2021-08-26T14:18:35Z</time>
      </trkpt>
      <trkpt lat="46.2373" lon="6.47671">
        <ele>1155.859375</ele>
        <time>2021-08-26T14:18:36Z</time>
      </trkpt>
      <trkpt lat="46.23728" lon="6.47674">
        <ele>1156.5078125</ele>
        <time>2021-08-26T14:18:37Z</time>
      </trkpt>
      <trkpt lat="46.23726" lon="6.47678">
        <ele>1157.15234375</ele>
        <time>2021-08-26T14:18:38Z</time>
      </trkpt>
      <trkpt lat="46.23713" lon="6.47713">
        <ele>1163.109375</ele>
        <time>2021-08-26T14:18:48Z</time>
      </trkpt>
      <trkpt lat="46.23711" lon="6.4774">
        <ele>1163.9296875</ele>
        <time>2021-08-26T14:19:00Z</time>
      </trkpt>
      <trkpt lat="46.23711" lon="6.47765">
        <ele>1163.09765625</ele>
        <time>2021-08-26T14:19:18Z</time>
      </trkpt>
      <trkpt lat="46.23709" lon="6.47774">
        <ele>1163.56640625</ele>
        <time>2021-08-26T14:19:21Z</time>
      </trkpt>
      <trkpt lat="46.23702" lon="6.47795">
        <ele>1165.40625</ele>
        <time>2021-08-26T14:19:29Z</time>
      </trkpt>
      <trkpt lat="46.23682" lon="6.47845">
        <ele>1172.49609375</ele>
        <time>2021-08-26T14:19:43Z</time>
      </trkpt>
      <trkpt lat="46.2368" lon="6.47908">
        <ele>1177.6328125</ele>
        <time>2021-08-26T14:19:59Z</time>
      </trkpt>
      <trkpt lat="46.23679" lon="6.4791">
        <ele>1178.42578125</ele>
        <time>2021-08-26T14:20:11Z</time>
      </trkpt>
      <trkpt lat="46.23679" lon="6.4791">
        <ele>1178.20703125</ele>
        <time>2021-08-26T14:20:14Z</time>
      </trkpt>
      <trkpt lat="46.2368" lon="6.47906">
        <ele>1177.5625</ele>
        <time>2021-08-26T14:20:19Z</time>
      </trkpt>
      <trkpt lat="46.23681" lon="6.47904">
        <ele>1177.20703125</ele>
        <time>2021-08-26T14:20:20Z</time>
      </trkpt>
      <trkpt lat="46.23682" lon="6.47902">
        <ele>1176.78515625</ele>
        <time>2021-08-26T14:20:21Z</time>
      </trkpt>
      <trkpt lat="46.23682" lon="6.479">
        <ele>1176.43359375</ele>
        <time>2021-08-26T14:20:22Z</time>
      </trkpt>
      <trkpt lat="46.23682" lon="6.47899">
        <ele>1176.37890625</ele>
        <time>2021-08-26T14:20:23Z</time>
      </trkpt>
      <trkpt lat="46.23681" lon="6.47899">
        <ele>1176.6171875</ele>
        <time>2021-08-26T14:20:24Z</time>
      </trkpt>
      <trkpt lat="46.23678" lon="6.4792">
        <ele>1179.84765625</ele>
        <time>2021-08-26T14:20:33Z</time>
      </trkpt>
      <trkpt lat="46.23682" lon="6.47957">
        <ele>1184.1328125</ele>
        <time>2021-08-26T14:20:47Z</time>
      </trkpt>
      <trkpt lat="46.23683" lon="6.47984">
        <ele>1187.4140625</ele>
        <time>2021-08-26T14:20:57Z</time>
      </trkpt>
      <trkpt lat="46.23684" lon="6.48002">
        <ele>1190.12890625</ele>
        <time>2021-08-26T14:21:04Z</time>
      </trkpt>
      <trkpt lat="46.23682" lon="6.48023">
        <ele>1194.3984375</ele>
        <time>2021-08-26T14:21:12Z</time>
      </trkpt>
      <trkpt lat="46.23682" lon="6.48025">
        <ele>1194.87109375</ele>
        <time>2021-08-26T14:21:13Z</time>
      </trkpt>
      <trkpt lat="46.23681" lon="6.48036">
        <ele>1197.19921875</ele>
        <time>2021-08-26T14:21:17Z</time>
      </trkpt>
      <trkpt lat="46.23681" lon="6.48054">
        <ele>1200.5546875</ele>
        <time>2021-08-26T14:21:24Z</time>
      </trkpt>
      <trkpt lat="46.23682" lon="6.48064">
        <ele>1201.9765625</ele>
        <time>2021-08-26T14:21:28Z</time>
      </trkpt>
      <trkpt lat="46.2368" lon="6.48077">
        <ele>1204.8671875</ele>
        <time>2021-08-26T14:21:34Z</time>
      </trkpt>
      <trkpt lat="46.2368" lon="6.48089">
        <ele>1207.140625</ele>
        <time>2021-08-26T14:21:39Z</time>
      </trkpt>
      <trkpt lat="46.23681" lon="6.48101">
        <ele>1209.15234375</ele>
        <time>2021-08-26T14:21:53Z</time>
      </trkpt>
      <trkpt lat="46.23677" lon="6.48104">
        <ele>1210.875</ele>
        <time>2021-08-26T14:22:05Z</time>
      </trkpt>
      <trkpt lat="46.23676" lon="6.48106">
        <ele>1211.86328125</ele>
        <time>2021-08-26T14:22:18Z</time>
      </trkpt>
      <trkpt lat="46.23674" lon="6.48127">
        <ele>1217.09765625</ele>
        <time>2021-08-26T14:22:33Z</time>
      </trkpt>
      <trkpt lat="46.23679" lon="6.48151">
        <ele>1219.0078125</ele>
        <time>2021-08-26T14:22:45Z</time>
      </trkpt>
      <trkpt lat="46.23683" lon="6.48168">
        <ele>1220.38671875</ele>
        <time>2021-08-26T14:22:53Z</time>
      </trkpt>
      <trkpt lat="46.23692" lon="6.48204">
        <ele>1223.01953125</ele>
        <time>2021-08-26T14:23:09Z</time>
      </trkpt>
      <trkpt lat="46.23697" lon="6.48237">
        <ele>1226.7578125</ele>
        <time>2021-08-26T14:23:23Z</time>
      </trkpt>
      <trkpt lat="46.23697" lon="6.48246">
        <ele>1228.25</ele>
        <time>2021-08-26T14:23:27Z</time>
      </trkpt>
      <trkpt lat="46.23707" lon="6.48278">
        <ele>1230.84765625</ele>
        <time>2021-08-26T14:23:42Z</time>
      </trkpt>
      <trkpt lat="46.2371" lon="6.48284">
        <ele>1230.76953125</ele>
        <time>2021-08-26T14:23:45Z</time>
      </trkpt>
      <trkpt lat="46.23712" lon="6.48291">
        <ele>1231.71484375</ele>
        <time>2021-08-26T14:23:48Z</time>
      </trkpt>
      <trkpt lat="46.23713" lon="6.48294">
        <ele>1232.03125</ele>
        <time>2021-08-26T14:23:49Z</time>
      </trkpt>
      <trkpt lat="46.23714" lon="6.48296">
        <ele>1232.1875</ele>
        <time>2021-08-26T14:23:50Z</time>
      </trkpt>
      <trkpt lat="46.23715" lon="6.48298">
        <ele>1232.33984375</ele>
        <time>2021-08-26T14:23:51Z</time>
      </trkpt>
      <trkpt lat="46.23716" lon="6.48301">
        <ele>1232.53125</ele>
        <time>2021-08-26T14:23:52Z</time>
      </trkpt>
      <trkpt lat="46.23726" lon="6.48337">
        <ele>1237.28515625</ele>
        <time>2021-08-26T14:24:05Z</time>
      </trkpt>
      <trkpt lat="46.23736" lon="6.48361">
        <ele>1240.2734375</ele>
        <time>2021-08-26T14:24:16Z</time>
      </trkpt>
      <trkpt lat="46.23746" lon="6.48382">
        <ele>1242.3984375</ele>
        <time>2021-08-26T14:24:27Z</time>
      </trkpt>
      <trkpt lat="46.23754" lon="6.48406">
        <ele>1244.43359375</ele>
        <time>2021-08-26T14:24:38Z</time>
      </trkpt>
      <trkpt lat="46.23755" lon="6.48409">
        <ele>1244.828125</ele>
        <time>2021-08-26T14:24:39Z</time>
      </trkpt>
      <trkpt lat="46.2376" lon="6.48437">
        <ele>1248.30859375</ele>
        <time>2021-08-26T14:24:52Z</time>
      </trkpt>
      <trkpt lat="46.23762" lon="6.48459">
        <ele>1251.80078125</ele>
        <time>2021-08-26T14:25:02Z</time>
      </trkpt>
      <trkpt lat="46.23778" lon="6.48482">
        <ele>1251.453125</ele>
        <time>2021-08-26T14:25:15Z</time>
      </trkpt>
      <trkpt lat="46.23779" lon="6.48485">
        <ele>1251.5390625</ele>
        <time>2021-08-26T14:25:26Z</time>
      </trkpt>
      <trkpt lat="46.2378" lon="6.48485">
        <ele>1251.33984375</ele>
        <time>2021-08-26T14:25:43Z</time>
      </trkpt>
      <trkpt lat="46.23789" lon="6.48481">
        <ele>1248.0078125</ele>
        <time>2021-08-26T14:25:48Z</time>
      </trkpt>
      <trkpt lat="46.23805" lon="6.48465">
        <ele>1240.44140625</ele>
        <time>2021-08-26T14:25:54Z</time>
      </trkpt>
      <trkpt lat="46.23809" lon="6.4846">
        <ele>1238.75390625</ele>
        <time>2021-08-26T14:25:56Z</time>
      </trkpt>
      <trkpt lat="46.2381" lon="6.48455">
        <ele>1237.41796875</ele>
        <time>2021-08-26T14:26:00Z</time>
      </trkpt>
      <trkpt lat="46.23813" lon="6.48452">
        <ele>1235.75390625</ele>
        <time>2021-08-26T14:26:18Z</time>
      </trkpt>
      <trkpt lat="46.23814" lon="6.48455">
        <ele>1236.08203125</ele>
        <time>2021-08-26T14:26:22Z</time>
      </trkpt>
      <trkpt lat="46.2382" lon="6.48459">
        <ele>1235.2578125</ele>
        <time>2021-08-26T14:26:27Z</time>
      </trkpt>
      <trkpt lat="46.23831" lon="6.48467">
        <ele>1233.7734375</ele>
        <time>2021-08-26T14:26:37Z</time>
      </trkpt>
      <trkpt lat="46.2385" lon="6.48493">
        <ele>1232.58984375</ele>
        <time>2021-08-26T14:26:45Z</time>
      </trkpt>
      <trkpt lat="46.23855" lon="6.48496">
        <ele>1231.828125</ele>
        <time>2021-08-26T14:26:46Z</time>
      </trkpt>
      <trkpt lat="46.2386" lon="6.48499">
        <ele>1230.890625</ele>
        <time>2021-08-26T14:26:47Z</time>
      </trkpt>
      <trkpt lat="46.23873" lon="6.48507">
        <ele>1228.16796875</ele>
        <time>2021-08-26T14:26:50Z</time>
      </trkpt>
      <trkpt lat="46.2389" lon="6.48518">
        <ele>1224.03125</ele>
        <time>2021-08-26T14:26:54Z</time>
      </trkpt>
      <trkpt lat="46.23894" lon="6.4852">
        <ele>1222.8671875</ele>
        <time>2021-08-26T14:26:59Z</time>
      </trkpt>
      <trkpt lat="46.23896" lon="6.48507">
        <ele>1220.32421875</ele>
        <time>2021-08-26T14:27:03Z</time>
      </trkpt>
      <trkpt lat="46.23896" lon="6.48501">
        <ele>1219.6953125</ele>
        <time>2021-08-26T14:27:04Z</time>
      </trkpt>
      <trkpt lat="46.23896" lon="6.48496">
        <ele>1219.11328125</ele>
        <time>2021-08-26T14:27:05Z</time>
      </trkpt>
      <trkpt lat="46.23896" lon="6.4849">
        <ele>1218.53125</ele>
        <time>2021-08-26T14:27:06Z</time>
      </trkpt>
      <trkpt lat="46.23893" lon="6.48471">
        <ele>1216.94140625</ele>
        <time>2021-08-26T14:27:09Z</time>
      </trkpt>
      <trkpt lat="46.23893" lon="6.48464">
        <ele>1216.2421875</ele>
        <time>2021-08-26T14:27:10Z</time>
      </trkpt>
      <trkpt lat="46.23893" lon="6.48459">
        <ele>1215.33203125</ele>
        <time>2021-08-26T14:27:11Z</time>
      </trkpt>
      <trkpt lat="46.23893" lon="6.48454">
        <ele>1214.46875</ele>
        <time>2021-08-26T14:27:12Z</time>
      </trkpt>
      <trkpt lat="46.23895" lon="6.48451">
        <ele>1213.51171875</ele>
        <time>2021-08-26T14:27:13Z</time>
      </trkpt>
      <trkpt lat="46.239" lon="6.48448">
        <ele>1211.359375</ele>
        <time>2021-08-26T14:27:15Z</time>
      </trkpt>
      <trkpt lat="46.2391" lon="6.48444">
        <ele>1207.2578125</ele>
        <time>2021-08-26T14:27:19Z</time>
      </trkpt>
      <trkpt lat="46.23921" lon="6.48439">
        <ele>1201.58984375</ele>
        <time>2021-08-26T14:27:23Z</time>
      </trkpt>
      <trkpt lat="46.23928" lon="6.48435">
        <ele>1198.57421875</ele>
        <time>2021-08-26T14:27:25Z</time>
      </trkpt>
      <trkpt lat="46.23935" lon="6.4843">
        <ele>1194.9375</ele>
        <time>2021-08-26T14:27:28Z</time>
      </trkpt>
      <trkpt lat="46.23941" lon="6.48423">
        <ele>1191.515625</ele>
        <time>2021-08-26T14:27:31Z</time>
      </trkpt>
      <trkpt lat="46.23947" lon="6.48417">
        <ele>1188.45703125</ele>
        <time>2021-08-26T14:27:34Z</time>
      </trkpt>
      <trkpt lat="46.23947" lon="6.48415">
        <ele>1188.109375</ele>
        <time>2021-08-26T14:27:36Z</time>
      </trkpt>
      <trkpt lat="46.23955" lon="6.48409">
        <ele>1183.76953125</ele>
        <time>2021-08-26T14:27:42Z</time>
      </trkpt>
      <trkpt lat="46.23964" lon="6.48405">
        <ele>1179.8125</ele>
        <time>2021-08-26T14:27:45Z</time>
      </trkpt>
      <trkpt lat="46.23972" lon="6.48401">
        <ele>1176.40234375</ele>
        <time>2021-08-26T14:27:48Z</time>
      </trkpt>
      <trkpt lat="46.23981" lon="6.48398">
        <ele>1172.71484375</ele>
        <time>2021-08-26T14:27:51Z</time>
      </trkpt>
      <trkpt lat="46.2399" lon="6.48393">
        <ele>1168.890625</ele>
        <time>2021-08-26T14:27:54Z</time>
      </trkpt>
      <trkpt lat="46.24" lon="6.48387">
        <ele>1164.4296875</ele>
        <time>2021-08-26T14:27:57Z</time>
      </trkpt>
      <trkpt lat="46.24011" lon="6.48383">
        <ele>1159.86328125</ele>
        <time>2021-08-26T14:28:00Z</time>
      </trkpt>
      <trkpt lat="46.24023" lon="6.48378">
        <ele>1154.85546875</ele>
        <time>2021-08-26T14:28:03Z</time>
      </trkpt>
      <trkpt lat="46.24028" lon="6.48376">
        <ele>1152.99609375</ele>
        <time>2021-08-26T14:28:04Z</time>
      </trkpt>
      <trkpt lat="46.24042" lon="6.48367">
        <ele>1146.80078125</ele>
        <time>2021-08-26T14:28:07Z</time>
      </trkpt>
      <trkpt lat="46.24047" lon="6.48363">
        <ele>1145.01171875</ele>
        <time>2021-08-26T14:28:08Z</time>
      </trkpt>
      <trkpt lat="46.24055" lon="6.48355">
        <ele>1141.79296875</ele>
        <time>2021-08-26T14:28:10Z</time>
      </trkpt>
      <trkpt lat="46.24062" lon="6.48349">
        <ele>1139.01171875</ele>
        <time>2021-08-26T14:28:12Z</time>
      </trkpt>
      <trkpt lat="46.2407" lon="6.48343">
        <ele>1136.14453125</ele>
        <time>2021-08-26T14:28:14Z</time>
      </trkpt>
      <trkpt lat="46.24081" lon="6.48332">
        <ele>1131.24609375</ele>
        <time>2021-08-26T14:28:17Z</time>
      </trkpt>
      <trkpt lat="46.24089" lon="6.48323">
        <ele>1127.73046875</ele>
        <time>2021-08-26T14:28:19Z</time>
      </trkpt>
      <trkpt lat="46.24099" lon="6.48319">
        <ele>1124.33984375</ele>
        <time>2021-08-26T14:28:22Z</time>
      </trkpt>
      <trkpt lat="46.24112" lon="6.48325">
        <ele>1121.2421875</ele>
        <time>2021-08-26T14:28:27Z</time>
      </trkpt>
      <trkpt lat="46.24118" lon="6.48337">
        <ele>1120.66015625</ele>
        <time>2021-08-26T14:28:32Z</time>
      </trkpt>
      <trkpt lat="46.24124" lon="6.4834">
        <ele>1119.32421875</ele>
        <time>2021-08-26T14:28:35Z</time>
      </trkpt>
      <trkpt lat="46.24137" lon="6.4838">
        <ele>1119.97265625</ele>
        <time>2021-08-26T14:28:45Z</time>
      </trkpt>
      <trkpt lat="46.24149" lon="6.4841">
        <ele>1120.625</ele>
        <time>2021-08-26T14:28:54Z</time>
      </trkpt>
      <trkpt lat="46.24151" lon="6.48413">
        <ele>1120.46875</ele>
        <time>2021-08-26T14:28:55Z</time>
      </trkpt>
      <trkpt lat="46.24154" lon="6.48413">
        <ele>1119.5703125</ele>
        <time>2021-08-26T14:29:04Z</time>
      </trkpt>
      <trkpt lat="46.24156" lon="6.4841">
        <ele>1118.58984375</ele>
        <time>2021-08-26T14:29:11Z</time>
      </trkpt>
      <trkpt lat="46.24156" lon="6.48407">
        <ele>1118.1015625</ele>
        <time>2021-08-26T14:29:12Z</time>
      </trkpt>
      <trkpt lat="46.24155" lon="6.48402">
        <ele>1117.80078125</ele>
        <time>2021-08-26T14:29:13Z</time>
      </trkpt>
      <trkpt lat="46.24153" lon="6.48398">
        <ele>1117.75</ele>
        <time>2021-08-26T14:29:14Z</time>
      </trkpt>
      <trkpt lat="46.2415" lon="6.48392">
        <ele>1117.6328125</ele>
        <time>2021-08-26T14:29:15Z</time>
      </trkpt>
      <trkpt lat="46.24148" lon="6.48385">
        <ele>1117.3046875</ele>
        <time>2021-08-26T14:29:16Z</time>
      </trkpt>
      <trkpt lat="46.24146" lon="6.48377">
        <ele>1116.8984375</ele>
        <time>2021-08-26T14:29:17Z</time>
      </trkpt>
      <trkpt lat="46.24144" lon="6.48368">
        <ele>1116.44140625</ele>
        <time>2021-08-26T14:29:18Z</time>
      </trkpt>
      <trkpt lat="46.24143" lon="6.48359">
        <ele>1115.82421875</ele>
        <time>2021-08-26T14:29:19Z</time>
      </trkpt>
      <trkpt lat="46.24142" lon="6.48351">
        <ele>1115.08203125</ele>
        <time>2021-08-26T14:29:20Z</time>
      </trkpt>
      <trkpt lat="46.24142" lon="6.48342">
        <ele>1114.15234375</ele>
        <time>2021-08-26T14:29:21Z</time>
      </trkpt>
      <trkpt lat="46.24144" lon="6.48323">
        <ele>1111.67578125</ele>
        <time>2021-08-26T14:29:24Z</time>
      </trkpt>
      <trkpt lat="46.24146" lon="6.48321">
        <ele>1110.88671875</ele>
        <time>2021-08-26T14:29:25Z</time>
      </trkpt>
      <trkpt lat="46.2415" lon="6.48324">
        <ele>1109.9296875</ele>
        <time>2021-08-26T14:29:27Z</time>
      </trkpt>
      <trkpt lat="46.24152" lon="6.48328">
        <ele>1110.05859375</ele>
        <time>2021-08-26T14:29:28Z</time>
      </trkpt>
      <trkpt lat="46.24152" lon="6.48332">
        <ele>1110.4296875</ele>
        <time>2021-08-26T14:29:29Z</time>
      </trkpt>
      <trkpt lat="46.24152" lon="6.48336">
        <ele>1110.80859375</ele>
        <time>2021-08-26T14:29:30Z</time>
      </trkpt>
      <trkpt lat="46.24166" lon="6.48388">
        <ele>1113.11328125</ele>
        <time>2021-08-26T14:29:42Z</time>
      </trkpt>
      <trkpt lat="46.24175" lon="6.48399">
        <ele>1112.625</ele>
        <time>2021-08-26T14:29:45Z</time>
      </trkpt>
      <trkpt lat="46.24202" lon="6.48451">
        <ele>1111.703125</ele>
        <time>2021-08-26T14:29:55Z</time>
      </trkpt>
      <trkpt lat="46.24266" lon="6.48549">
        <ele>1109.9375</ele>
        <time>2021-08-26T14:30:11Z</time>
      </trkpt>
      <trkpt lat="46.24299" lon="6.48571">
        <ele>1105.87109375</ele>
        <time>2021-08-26T14:30:16Z</time>
      </trkpt>
      <trkpt lat="46.24342" lon="6.48593">
        <ele>1101.48046875</ele>
        <time>2021-08-26T14:30:21Z</time>
      </trkpt>
      <trkpt lat="46.24381" lon="6.48613">
        <ele>1098.796875</ele>
        <time>2021-08-26T14:30:25Z</time>
      </trkpt>
      <trkpt lat="46.24422" lon="6.48636">
        <ele>1097.6328125</ele>
        <time>2021-08-26T14:30:29Z</time>
      </trkpt>
      <trkpt lat="46.24433" lon="6.48638">
        <ele>1096.96875</ele>
        <time>2021-08-26T14:30:30Z</time>
      </trkpt>
      <trkpt lat="46.24445" lon="6.4864">
        <ele>1096.15234375</ele>
        <time>2021-08-26T14:30:31Z</time>
      </trkpt>
      <trkpt lat="46.24454" lon="6.48642">
        <ele>1095.609375</ele>
        <time>2021-08-26T14:30:32Z</time>
      </trkpt>
      <trkpt lat="46.24463" lon="6.48647">
        <ele>1095.22265625</ele>
        <time>2021-08-26T14:30:33Z</time>
      </trkpt>
      <trkpt lat="46.24471" lon="6.48652">
        <ele>1095.05859375</ele>
        <time>2021-08-26T14:30:34Z</time>
      </trkpt>
      <trkpt lat="46.24478" lon="6.4866">
        <ele>1094.9921875</ele>
        <time>2021-08-26T14:30:35Z</time>
      </trkpt>
      <trkpt lat="46.24484" lon="6.48667">
        <ele>1095.16796875</ele>
        <time>2021-08-26T14:30:36Z</time>
      </trkpt>
      <trkpt lat="46.24494" lon="6.4868">
        <ele>1095.48046875</ele>
        <time>2021-08-26T14:30:38Z</time>
      </trkpt>
      <trkpt lat="46.24499" lon="6.48687">
        <ele>1095.65625</ele>
        <time>2021-08-26T14:30:39Z</time>
      </trkpt>
      <trkpt lat="46.24537" lon="6.48762">
        <ele>1096.82421875</ele>
        <time>2021-08-26T14:30:50Z</time>
      </trkpt>
      <trkpt lat="46.24597" lon="6.48898">
        <ele>1100.375</ele>
        <time>2021-08-26T14:31:11Z</time>
      </trkpt>
      <trkpt lat="46.24655" lon="6.49005">
        <ele>1100.41796875</ele>
        <time>2021-08-26T14:31:27Z</time>
      </trkpt>
      <trkpt lat="46.24724" lon="6.49099">
        <ele>1099.91796875</ele>
        <time>2021-08-26T14:31:42Z</time>
      </trkpt>
      <trkpt lat="46.2479" lon="6.49216">
        <ele>1098.24609375</ele>
        <time>2021-08-26T14:31:57Z</time>
      </trkpt>
      <trkpt lat="46.24794" lon="6.49224">
        <ele>1098</ele>
        <time>2021-08-26T14:31:58Z</time>
      </trkpt>
      <trkpt lat="46.24869" lon="6.4938">
        <ele>1095.1953125</ele>
        <time>2021-08-26T14:32:17Z</time>
      </trkpt>
      <trkpt lat="46.24943" lon="6.49546">
        <ele>1096</ele>
        <time>2021-08-26T14:32:37Z</time>
      </trkpt>
      <trkpt lat="46.25021" lon="6.49703">
        <ele>1095.34375</ele>
        <time>2021-08-26T14:32:57Z</time>
      </trkpt>
      <trkpt lat="46.25072" lon="6.49788">
        <ele>1090.68359375</ele>
        <time>2021-08-26T14:33:08Z</time>
      </trkpt>
      <trkpt lat="46.25081" lon="6.4981">
        <ele>1089.97265625</ele>
        <time>2021-08-26T14:33:10Z</time>
      </trkpt>
      <trkpt lat="46.25088" lon="6.49834">
        <ele>1089.70703125</ele>
        <time>2021-08-26T14:33:12Z</time>
      </trkpt>
      <trkpt lat="46.2509" lon="6.49847">
        <ele>1089.625</ele>
        <time>2021-08-26T14:33:13Z</time>
      </trkpt>
      <trkpt lat="46.25093" lon="6.49873">
        <ele>1090.07421875</ele>
        <time>2021-08-26T14:33:15Z</time>
      </trkpt>
      <trkpt lat="46.25096" lon="6.49886">
        <ele>1090.04296875</ele>
        <time>2021-08-26T14:33:16Z</time>
      </trkpt>
      <trkpt lat="46.25101" lon="6.49909">
        <ele>1089.33984375</ele>
        <time>2021-08-26T14:33:18Z</time>
      </trkpt>
      <trkpt lat="46.25122" lon="6.5001">
        <ele>1092.13671875</ele>
        <time>2021-08-26T14:33:29Z</time>
      </trkpt>
      <trkpt lat="46.25124" lon="6.50024">
        <ele>1092.88671875</ele>
        <time>2021-08-26T14:33:31Z</time>
      </trkpt>
      <trkpt lat="46.25128" lon="6.50041">
        <ele>1093.86328125</ele>
        <time>2021-08-26T14:33:34Z</time>
      </trkpt>
      <trkpt lat="46.2513" lon="6.50046">
        <ele>1094.09375</ele>
        <time>2021-08-26T14:33:35Z</time>
      </trkpt>
      <trkpt lat="46.2516" lon="6.50116">
        <ele>1098.43359375</ele>
        <time>2021-08-26T14:33:49Z</time>
      </trkpt>
      <trkpt lat="46.25189" lon="6.50189">
        <ele>1098.1015625</ele>
        <time>2021-08-26T14:34:04Z</time>
      </trkpt>
      <trkpt lat="46.25194" lon="6.50257">
        <ele>1101.83203125</ele>
        <time>2021-08-26T14:34:17Z</time>
      </trkpt>
      <trkpt lat="46.25204" lon="6.50328">
        <ele>1107.91015625</ele>
        <time>2021-08-26T14:34:31Z</time>
      </trkpt>
      <trkpt lat="46.25223" lon="6.50409">
        <ele>1108.04296875</ele>
        <time>2021-08-26T14:34:47Z</time>
      </trkpt>
      <trkpt lat="46.25233" lon="6.50487">
        <ele>1105.703125</ele>
        <time>2021-08-26T14:35:02Z</time>
      </trkpt>
      <trkpt lat="46.25221" lon="6.50502">
        <ele>1107.9921875</ele>
        <time>2021-08-26T14:35:06Z</time>
      </trkpt>
      <trkpt lat="46.2518" lon="6.50558">
        <ele>1115.62890625</ele>
        <time>2021-08-26T14:35:22Z</time>
      </trkpt>
      <trkpt lat="46.2518" lon="6.50564">
        <ele>1115.79296875</ele>
        <time>2021-08-26T14:35:23Z</time>
      </trkpt>
      <trkpt lat="46.25181" lon="6.5057">
        <ele>1115.91796875</ele>
        <time>2021-08-26T14:35:24Z</time>
      </trkpt>
      <trkpt lat="46.25182" lon="6.50576">
        <ele>1115.9921875</ele>
        <time>2021-08-26T14:35:25Z</time>
      </trkpt>
      <trkpt lat="46.25184" lon="6.50582">
        <ele>1115.6953125</ele>
        <time>2021-08-26T14:35:26Z</time>
      </trkpt>
      <trkpt lat="46.25186" lon="6.50588">
        <ele>1115.3671875</ele>
        <time>2021-08-26T14:35:27Z</time>
      </trkpt>
      <trkpt lat="46.25224" lon="6.50719">
        <ele>1117.140625</ele>
        <time>2021-08-26T14:35:46Z</time>
      </trkpt>
      <trkpt lat="46.25258" lon="6.50798">
        <ele>1122.1484375</ele>
        <time>2021-08-26T14:35:57Z</time>
      </trkpt>
      <trkpt lat="46.2526" lon="6.50805">
        <ele>1122.0625</ele>
        <time>2021-08-26T14:35:58Z</time>
      </trkpt>
      <trkpt lat="46.25263" lon="6.50813">
        <ele>1122.07421875</ele>
        <time>2021-08-26T14:35:59Z</time>
      </trkpt>
      <trkpt lat="46.25266" lon="6.50821">
        <ele>1122.01953125</ele>
        <time>2021-08-26T14:36:00Z</time>
      </trkpt>
      <trkpt lat="46.2527" lon="6.50829">
        <ele>1121.921875</ele>
        <time>2021-08-26T14:36:01Z</time>
      </trkpt>
      <trkpt lat="46.25273" lon="6.50836">
        <ele>1121.83984375</ele>
        <time>2021-08-26T14:36:02Z</time>
      </trkpt>
      <trkpt lat="46.25275" lon="6.50844">
        <ele>1122</ele>
        <time>2021-08-26T14:36:03Z</time>
      </trkpt>
      <trkpt lat="46.25277" lon="6.50851">
        <ele>1122.35546875</ele>
        <time>2021-08-26T14:36:04Z</time>
      </trkpt>
      <trkpt lat="46.25279" lon="6.50872">
        <ele>1124.37890625</ele>
        <time>2021-08-26T14:36:08Z</time>
      </trkpt>
      <trkpt lat="46.25281" lon="6.5091">
        <ele>1127.484375</ele>
        <time>2021-08-26T14:36:18Z</time>
      </trkpt>
      <trkpt lat="46.25288" lon="6.50963">
        <ele>1128.93359375</ele>
        <time>2021-08-26T14:36:32Z</time>
      </trkpt>
      <trkpt lat="46.25298" lon="6.51011">
        <ele>1127.13671875</ele>
        <time>2021-08-26T14:36:45Z</time>
      </trkpt>
      <trkpt lat="46.25305" lon="6.51054">
        <ele>1125.51953125</ele>
        <time>2021-08-26T14:36:56Z</time>
      </trkpt>
      <trkpt lat="46.25303" lon="6.51057">
        <ele>1125.609375</ele>
        <time>2021-08-26T14:36:57Z</time>
      </trkpt>
      <trkpt lat="46.253" lon="6.5106">
        <ele>1125.765625</ele>
        <time>2021-08-26T14:36:58Z</time>
      </trkpt>
      <trkpt lat="46.25287" lon="6.51073">
        <ele>1126.70703125</ele>
        <time>2021-08-26T14:37:09Z</time>
      </trkpt>
      <trkpt lat="46.25289" lon="6.51074">
        <ele>1126.46875</ele>
        <time>2021-08-26T14:37:13Z</time>
      </trkpt>
      <trkpt lat="46.25292" lon="6.51071">
        <ele>1126.296875</ele>
        <time>2021-08-26T14:37:14Z</time>
      </trkpt>
      <trkpt lat="46.25293" lon="6.51068">
        <ele>1126.25390625</ele>
        <time>2021-08-26T14:37:15Z</time>
      </trkpt>
      <trkpt lat="46.25294" lon="6.51064">
        <ele>1126.328125</ele>
        <time>2021-08-26T14:37:16Z</time>
      </trkpt>
      <trkpt lat="46.25294" lon="6.51059">
        <ele>1126.52734375</ele>
        <time>2021-08-26T14:37:17Z</time>
      </trkpt>
      <trkpt lat="46.25293" lon="6.51054">
        <ele>1126.8125</ele>
        <time>2021-08-26T14:37:18Z</time>
      </trkpt>
      <trkpt lat="46.25291" lon="6.5105">
        <ele>1127.15625</ele>
        <time>2021-08-26T14:37:19Z</time>
      </trkpt>
      <trkpt lat="46.2529" lon="6.51046">
        <ele>1127.5546875</ele>
        <time>2021-08-26T14:37:20Z</time>
      </trkpt>
      <trkpt lat="46.25288" lon="6.51042">
        <ele>1127.984375</ele>
        <time>2021-08-26T14:37:21Z</time>
      </trkpt>
      <trkpt lat="46.25269" lon="6.51001">
        <ele>1132.88671875</ele>
        <time>2021-08-26T14:37:32Z</time>
      </trkpt>
      <trkpt lat="46.2526" lon="6.50984">
        <ele>1134.94921875</ele>
        <time>2021-08-26T14:37:37Z</time>
      </trkpt>
      <trkpt lat="46.25245" lon="6.50946">
        <ele>1138.23828125</ele>
        <time>2021-08-26T14:37:47Z</time>
      </trkpt>
      <trkpt lat="46.25226" lon="6.509">
        <ele>1143.25390625</ele>
        <time>2021-08-26T14:37:59Z</time>
      </trkpt>
      <trkpt lat="46.25216" lon="6.50894">
        <ele>1146.58984375</ele>
        <time>2021-08-26T14:38:03Z</time>
      </trkpt>
      <trkpt lat="46.25214" lon="6.50897">
        <ele>1147.21484375</ele>
        <time>2021-08-26T14:38:04Z</time>
      </trkpt>
      <trkpt lat="46.25212" lon="6.50901">
        <ele>1147.5859375</ele>
        <time>2021-08-26T14:38:05Z</time>
      </trkpt>
      <trkpt lat="46.25211" lon="6.50905">
        <ele>1147.76953125</ele>
        <time>2021-08-26T14:38:06Z</time>
      </trkpt>
      <trkpt lat="46.25211" lon="6.5091">
        <ele>1147.6953125</ele>
        <time>2021-08-26T14:38:07Z</time>
      </trkpt>
      <trkpt lat="46.25211" lon="6.50915">
        <ele>1147.38671875</ele>
        <time>2021-08-26T14:38:08Z</time>
      </trkpt>
      <trkpt lat="46.25212" lon="6.5092">
        <ele>1146.984375</ele>
        <time>2021-08-26T14:38:09Z</time>
      </trkpt>
      <trkpt lat="46.25213" lon="6.50925">
        <ele>1146.55078125</ele>
        <time>2021-08-26T14:38:10Z</time>
      </trkpt>
      <trkpt lat="46.25207" lon="6.50981">
        <ele>1146.046875</ele>
        <time>2021-08-26T14:38:25Z</time>
      </trkpt>
      <trkpt lat="46.25179" lon="6.51005">
        <ele>1150.18359375</ele>
        <time>2021-08-26T14:38:38Z</time>
      </trkpt>
      <trkpt lat="46.25157" lon="6.51026">
        <ele>1151.07421875</ele>
        <time>2021-08-26T14:38:49Z</time>
      </trkpt>
      <trkpt lat="46.25141" lon="6.51042">
        <ele>1149.65625</ele>
        <time>2021-08-26T14:38:58Z</time>
      </trkpt>
      <trkpt lat="46.25139" lon="6.51044">
        <ele>1149.4453125</ele>
        <time>2021-08-26T14:38:59Z</time>
      </trkpt>
      <trkpt lat="46.25107" lon="6.51055">
        <ele>1148.15234375</ele>
        <time>2021-08-26T14:39:13Z</time>
      </trkpt>
      <trkpt lat="46.25099" lon="6.51036">
        <ele>1152.53515625</ele>
        <time>2021-08-26T14:39:20Z</time>
      </trkpt>
      <trkpt lat="46.251" lon="6.51033">
        <ele>1153.08984375</ele>
        <time>2021-08-26T14:39:21Z</time>
      </trkpt>
      <trkpt lat="46.25117" lon="6.51014">
        <ele>1157.00390625</ele>
        <time>2021-08-26T14:39:30Z</time>
      </trkpt>
      <trkpt lat="46.25112" lon="6.50986">
        <ele>1161.97265625</ele>
        <time>2021-08-26T14:39:40Z</time>
      </trkpt>
      <trkpt lat="46.25083" lon="6.50999">
        <ele>1159.75390625</ele>
        <time>2021-08-26T14:39:50Z</time>
      </trkpt>
      <trkpt lat="46.25074" lon="6.50971">
        <ele>1165.515625</ele>
        <time>2021-08-26T14:39:59Z</time>
      </trkpt>
      <trkpt lat="46.25077" lon="6.50928">
        <ele>1171.48046875</ele>
        <time>2021-08-26T14:40:11Z</time>
      </trkpt>
      <trkpt lat="46.25079" lon="6.50923">
        <ele>1171.86328125</ele>
        <time>2021-08-26T14:40:13Z</time>
      </trkpt>
      <trkpt lat="46.25081" lon="6.50922">
        <ele>1171.83203125</ele>
        <time>2021-08-26T14:40:14Z</time>
      </trkpt>
      <trkpt lat="46.25102" lon="6.50907">
        <ele>1171.76171875</ele>
        <time>2021-08-26T14:40:24Z</time>
      </trkpt>
      <trkpt lat="46.25107" lon="6.5089">
        <ele>1173.07421875</ele>
        <time>2021-08-26T14:40:30Z</time>
      </trkpt>
      <trkpt lat="46.25106" lon="6.50889">
        <ele>1173.40234375</ele>
        <time>2021-08-26T14:40:31Z</time>
      </trkpt>
      <trkpt lat="46.25105" lon="6.50888">
        <ele>1173.62890625</ele>
        <time>2021-08-26T14:40:32Z</time>
      </trkpt>
      <trkpt lat="46.25102" lon="6.5089">
        <ele>1173.70703125</ele>
        <time>2021-08-26T14:40:43Z</time>
      </trkpt>
      <trkpt lat="46.251" lon="6.50893">
        <ele>1173.640625</ele>
        <time>2021-08-26T14:41:12Z</time>
      </trkpt>
      <trkpt lat="46.25098" lon="6.50894">
        <ele>1173.703125</ele>
        <time>2021-08-26T14:41:44Z</time>
      </trkpt>
      <trkpt lat="46.25098" lon="6.50891">
        <ele>1173.9609375</ele>
        <time>2021-08-26T14:41:58Z</time>
      </trkpt>
      <trkpt lat="46.25094" lon="6.5089">
        <ele>1174.31640625</ele>
        <time>2021-08-26T14:42:01Z</time>
      </trkpt>
      <trkpt lat="46.25067" lon="6.50876">
        <ele>1177.69140625</ele>
        <time>2021-08-26T14:42:14Z</time>
      </trkpt>
      <trkpt lat="46.25029" lon="6.5086">
        <ele>1179.92578125</ele>
        <time>2021-08-26T14:42:28Z</time>
      </trkpt>
      <trkpt lat="46.24997" lon="6.50846">
        <ele>1181.53125</ele>
        <time>2021-08-26T14:42:41Z</time>
      </trkpt>
      <trkpt lat="46.24962" lon="6.50826">
        <ele>1183.875</ele>
        <time>2021-08-26T14:42:55Z</time>
      </trkpt>
      <trkpt lat="46.24921" lon="6.50816">
        <ele>1187.33984375</ele>
        <time>2021-08-26T14:43:10Z</time>
      </trkpt>
      <trkpt lat="46.24895" lon="6.50812">
        <ele>1189.578125</ele>
        <time>2021-08-26T14:43:20Z</time>
      </trkpt>
      <trkpt lat="46.24858" lon="6.50805">
        <ele>1191.41796875</ele>
        <time>2021-08-26T14:43:33Z</time>
      </trkpt>
      <trkpt lat="46.24822" lon="6.50789">
        <ele>1195.5703125</ele>
        <time>2021-08-26T14:43:47Z</time>
      </trkpt>
      <trkpt lat="46.24795" lon="6.50752">
        <ele>1203.0625</ele>
        <time>2021-08-26T14:44:00Z</time>
      </trkpt>
      <trkpt lat="46.24754" lon="6.50731">
        <ele>1206.3515625</ele>
        <time>2021-08-26T14:44:14Z</time>
      </trkpt>
      <trkpt lat="46.24717" lon="6.5072">
        <ele>1209.05078125</ele>
        <time>2021-08-26T14:44:27Z</time>
      </trkpt>
      <trkpt lat="46.24694" lon="6.5071">
        <ele>1212.24609375</ele>
        <time>2021-08-26T14:44:37Z</time>
      </trkpt>
      <trkpt lat="46.24671" lon="6.50699">
        <ele>1216.296875</ele>
        <time>2021-08-26T14:44:47Z</time>
      </trkpt>
      <trkpt lat="46.24639" lon="6.50687">
        <ele>1220.50390625</ele>
        <time>2021-08-26T14:45:01Z</time>
      </trkpt>
      <trkpt lat="46.2461" lon="6.50659">
        <ele>1223.0546875</ele>
        <time>2021-08-26T14:45:16Z</time>
      </trkpt>
      <trkpt lat="46.24597" lon="6.50627">
        <ele>1226.48046875</ele>
        <time>2021-08-26T14:45:27Z</time>
      </trkpt>
      <trkpt lat="46.24577" lon="6.50622">
        <ele>1227.3203125</ele>
        <time>2021-08-26T14:45:37Z</time>
      </trkpt>
      <trkpt lat="46.24549" lon="6.50637">
        <ele>1225.8203125</ele>
        <time>2021-08-26T14:45:50Z</time>
      </trkpt>
      <trkpt lat="46.24532" lon="6.50617">
        <ele>1230.35546875</ele>
        <time>2021-08-26T14:45:59Z</time>
      </trkpt>
      <trkpt lat="46.24533" lon="6.50614">
        <ele>1231.0703125</ele>
        <time>2021-08-26T14:46:00Z</time>
      </trkpt>
      <trkpt lat="46.24533" lon="6.5061">
        <ele>1231.6875</ele>
        <time>2021-08-26T14:46:01Z</time>
      </trkpt>
      <trkpt lat="46.24534" lon="6.50607">
        <ele>1232.27734375</ele>
        <time>2021-08-26T14:46:02Z</time>
      </trkpt>
      <trkpt lat="46.24536" lon="6.50603">
        <ele>1232.875</ele>
        <time>2021-08-26T14:46:03Z</time>
      </trkpt>
      <trkpt lat="46.24536" lon="6.506">
        <ele>1233.30078125</ele>
        <time>2021-08-26T14:46:04Z</time>
      </trkpt>
      <trkpt lat="46.2454" lon="6.50578">
        <ele>1236.0703125</ele>
        <time>2021-08-26T14:46:11Z</time>
      </trkpt>
      <trkpt lat="46.24539" lon="6.50575">
        <ele>1236.57421875</ele>
        <time>2021-08-26T14:46:12Z</time>
      </trkpt>
      <trkpt lat="46.24537" lon="6.50573">
        <ele>1237.14453125</ele>
        <time>2021-08-26T14:46:13Z</time>
      </trkpt>
      <trkpt lat="46.24535" lon="6.50573">
        <ele>1237.5390625</ele>
        <time>2021-08-26T14:46:14Z</time>
      </trkpt>
      <trkpt lat="46.24532" lon="6.50573">
        <ele>1237.74609375</ele>
        <time>2021-08-26T14:46:15Z</time>
      </trkpt>
      <trkpt lat="46.2453" lon="6.50574">
        <ele>1237.78125</ele>
        <time>2021-08-26T14:46:16Z</time>
      </trkpt>
      <trkpt lat="46.24528" lon="6.50576">
        <ele>1237.71875</ele>
        <time>2021-08-26T14:46:17Z</time>
      </trkpt>
      <trkpt lat="46.24525" lon="6.50578">
        <ele>1237.66015625</ele>
        <time>2021-08-26T14:46:18Z</time>
      </trkpt>
      <trkpt lat="46.24523" lon="6.5058">
        <ele>1237.66796875</ele>
        <time>2021-08-26T14:46:19Z</time>
      </trkpt>
      <trkpt lat="46.24497" lon="6.50589">
        <ele>1238.7265625</ele>
        <time>2021-08-26T14:46:30Z</time>
      </trkpt>
      <trkpt lat="46.2447" lon="6.50584">
        <ele>1242.06640625</ele>
        <time>2021-08-26T14:46:42Z</time>
      </trkpt>
      <trkpt lat="46.24445" lon="6.50576">
        <ele>1245.62890625</ele>
        <time>2021-08-26T14:46:54Z</time>
      </trkpt>
      <trkpt lat="46.24421" lon="6.50575">
        <ele>1248.33203125</ele>
        <time>2021-08-26T14:47:06Z</time>
      </trkpt>
      <trkpt lat="46.24394" lon="6.50572">
        <ele>1251.75390625</ele>
        <time>2021-08-26T14:47:19Z</time>
      </trkpt>
      <trkpt lat="46.24368" lon="6.50564">
        <ele>1255.53515625</ele>
        <time>2021-08-26T14:47:32Z</time>
      </trkpt>
      <trkpt lat="46.2435" lon="6.50542">
        <ele>1259.59375</ele>
        <time>2021-08-26T14:47:44Z</time>
      </trkpt>
      <trkpt lat="46.24351" lon="6.50539">
        <ele>1259.86328125</ele>
        <time>2021-08-26T14:47:45Z</time>
      </trkpt>
      <trkpt lat="46.24353" lon="6.50537">
        <ele>1260.03125</ele>
        <time>2021-08-26T14:47:46Z</time>
      </trkpt>
      <trkpt lat="46.24355" lon="6.50534">
        <ele>1260.15625</ele>
        <time>2021-08-26T14:47:47Z</time>
      </trkpt>
      <trkpt lat="46.24357" lon="6.50533">
        <ele>1260.24609375</ele>
        <time>2021-08-26T14:47:48Z</time>
      </trkpt>
      <trkpt lat="46.24359" lon="6.50531">
        <ele>1260.3125</ele>
        <time>2021-08-26T14:47:49Z</time>
      </trkpt>
      <trkpt lat="46.24361" lon="6.5053">
        <ele>1260.34375</ele>
        <time>2021-08-26T14:47:50Z</time>
      </trkpt>
      <trkpt lat="46.24364" lon="6.50529">
        <ele>1260.36328125</ele>
        <time>2021-08-26T14:47:51Z</time>
      </trkpt>
      <trkpt lat="46.24382" lon="6.50503">
        <ele>1262.47265625</ele>
        <time>2021-08-26T14:48:00Z</time>
      </trkpt>
      <trkpt lat="46.2438" lon="6.50499">
        <ele>1263.015625</ele>
        <time>2021-08-26T14:48:01Z</time>
      </trkpt>
      <trkpt lat="46.24378" lon="6.50497">
        <ele>1263.421875</ele>
        <time>2021-08-26T14:48:02Z</time>
      </trkpt>
      <trkpt lat="46.24376" lon="6.50496">
        <ele>1263.703125</ele>
        <time>2021-08-26T14:48:03Z</time>
      </trkpt>
      <trkpt lat="46.24373" lon="6.50496">
        <ele>1263.8125</ele>
        <time>2021-08-26T14:48:04Z</time>
      </trkpt>
      <trkpt lat="46.24371" lon="6.50496">
        <ele>1263.83984375</ele>
        <time>2021-08-26T14:48:05Z</time>
      </trkpt>
      <trkpt lat="46.24368" lon="6.50497">
        <ele>1263.86328125</ele>
        <time>2021-08-26T14:48:06Z</time>
      </trkpt>
      <trkpt lat="46.24332" lon="6.50505">
        <ele>1264.28515625</ele>
        <time>2021-08-26T14:48:21Z</time>
      </trkpt>
      <trkpt lat="46.24299" lon="6.50487">
        <ele>1268.19921875</ele>
        <time>2021-08-26T14:48:36Z</time>
      </trkpt>
      <trkpt lat="46.24275" lon="6.50454">
        <ele>1273.421875</ele>
        <time>2021-08-26T14:48:50Z</time>
      </trkpt>
      <trkpt lat="46.24244" lon="6.50448">
        <ele>1277.453125</ele>
        <time>2021-08-26T14:49:03Z</time>
      </trkpt>
      <trkpt lat="46.2422" lon="6.50416">
        <ele>1284.44921875</ele>
        <time>2021-08-26T14:49:17Z</time>
      </trkpt>
      <trkpt lat="46.24224" lon="6.50385">
        <ele>1286.703125</ele>
        <time>2021-08-26T14:49:30Z</time>
      </trkpt>
      <trkpt lat="46.24246" lon="6.50364">
        <ele>1286.51953125</ele>
        <time>2021-08-26T14:49:42Z</time>
      </trkpt>
      <trkpt lat="46.24265" lon="6.50338">
        <ele>1288.70703125</ele>
        <time>2021-08-26T14:49:55Z</time>
      </trkpt>
      <trkpt lat="46.24271" lon="6.50317">
        <ele>1291.1640625</ele>
        <time>2021-08-26T14:50:03Z</time>
      </trkpt>
      <trkpt lat="46.2429" lon="6.50293">
        <ele>1293.828125</ele>
        <time>2021-08-26T14:50:16Z</time>
      </trkpt>
      <trkpt lat="46.24301" lon="6.50262">
        <ele>1298.30859375</ele>
        <time>2021-08-26T14:50:30Z</time>
      </trkpt>
      <trkpt lat="46.243" lon="6.5026">
        <ele>1298.63671875</ele>
        <time>2021-08-26T14:50:31Z</time>
      </trkpt>
      <trkpt lat="46.24286" lon="6.50243">
        <ele>1302.2578125</ele>
        <time>2021-08-26T14:50:42Z</time>
      </trkpt>
      <trkpt lat="46.24283" lon="6.5024">
        <ele>1302.76171875</ele>
        <time>2021-08-26T14:50:44Z</time>
      </trkpt>
      <trkpt lat="46.24264" lon="6.50223">
        <ele>1305.9609375</ele>
        <time>2021-08-26T14:50:57Z</time>
      </trkpt>
      <trkpt lat="46.24246" lon="6.50206">
        <ele>1310.45703125</ele>
        <time>2021-08-26T14:51:10Z</time>
      </trkpt>
      <trkpt lat="46.24232" lon="6.50186">
        <ele>1314.7421875</ele>
        <time>2021-08-26T14:51:22Z</time>
      </trkpt>
      <trkpt lat="46.24224" lon="6.50174">
        <ele>1317.65625</ele>
        <time>2021-08-26T14:51:30Z</time>
      </trkpt>
      <trkpt lat="46.24218" lon="6.50173">
        <ele>1318.546875</ele>
        <time>2021-08-26T14:51:33Z</time>
      </trkpt>
      <trkpt lat="46.24195" lon="6.50176">
        <ele>1321.17578125</ele>
        <time>2021-08-26T14:51:46Z</time>
      </trkpt>
      <trkpt lat="46.24169" lon="6.50184">
        <ele>1322.6328125</ele>
        <time>2021-08-26T14:52:01Z</time>
      </trkpt>
      <trkpt lat="46.24154" lon="6.50188">
        <ele>1323.015625</ele>
        <time>2021-08-26T14:52:10Z</time>
      </trkpt>
      <trkpt lat="46.24129" lon="6.50193">
        <ele>1325.796875</ele>
        <time>2021-08-26T14:52:25Z</time>
      </trkpt>
      <trkpt lat="46.24108" lon="6.50187">
        <ele>1330.41796875</ele>
        <time>2021-08-26T14:52:39Z</time>
      </trkpt>
      <trkpt lat="46.2409" lon="6.50178">
        <ele>1335.34375</ele>
        <time>2021-08-26T14:52:51Z</time>
      </trkpt>
      <trkpt lat="46.24081" lon="6.5017">
        <ele>1338.21875</ele>
        <time>2021-08-26T14:52:58Z</time>
      </trkpt>
      <trkpt lat="46.24076" lon="6.50154">
        <ele>1340.90234375</ele>
        <time>2021-08-26T14:53:06Z</time>
      </trkpt>
      <trkpt lat="46.24077" lon="6.50151">
        <ele>1341.15234375</ele>
        <time>2021-08-26T14:53:07Z</time>
      </trkpt>
      <trkpt lat="46.24094" lon="6.50128">
        <ele>1342.39453125</ele>
        <time>2021-08-26T14:53:21Z</time>
      </trkpt>
      <trkpt lat="46.24111" lon="6.50097">
        <ele>1346.91796875</ele>
        <time>2021-08-26T14:53:37Z</time>
      </trkpt>
      <trkpt lat="46.24112" lon="6.50082">
        <ele>1349.875</ele>
        <time>2021-08-26T14:53:43Z</time>
      </trkpt>
      <trkpt lat="46.24105" lon="6.50074">
        <ele>1352.58984375</ele>
        <time>2021-08-26T14:53:49Z</time>
      </trkpt>
      <trkpt lat="46.24093" lon="6.50067">
        <ele>1355.6328125</ele>
        <time>2021-08-26T14:53:57Z</time>
      </trkpt>
      <trkpt lat="46.24087" lon="6.50064">
        <ele>1356.90625</ele>
        <time>2021-08-26T14:54:01Z</time>
      </trkpt>
      <trkpt lat="46.24069" lon="6.50064">
        <ele>1358.9765625</ele>
        <time>2021-08-26T14:54:12Z</time>
      </trkpt>
      <trkpt lat="46.2405" lon="6.50062">
        <ele>1361.42578125</ele>
        <time>2021-08-26T14:54:24Z</time>
      </trkpt>
      <trkpt lat="46.24028" lon="6.50045">
        <ele>1367.41015625</ele>
        <time>2021-08-26T14:54:40Z</time>
      </trkpt>
      <trkpt lat="46.2401" lon="6.50039">
        <ele>1370.2421875</ele>
        <time>2021-08-26T14:54:51Z</time>
      </trkpt>
      <trkpt lat="46.24002" lon="6.50037">
        <ele>1371.33203125</ele>
        <time>2021-08-26T14:54:56Z</time>
      </trkpt>
      <trkpt lat="46.23984" lon="6.5003">
        <ele>1374.203125</ele>
        <time>2021-08-26T14:55:09Z</time>
      </trkpt>
      <trkpt lat="46.23961" lon="6.50023">
        <ele>1377.8125</ele>
        <time>2021-08-26T14:55:24Z</time>
      </trkpt>
      <trkpt lat="46.23959" lon="6.50024">
        <ele>1377.88671875</ele>
        <time>2021-08-26T14:55:26Z</time>
      </trkpt>
      <trkpt lat="46.2396" lon="6.50026">
        <ele>1377.7265625</ele>
        <time>2021-08-26T14:55:39Z</time>
      </trkpt>
      <trkpt lat="46.23959" lon="6.50027">
        <ele>1377.7890625</ele>
        <time>2021-08-26T14:56:08Z</time>
      </trkpt>
      <trkpt lat="46.23959" lon="6.50027">
        <ele>1377.75</ele>
        <time>2021-08-26T14:56:36Z</time>
      </trkpt>
      <trkpt lat="46.2396" lon="6.50027">
        <ele>1377.61328125</ele>
        <time>2021-08-26T14:57:11Z</time>
      </trkpt>
      <trkpt lat="46.23957" lon="6.50021">
        <ele>1378.4921875</ele>
        <time>2021-08-26T14:57:24Z</time>
      </trkpt>
      <trkpt lat="46.23954" lon="6.5002">
        <ele>1379.0078125</ele>
        <time>2021-08-26T14:57:32Z</time>
      </trkpt>
      <trkpt lat="46.23937" lon="6.50011">
        <ele>1382.84765625</ele>
        <time>2021-08-26T14:57:43Z</time>
      </trkpt>
      <trkpt lat="46.23917" lon="6.50001">
        <ele>1386.6484375</ele>
        <time>2021-08-26T14:57:55Z</time>
      </trkpt>
      <trkpt lat="46.23891" lon="6.49987">
        <ele>1392.17578125</ele>
        <time>2021-08-26T14:58:11Z</time>
      </trkpt>
      <trkpt lat="46.23875" lon="6.49967">
        <ele>1396.1875</ele>
        <time>2021-08-26T14:58:23Z</time>
      </trkpt>
      <trkpt lat="46.23869" lon="6.49948">
        <ele>1397.984375</ele>
        <time>2021-08-26T14:58:31Z</time>
      </trkpt>
      <trkpt lat="46.23855" lon="6.49915">
        <ele>1401.203125</ele>
        <time>2021-08-26T14:58:46Z</time>
      </trkpt>
      <trkpt lat="46.23817" lon="6.49891">
        <ele>1406.28125</ele>
        <time>2021-08-26T14:59:03Z</time>
      </trkpt>
      <trkpt lat="46.23783" lon="6.49869">
        <ele>1410.98828125</ele>
        <time>2021-08-26T14:59:17Z</time>
      </trkpt>
      <trkpt lat="46.23783" lon="6.49865">
        <ele>1411.15234375</ele>
        <time>2021-08-26T14:59:18Z</time>
      </trkpt>
      <trkpt lat="46.23782" lon="6.49862">
        <ele>1411.28125</ele>
        <time>2021-08-26T14:59:19Z</time>
      </trkpt>
      <trkpt lat="46.23781" lon="6.49859">
        <ele>1411.421875</ele>
        <time>2021-08-26T14:59:20Z</time>
      </trkpt>
      <trkpt lat="46.23779" lon="6.49855">
        <ele>1411.5625</ele>
        <time>2021-08-26T14:59:21Z</time>
      </trkpt>
      <trkpt lat="46.23752" lon="6.49818">
        <ele>1415.80078125</ele>
        <time>2021-08-26T14:59:35Z</time>
      </trkpt>
      <trkpt lat="46.2373" lon="6.49788">
        <ele>1418.27734375</ele>
        <time>2021-08-26T14:59:46Z</time>
      </trkpt>
      <trkpt lat="46.23728" lon="6.49786">
        <ele>1418.50390625</ele>
        <time>2021-08-26T14:59:47Z</time>
      </trkpt>
      <trkpt lat="46.23703" lon="6.49743">
        <ele>1419.703125</ele>
        <time>2021-08-26T15:00:01Z</time>
      </trkpt>
      <trkpt lat="46.23668" lon="6.49698">
        <ele>1422.72265625</ele>
        <time>2021-08-26T15:00:16Z</time>
      </trkpt>
      <trkpt lat="46.23636" lon="6.49659">
        <ele>1426.0859375</ele>
        <time>2021-08-26T15:00:32Z</time>
      </trkpt>
      <trkpt lat="46.2361" lon="6.49631">
        <ele>1432.71875</ele>
        <time>2021-08-26T15:00:45Z</time>
      </trkpt>
      <trkpt lat="46.23598" lon="6.49614">
        <ele>1435.25390625</ele>
        <time>2021-08-26T15:00:52Z</time>
      </trkpt>
      <trkpt lat="46.23573" lon="6.49582">
        <ele>1438.80078125</ele>
        <time>2021-08-26T15:01:06Z</time>
      </trkpt>
      <trkpt lat="46.23545" lon="6.49562">
        <ele>1441.81640625</ele>
        <time>2021-08-26T15:01:19Z</time>
      </trkpt>
      <trkpt lat="46.23538" lon="6.4956">
        <ele>1442.671875</ele>
        <time>2021-08-26T15:01:22Z</time>
      </trkpt>
      <trkpt lat="46.23515" lon="6.49539">
        <ele>1444.46484375</ele>
        <time>2021-08-26T15:01:35Z</time>
      </trkpt>
      <trkpt lat="46.23494" lon="6.49531">
        <ele>1446.42578125</ele>
        <time>2021-08-26T15:01:47Z</time>
      </trkpt>
      <trkpt lat="46.23475" lon="6.49519">
        <ele>1448.71875</ele>
        <time>2021-08-26T15:01:59Z</time>
      </trkpt>
      <trkpt lat="46.23475" lon="6.49516">
        <ele>1448.77734375</ele>
        <time>2021-08-26T15:02:00Z</time>
      </trkpt>
      <trkpt lat="46.23474" lon="6.49514">
        <ele>1448.84765625</ele>
        <time>2021-08-26T15:02:01Z</time>
      </trkpt>
      <trkpt lat="46.23469" lon="6.49506">
        <ele>1449.21484375</ele>
        <time>2021-08-26T15:02:05Z</time>
      </trkpt>
      <trkpt lat="46.23459" lon="6.49479">
        <ele>1450.328125</ele>
        <time>2021-08-26T15:02:18Z</time>
      </trkpt>
      <trkpt lat="46.23444" lon="6.49463">
        <ele>1453.671875</ele>
        <time>2021-08-26T15:02:29Z</time>
      </trkpt>
      <trkpt lat="46.23425" lon="6.49432">
        <ele>1460.23828125</ele>
        <time>2021-08-26T15:02:46Z</time>
      </trkpt>
      <trkpt lat="46.2342" lon="6.49401">
        <ele>1462.8671875</ele>
        <time>2021-08-26T15:02:59Z</time>
      </trkpt>
      <trkpt lat="46.2342" lon="6.49396">
        <ele>1463.02734375</ele>
        <time>2021-08-26T15:03:01Z</time>
      </trkpt>
      <trkpt lat="46.23414" lon="6.49381">
        <ele>1464.92578125</ele>
        <time>2021-08-26T15:03:08Z</time>
      </trkpt>
      <trkpt lat="46.23406" lon="6.49373">
        <ele>1467.20703125</ele>
        <time>2021-08-26T15:03:13Z</time>
      </trkpt>
      <trkpt lat="46.23404" lon="6.49371">
        <ele>1467.65625</ele>
        <time>2021-08-26T15:03:14Z</time>
      </trkpt>
      <trkpt lat="46.23387" lon="6.49353">
        <ele>1472.0859375</ele>
        <time>2021-08-26T15:03:26Z</time>
      </trkpt>
      <trkpt lat="46.23368" lon="6.49343">
        <ele>1476.80859375</ele>
        <time>2021-08-26T15:03:39Z</time>
      </trkpt>
      <trkpt lat="46.23352" lon="6.49323">
        <ele>1480.3984375</ele>
        <time>2021-08-26T15:03:52Z</time>
      </trkpt>
      <trkpt lat="46.23337" lon="6.49303">
        <ele>1482.63671875</ele>
        <time>2021-08-26T15:04:04Z</time>
      </trkpt>
      <trkpt lat="46.23335" lon="6.493">
        <ele>1482.7890625</ele>
        <time>2021-08-26T15:04:06Z</time>
      </trkpt>
      <trkpt lat="46.23333" lon="6.49299">
        <ele>1483.01953125</ele>
        <time>2021-08-26T15:04:07Z</time>
      </trkpt>
      <trkpt lat="46.23331" lon="6.49298">
        <ele>1483.32421875</ele>
        <time>2021-08-26T15:04:08Z</time>
      </trkpt>
      <trkpt lat="46.2333" lon="6.49298">
        <ele>1483.59375</ele>
        <time>2021-08-26T15:04:09Z</time>
      </trkpt>
      <trkpt lat="46.23328" lon="6.49298">
        <ele>1483.84765625</ele>
        <time>2021-08-26T15:04:10Z</time>
      </trkpt>
      <trkpt lat="46.23325" lon="6.49297">
        <ele>1484.39453125</ele>
        <time>2021-08-26T15:04:12Z</time>
      </trkpt>
      <trkpt lat="46.23323" lon="6.49298">
        <ele>1484.75</ele>
        <time>2021-08-26T15:04:13Z</time>
      </trkpt>
      <trkpt lat="46.23308" lon="6.49299">
        <ele>1487.63671875</ele>
        <time>2021-08-26T15:04:22Z</time>
      </trkpt>
      <trkpt lat="46.23292" lon="6.493">
        <ele>1490.625</ele>
        <time>2021-08-26T15:04:31Z</time>
      </trkpt>
      <trkpt lat="46.23291" lon="6.49301">
        <ele>1491.2109375</ele>
        <time>2021-08-26T15:04:32Z</time>
      </trkpt>
      <trkpt lat="46.2329" lon="6.49304">
        <ele>1491.796875</ele>
        <time>2021-08-26T15:04:33Z</time>
      </trkpt>
      <trkpt lat="46.2329" lon="6.49306">
        <ele>1492.30859375</ele>
        <time>2021-08-26T15:04:34Z</time>
      </trkpt>
      <trkpt lat="46.2329" lon="6.49309">
        <ele>1492.65625</ele>
        <time>2021-08-26T15:04:35Z</time>
      </trkpt>
      <trkpt lat="46.23291" lon="6.49312">
        <ele>1492.87109375</ele>
        <time>2021-08-26T15:04:36Z</time>
      </trkpt>
      <trkpt lat="46.23291" lon="6.49315">
        <ele>1493.10546875</ele>
        <time>2021-08-26T15:04:37Z</time>
      </trkpt>
      <trkpt lat="46.23291" lon="6.49314">
        <ele>1493.0703125</ele>
        <time>2021-08-26T15:04:51Z</time>
      </trkpt>
      <trkpt lat="46.2329" lon="6.49333">
        <ele>1496.22265625</ele>
        <time>2021-08-26T15:04:59Z</time>
      </trkpt>
      <trkpt lat="46.23289" lon="6.49335">
        <ele>1496.75</ele>
        <time>2021-08-26T15:05:00Z</time>
      </trkpt>
      <trkpt lat="46.2329" lon="6.49345">
        <ele>1498.1640625</ele>
        <time>2021-08-26T15:05:04Z</time>
      </trkpt>
      <trkpt lat="46.23276" lon="6.49358">
        <ele>1505.375</ele>
        <time>2021-08-26T15:05:15Z</time>
      </trkpt>
      <trkpt lat="46.23273" lon="6.49357">
        <ele>1506.33984375</ele>
        <time>2021-08-26T15:05:17Z</time>
      </trkpt>
      <trkpt lat="46.23264" lon="6.49355">
        <ele>1508.94921875</ele>
        <time>2021-08-26T15:05:22Z</time>
      </trkpt>
      <trkpt lat="46.23261" lon="6.49352">
        <ele>1509.3046875</ele>
        <time>2021-08-26T15:05:24Z</time>
      </trkpt>
      <trkpt lat="46.23243" lon="6.49333">
        <ele>1511.078125</ele>
        <time>2021-08-26T15:05:37Z</time>
      </trkpt>
      <trkpt lat="46.23236" lon="6.49326">
        <ele>1512.00390625</ele>
        <time>2021-08-26T15:05:42Z</time>
      </trkpt>
      <trkpt lat="46.23226" lon="6.49312">
        <ele>1514.375</ele>
        <time>2021-08-26T15:05:50Z</time>
      </trkpt>
      <trkpt lat="46.23214" lon="6.4928">
        <ele>1515.0546875</ele>
        <time>2021-08-26T15:06:05Z</time>
      </trkpt>
      <trkpt lat="46.23209" lon="6.49249">
        <ele>1515.63671875</ele>
        <time>2021-08-26T15:06:18Z</time>
      </trkpt>
      <trkpt lat="46.23211" lon="6.4922">
        <ele>1515.04296875</ele>
        <time>2021-08-26T15:06:30Z</time>
      </trkpt>
      <trkpt lat="46.23207" lon="6.49187">
        <ele>1517.046875</ele>
        <time>2021-08-26T15:06:44Z</time>
      </trkpt>
      <trkpt lat="46.23207" lon="6.49185">
        <ele>1517.34375</ele>
        <time>2021-08-26T15:06:45Z</time>
      </trkpt>
      <trkpt lat="46.23197" lon="6.49157">
        <ele>1520.44140625</ele>
        <time>2021-08-26T15:06:58Z</time>
      </trkpt>
      <trkpt lat="46.23181" lon="6.4914">
        <ele>1523.78515625</ele>
        <time>2021-08-26T15:07:10Z</time>
      </trkpt>
      <trkpt lat="46.23166" lon="6.49128">
        <ele>1526.80859375</ele>
        <time>2021-08-26T15:07:19Z</time>
      </trkpt>
      <trkpt lat="46.23164" lon="6.49127">
        <ele>1527.18359375</ele>
        <time>2021-08-26T15:07:20Z</time>
      </trkpt>
      <trkpt lat="46.23154" lon="6.49124">
        <ele>1529.29296875</ele>
        <time>2021-08-26T15:07:26Z</time>
      </trkpt>
      <trkpt lat="46.23143" lon="6.49119">
        <ele>1531.51953125</ele>
        <time>2021-08-26T15:07:33Z</time>
      </trkpt>
      <trkpt lat="46.23121" lon="6.49114">
        <ele>1535.37890625</ele>
        <time>2021-08-26T15:07:46Z</time>
      </trkpt>
      <trkpt lat="46.23103" lon="6.49107">
        <ele>1537.796875</ele>
        <time>2021-08-26T15:07:56Z</time>
      </trkpt>
      <trkpt lat="46.23075" lon="6.49107">
        <ele>1541.796875</ele>
        <time>2021-08-26T15:08:09Z</time>
      </trkpt>
      <trkpt lat="46.23052" lon="6.49117">
        <ele>1545.91796875</ele>
        <time>2021-08-26T15:08:21Z</time>
      </trkpt>
      <trkpt lat="46.23049" lon="6.49119">
        <ele>1546.51171875</ele>
        <time>2021-08-26T15:08:33Z</time>
      </trkpt>
      <trkpt lat="46.23035" lon="6.49132">
        <ele>1549.98046875</ele>
        <time>2021-08-26T15:08:48Z</time>
      </trkpt>
      <trkpt lat="46.23018" lon="6.4914">
        <ele>1552.9296875</ele>
        <time>2021-08-26T15:08:57Z</time>
      </trkpt>
      <trkpt lat="46.23003" lon="6.49148">
        <ele>1555.1640625</ele>
        <time>2021-08-26T15:09:06Z</time>
      </trkpt>
      <trkpt lat="46.22981" lon="6.49154">
        <ele>1557.51953125</ele>
        <time>2021-08-26T15:09:19Z</time>
      </trkpt>
      <trkpt lat="46.22961" lon="6.49155">
        <ele>1558.5</ele>
        <time>2021-08-26T15:09:30Z</time>
      </trkpt>
      <trkpt lat="46.22959" lon="6.49154">
        <ele>1558.4609375</ele>
        <time>2021-08-26T15:09:31Z</time>
      </trkpt>
      <trkpt lat="46.22945" lon="6.49159">
        <ele>1559.4609375</ele>
        <time>2021-08-26T15:09:40Z</time>
      </trkpt>
      <trkpt lat="46.22912" lon="6.4915">
        <ele>1559.6640625</ele>
        <time>2021-08-26T15:09:54Z</time>
      </trkpt>
      <trkpt lat="46.22877" lon="6.49117">
        <ele>1558.453125</ele>
        <time>2021-08-26T15:10:06Z</time>
      </trkpt>
      <trkpt lat="46.2286" lon="6.49103">
        <ele>1557.234375</ele>
        <time>2021-08-26T15:10:17Z</time>
      </trkpt>
      <trkpt lat="46.2286" lon="6.49104">
        <ele>1557.36328125</ele>
        <time>2021-08-26T15:10:43Z</time>
      </trkpt>
      <trkpt lat="46.22849" lon="6.49099">
        <ele>1556.48828125</ele>
        <time>2021-08-26T15:11:01Z</time>
      </trkpt>
      <trkpt lat="46.22822" lon="6.49088">
        <ele>1553.2421875</ele>
        <time>2021-08-26T15:11:14Z</time>
      </trkpt>
      <trkpt lat="46.22821" lon="6.49088">
        <ele>1553.20703125</ele>
        <time>2021-08-26T15:11:38Z</time>
      </trkpt>
      <trkpt lat="46.2282" lon="6.49088">
        <ele>1552.85546875</ele>
        <time>2021-08-26T15:12:26Z</time>
      </trkpt>
      <trkpt lat="46.2282" lon="6.49088">
        <ele>1552.96484375</ele>
        <time>2021-08-26T15:13:07Z</time>
      </trkpt>
      <trkpt lat="46.22809" lon="6.49084">
        <ele>1549.98828125</ele>
        <time>2021-08-26T15:13:27Z</time>
      </trkpt>
      <trkpt lat="46.22795" lon="6.49083">
        <ele>1546.50390625</ele>
        <time>2021-08-26T15:13:30Z</time>
      </trkpt>
      <trkpt lat="46.2279" lon="6.49084">
        <ele>1545.234375</ele>
        <time>2021-08-26T15:13:31Z</time>
      </trkpt>
      <trkpt lat="46.22784" lon="6.49086">
        <ele>1544.0859375</ele>
        <time>2021-08-26T15:13:32Z</time>
      </trkpt>
      <trkpt lat="46.22774" lon="6.4909">
        <ele>1541.89453125</ele>
        <time>2021-08-26T15:13:34Z</time>
      </trkpt>
      <trkpt lat="46.22762" lon="6.49091">
        <ele>1538.37109375</ele>
        <time>2021-08-26T15:13:37Z</time>
      </trkpt>
      <trkpt lat="46.22747" lon="6.4909">
        <ele>1533.41796875</ele>
        <time>2021-08-26T15:13:41Z</time>
      </trkpt>
      <trkpt lat="46.22733" lon="6.49091">
        <ele>1529.19140625</ele>
        <time>2021-08-26T15:13:44Z</time>
      </trkpt>
      <trkpt lat="46.2272" lon="6.49091">
        <ele>1524.921875</ele>
        <time>2021-08-26T15:13:47Z</time>
      </trkpt>
      <trkpt lat="46.22711" lon="6.4909">
        <ele>1521.7578125</ele>
        <time>2021-08-26T15:13:49Z</time>
      </trkpt>
      <trkpt lat="46.22697" lon="6.49085">
        <ele>1516.46875</ele>
        <time>2021-08-26T15:13:52Z</time>
      </trkpt>
      <trkpt lat="46.22692" lon="6.49084">
        <ele>1514.72265625</ele>
        <time>2021-08-26T15:13:53Z</time>
      </trkpt>
      <trkpt lat="46.22687" lon="6.49084">
        <ele>1513.09765625</ele>
        <time>2021-08-26T15:13:54Z</time>
      </trkpt>
      <trkpt lat="46.22682" lon="6.49087">
        <ele>1511.70703125</ele>
        <time>2021-08-26T15:13:55Z</time>
      </trkpt>
      <trkpt lat="46.22678" lon="6.4909">
        <ele>1510.40625</ele>
        <time>2021-08-26T15:13:56Z</time>
      </trkpt>
      <trkpt lat="46.22673" lon="6.49095">
        <ele>1509.25390625</ele>
        <time>2021-08-26T15:13:57Z</time>
      </trkpt>
      <trkpt lat="46.22669" lon="6.49099">
        <ele>1508.19140625</ele>
        <time>2021-08-26T15:13:58Z</time>
      </trkpt>
      <trkpt lat="46.22665" lon="6.49104">
        <ele>1507.24609375</ele>
        <time>2021-08-26T15:13:59Z</time>
      </trkpt>
      <trkpt lat="46.22661" lon="6.49108">
        <ele>1506.546875</ele>
        <time>2021-08-26T15:14:00Z</time>
      </trkpt>
      <trkpt lat="46.2265" lon="6.4912">
        <ele>1504.01953125</ele>
        <time>2021-08-26T15:14:04Z</time>
      </trkpt>
      <trkpt lat="46.22636" lon="6.49121">
        <ele>1499.03515625</ele>
        <time>2021-08-26T15:14:10Z</time>
      </trkpt>
      <trkpt lat="46.22636" lon="6.49121">
        <ele>1498.953125</ele>
        <time>2021-08-26T15:14:11Z</time>
      </trkpt>
      <trkpt lat="46.22635" lon="6.49121">
        <ele>1498.91015625</ele>
        <time>2021-08-26T15:14:29Z</time>
      </trkpt>
      <trkpt lat="46.22637" lon="6.4912">
        <ele>1499.49609375</ele>
        <time>2021-08-26T15:15:16Z</time>
      </trkpt>
      <trkpt lat="46.22636" lon="6.49119">
        <ele>1499.17578125</ele>
        <time>2021-08-26T15:16:00Z</time>
      </trkpt>
      <trkpt lat="46.22635" lon="6.49117">
        <ele>1498.46484375</ele>
        <time>2021-08-26T15:16:01Z</time>
      </trkpt>
      <trkpt lat="46.22633" lon="6.49116">
        <ele>1497.6015625</ele>
        <time>2021-08-26T15:16:02Z</time>
      </trkpt>
      <trkpt lat="46.22631" lon="6.49114">
        <ele>1496.60546875</ele>
        <time>2021-08-26T15:16:03Z</time>
      </trkpt>
      <trkpt lat="46.22628" lon="6.49113">
        <ele>1495.53125</ele>
        <time>2021-08-26T15:16:04Z</time>
      </trkpt>
      <trkpt lat="46.22625" lon="6.49112">
        <ele>1494.359375</ele>
        <time>2021-08-26T15:16:05Z</time>
      </trkpt>
      <trkpt lat="46.22616" lon="6.49108">
        <ele>1490.8671875</ele>
        <time>2021-08-26T15:16:08Z</time>
      </trkpt>
      <trkpt lat="46.22606" lon="6.4911">
        <ele>1487.6328125</ele>
        <time>2021-08-26T15:16:11Z</time>
      </trkpt>
      <trkpt lat="46.22598" lon="6.49115">
        <ele>1484.92578125</ele>
        <time>2021-08-26T15:16:14Z</time>
      </trkpt>
      <trkpt lat="46.22586" lon="6.49119">
        <ele>1481.01171875</ele>
        <time>2021-08-26T15:16:18Z</time>
      </trkpt>
      <trkpt lat="46.22577" lon="6.49121">
        <ele>1477.77734375</ele>
        <time>2021-08-26T15:16:21Z</time>
      </trkpt>
      <trkpt lat="46.22569" lon="6.49128">
        <ele>1475.38671875</ele>
        <time>2021-08-26T15:16:24Z</time>
      </trkpt>
      <trkpt lat="46.22561" lon="6.49138">
        <ele>1473.15234375</ele>
        <time>2021-08-26T15:16:27Z</time>
      </trkpt>
      <trkpt lat="46.22547" lon="6.49145">
        <ele>1468.90234375</ele>
        <time>2021-08-26T15:16:31Z</time>
      </trkpt>
      <trkpt lat="46.22534" lon="6.49147">
        <ele>1465.56640625</ele>
        <time>2021-08-26T15:16:35Z</time>
      </trkpt>
      <trkpt lat="46.22519" lon="6.4916">
        <ele>1462.59765625</ele>
        <time>2021-08-26T15:16:40Z</time>
      </trkpt>
      <trkpt lat="46.22509" lon="6.49176">
        <ele>1460.515625</ele>
        <time>2021-08-26T15:16:44Z</time>
      </trkpt>
      <trkpt lat="46.22499" lon="6.4919">
        <ele>1457.875</ele>
        <time>2021-08-26T15:16:48Z</time>
      </trkpt>
      <trkpt lat="46.22493" lon="6.49201">
        <ele>1456.9765625</ele>
        <time>2021-08-26T15:16:51Z</time>
      </trkpt>
      <trkpt lat="46.22489" lon="6.49205">
        <ele>1456.328125</ele>
        <time>2021-08-26T15:16:52Z</time>
      </trkpt>
      <trkpt lat="46.22485" lon="6.49209">
        <ele>1455.84765625</ele>
        <time>2021-08-26T15:16:53Z</time>
      </trkpt>
      <trkpt lat="46.2248" lon="6.49212">
        <ele>1455.1171875</ele>
        <time>2021-08-26T15:16:54Z</time>
      </trkpt>
      <trkpt lat="46.22474" lon="6.49215">
        <ele>1454.30859375</ele>
        <time>2021-08-26T15:16:55Z</time>
      </trkpt>
      <trkpt lat="46.22454" lon="6.4923">
        <ele>1450.3203125</ele>
        <time>2021-08-26T15:16:59Z</time>
      </trkpt>
      <trkpt lat="46.22424" lon="6.49252">
        <ele>1441.66015625</ele>
        <time>2021-08-26T15:17:09Z</time>
      </trkpt>
      <trkpt lat="46.224" lon="6.49266">
        <ele>1432.59375</ele>
        <time>2021-08-26T15:17:17Z</time>
      </trkpt>
      <trkpt lat="46.22395" lon="6.49268">
        <ele>1430.4609375</ele>
        <time>2021-08-26T15:17:18Z</time>
      </trkpt>
      <trkpt lat="46.22389" lon="6.49269">
        <ele>1428.3515625</ele>
        <time>2021-08-26T15:17:19Z</time>
      </trkpt>
      <trkpt lat="46.22376" lon="6.49268">
        <ele>1423.640625</ele>
        <time>2021-08-26T15:17:22Z</time>
      </trkpt>
      <trkpt lat="46.22372" lon="6.49265">
        <ele>1422.54296875</ele>
        <time>2021-08-26T15:17:23Z</time>
      </trkpt>
      <trkpt lat="46.22369" lon="6.49262">
        <ele>1421.65234375</ele>
        <time>2021-08-26T15:17:24Z</time>
      </trkpt>
      <trkpt lat="46.22364" lon="6.49258">
        <ele>1420.68359375</ele>
        <time>2021-08-26T15:17:25Z</time>
      </trkpt>
      <trkpt lat="46.2236" lon="6.49254">
        <ele>1419.82421875</ele>
        <time>2021-08-26T15:17:26Z</time>
      </trkpt>
      <trkpt lat="46.22357" lon="6.49249">
        <ele>1419.30078125</ele>
        <time>2021-08-26T15:17:27Z</time>
      </trkpt>
      <trkpt lat="46.22353" lon="6.49243">
        <ele>1419</ele>
        <time>2021-08-26T15:17:28Z</time>
      </trkpt>
      <trkpt lat="46.22349" lon="6.49238">
        <ele>1418.5625</ele>
        <time>2021-08-26T15:17:29Z</time>
      </trkpt>
      <trkpt lat="46.22345" lon="6.49233">
        <ele>1417.6875</ele>
        <time>2021-08-26T15:17:30Z</time>
      </trkpt>
      <trkpt lat="46.22338" lon="6.49223">
        <ele>1415.8984375</ele>
        <time>2021-08-26T15:17:32Z</time>
      </trkpt>
      <trkpt lat="46.22334" lon="6.49217">
        <ele>1415.2109375</ele>
        <time>2021-08-26T15:17:33Z</time>
      </trkpt>
      <trkpt lat="46.22331" lon="6.49211">
        <ele>1414.515625</ele>
        <time>2021-08-26T15:17:34Z</time>
      </trkpt>
      <trkpt lat="46.22318" lon="6.49194">
        <ele>1411.671875</ele>
        <time>2021-08-26T15:17:37Z</time>
      </trkpt>
      <trkpt lat="46.22311" lon="6.49183">
        <ele>1409.94921875</ele>
        <time>2021-08-26T15:17:39Z</time>
      </trkpt>
      <trkpt lat="46.22296" lon="6.49167">
        <ele>1406.27734375</ele>
        <time>2021-08-26T15:17:42Z</time>
      </trkpt>
      <trkpt lat="46.22287" lon="6.49155">
        <ele>1403.79296875</ele>
        <time>2021-08-26T15:17:45Z</time>
      </trkpt>
      <trkpt lat="46.22283" lon="6.49152">
        <ele>1402.578125</ele>
        <time>2021-08-26T15:17:46Z</time>
      </trkpt>
      <trkpt lat="46.22279" lon="6.4915">
        <ele>1400.86328125</ele>
        <time>2021-08-26T15:17:47Z</time>
      </trkpt>
      <trkpt lat="46.22275" lon="6.49148">
        <ele>1399.19921875</ele>
        <time>2021-08-26T15:17:48Z</time>
      </trkpt>
      <trkpt lat="46.22272" lon="6.49146">
        <ele>1397.80078125</ele>
        <time>2021-08-26T15:17:49Z</time>
      </trkpt>
      <trkpt lat="46.22269" lon="6.49146">
        <ele>1396.19140625</ele>
        <time>2021-08-26T15:17:50Z</time>
      </trkpt>
      <trkpt lat="46.22266" lon="6.49144">
        <ele>1394.671875</ele>
        <time>2021-08-26T15:17:51Z</time>
      </trkpt>
      <trkpt lat="46.22262" lon="6.49143">
        <ele>1393.21875</ele>
        <time>2021-08-26T15:17:52Z</time>
      </trkpt>
      <trkpt lat="46.22255" lon="6.49139">
        <ele>1390.44921875</ele>
        <time>2021-08-26T15:17:54Z</time>
      </trkpt>
      <trkpt lat="46.22251" lon="6.49136">
        <ele>1389.5234375</ele>
        <time>2021-08-26T15:17:55Z</time>
      </trkpt>
      <trkpt lat="46.2224" lon="6.49125">
        <ele>1387.8359375</ele>
        <time>2021-08-26T15:17:59Z</time>
      </trkpt>
      <trkpt lat="46.22229" lon="6.49118">
        <ele>1385.6875</ele>
        <time>2021-08-26T15:18:02Z</time>
      </trkpt>
      <trkpt lat="46.22224" lon="6.49117">
        <ele>1383.8828125</ele>
        <time>2021-08-26T15:18:03Z</time>
      </trkpt>
      <trkpt lat="46.22212" lon="6.49115">
        <ele>1379.64453125</ele>
        <time>2021-08-26T15:18:05Z</time>
      </trkpt>
      <trkpt lat="46.22195" lon="6.49106">
        <ele>1374.99609375</ele>
        <time>2021-08-26T15:18:08Z</time>
      </trkpt>
      <trkpt lat="46.22188" lon="6.49102">
        <ele>1373.7734375</ele>
        <time>2021-08-26T15:18:09Z</time>
      </trkpt>
      <trkpt lat="46.22172" lon="6.49089">
        <ele>1370.30078125</ele>
        <time>2021-08-26T15:18:12Z</time>
      </trkpt>
      <trkpt lat="46.22153" lon="6.4907">
        <ele>1367.6015625</ele>
        <time>2021-08-26T15:18:15Z</time>
      </trkpt>
      <trkpt lat="46.22124" lon="6.49036">
        <ele>1364.47265625</ele>
        <time>2021-08-26T15:18:20Z</time>
      </trkpt>
      <trkpt lat="46.22105" lon="6.49024">
        <ele>1361.16796875</ele>
        <time>2021-08-26T15:18:23Z</time>
      </trkpt>
      <trkpt lat="46.22078" lon="6.49004">
        <ele>1357.54296875</ele>
        <time>2021-08-26T15:18:27Z</time>
      </trkpt>
      <trkpt lat="46.22065" lon="6.48994">
        <ele>1356.34375</ele>
        <time>2021-08-26T15:18:29Z</time>
      </trkpt>
      <trkpt lat="46.22058" lon="6.48991">
        <ele>1354.71484375</ele>
        <time>2021-08-26T15:18:30Z</time>
      </trkpt>
      <trkpt lat="46.22035" lon="6.4898">
        <ele>1348.86328125</ele>
        <time>2021-08-26T15:18:33Z</time>
      </trkpt>
      <trkpt lat="46.22029" lon="6.48975">
        <ele>1347.6953125</ele>
        <time>2021-08-26T15:18:34Z</time>
      </trkpt>
      <trkpt lat="46.22022" lon="6.4897">
        <ele>1346.82421875</ele>
        <time>2021-08-26T15:18:35Z</time>
      </trkpt>
      <trkpt lat="46.22001" lon="6.48945">
        <ele>1343.3203125</ele>
        <time>2021-08-26T15:18:39Z</time>
      </trkpt>
      <trkpt lat="46.21997" lon="6.48936">
        <ele>1343.4296875</ele>
        <time>2021-08-26T15:18:40Z</time>
      </trkpt>
      <trkpt lat="46.21993" lon="6.48928">
        <ele>1343.76953125</ele>
        <time>2021-08-26T15:18:41Z</time>
      </trkpt>
      <trkpt lat="46.21984" lon="6.48909">
        <ele>1343.78125</ele>
        <time>2021-08-26T15:18:43Z</time>
      </trkpt>
      <trkpt lat="46.21973" lon="6.4889">
        <ele>1341.953125</ele>
        <time>2021-08-26T15:18:45Z</time>
      </trkpt>
      <trkpt lat="46.21935" lon="6.48795">
        <ele>1341.26171875</ele>
        <time>2021-08-26T15:18:54Z</time>
      </trkpt>
      <trkpt lat="46.21932" lon="6.48786">
        <ele>1340.98046875</ele>
        <time>2021-08-26T15:18:55Z</time>
      </trkpt>
      <trkpt lat="46.2193" lon="6.48777">
        <ele>1341.15625</ele>
        <time>2021-08-26T15:18:56Z</time>
      </trkpt>
      <trkpt lat="46.21929" lon="6.48767">
        <ele>1341.75</ele>
        <time>2021-08-26T15:18:57Z</time>
      </trkpt>
      <trkpt lat="46.21928" lon="6.48756">
        <ele>1342.37890625</ele>
        <time>2021-08-26T15:18:58Z</time>
      </trkpt>
      <trkpt lat="46.21927" lon="6.48745">
        <ele>1343.3359375</ele>
        <time>2021-08-26T15:18:59Z</time>
      </trkpt>
      <trkpt lat="46.21928" lon="6.48734">
        <ele>1344.640625</ele>
        <time>2021-08-26T15:19:00Z</time>
      </trkpt>
      <trkpt lat="46.2193" lon="6.48723">
        <ele>1346.28515625</ele>
        <time>2021-08-26T15:19:01Z</time>
      </trkpt>
      <trkpt lat="46.21932" lon="6.48712">
        <ele>1347.4140625</ele>
        <time>2021-08-26T15:19:02Z</time>
      </trkpt>
      <trkpt lat="46.21934" lon="6.48701">
        <ele>1347.52734375</ele>
        <time>2021-08-26T15:19:03Z</time>
      </trkpt>
      <trkpt lat="46.21943" lon="6.48673">
        <ele>1348.234375</ele>
        <time>2021-08-26T15:19:06Z</time>
      </trkpt>
      <trkpt lat="46.2195" lon="6.48658">
        <ele>1349.23046875</ele>
        <time>2021-08-26T15:19:08Z</time>
      </trkpt>
      <trkpt lat="46.21952" lon="6.48652">
        <ele>1349.40234375</ele>
        <time>2021-08-26T15:19:09Z</time>
      </trkpt>
      <trkpt lat="46.21954" lon="6.48647">
        <ele>1349.3125</ele>
        <time>2021-08-26T15:19:10Z</time>
      </trkpt>
      <trkpt lat="46.21955" lon="6.48642">
        <ele>1349.13671875</ele>
        <time>2021-08-26T15:19:11Z</time>
      </trkpt>
      <trkpt lat="46.21958" lon="6.48633">
        <ele>1349.08984375</ele>
        <time>2021-08-26T15:19:13Z</time>
      </trkpt>
      <trkpt lat="46.21982" lon="6.48597">
        <ele>1352.97265625</ele>
        <time>2021-08-26T15:19:21Z</time>
      </trkpt>
      <trkpt lat="46.21986" lon="6.48591">
        <ele>1353.359375</ele>
        <time>2021-08-26T15:19:22Z</time>
      </trkpt>
      <trkpt lat="46.22001" lon="6.48568">
        <ele>1355.34375</ele>
        <time>2021-08-26T15:19:26Z</time>
      </trkpt>
      <trkpt lat="46.22015" lon="6.48535">
        <ele>1353.98046875</ele>
        <time>2021-08-26T15:19:32Z</time>
      </trkpt>
      <trkpt lat="46.22018" lon="6.48529">
        <ele>1353.89453125</ele>
        <time>2021-08-26T15:19:33Z</time>
      </trkpt>
      <trkpt lat="46.2202" lon="6.48524">
        <ele>1353.55859375</ele>
        <time>2021-08-26T15:19:34Z</time>
      </trkpt>
      <trkpt lat="46.22023" lon="6.48517">
        <ele>1352.93359375</ele>
        <time>2021-08-26T15:19:35Z</time>
      </trkpt>
      <trkpt lat="46.22026" lon="6.48511">
        <ele>1352.14453125</ele>
        <time>2021-08-26T15:19:36Z</time>
      </trkpt>
      <trkpt lat="46.22029" lon="6.48501">
        <ele>1350.53125</ele>
        <time>2021-08-26T15:19:37Z</time>
      </trkpt>
      <trkpt lat="46.22033" lon="6.48483">
        <ele>1347.46875</ele>
        <time>2021-08-26T15:19:39Z</time>
      </trkpt>
      <trkpt lat="46.22035" lon="6.48475">
        <ele>1345.96484375</ele>
        <time>2021-08-26T15:19:40Z</time>
      </trkpt>
      <trkpt lat="46.22038" lon="6.4846">
        <ele>1343.0625</ele>
        <time>2021-08-26T15:19:42Z</time>
      </trkpt>
      <trkpt lat="46.22039" lon="6.48451">
        <ele>1341.6796875</ele>
        <time>2021-08-26T15:19:43Z</time>
      </trkpt>
      <trkpt lat="46.2204" lon="6.48447">
        <ele>1341.04296875</ele>
        <time>2021-08-26T15:19:44Z</time>
      </trkpt>
      <trkpt lat="46.22043" lon="6.48432">
        <ele>1339.0390625</ele>
        <time>2021-08-26T15:19:45Z</time>
      </trkpt>
      <trkpt lat="46.22046" lon="6.48412">
        <ele>1335.74609375</ele>
        <time>2021-08-26T15:19:47Z</time>
      </trkpt>
      <trkpt lat="46.22046" lon="6.48401">
        <ele>1334.14453125</ele>
        <time>2021-08-26T15:19:48Z</time>
      </trkpt>
      <trkpt lat="46.22047" lon="6.48373">
        <ele>1330.75390625</ele>
        <time>2021-08-26T15:19:51Z</time>
      </trkpt>
      <trkpt lat="46.22046" lon="6.48366">
        <ele>1330.20703125</ele>
        <time>2021-08-26T15:19:52Z</time>
      </trkpt>
      <trkpt lat="46.22045" lon="6.48361">
        <ele>1329.53125</ele>
        <time>2021-08-26T15:19:53Z</time>
      </trkpt>
      <trkpt lat="46.22044" lon="6.48356">
        <ele>1328.6640625</ele>
        <time>2021-08-26T15:19:54Z</time>
      </trkpt>
      <trkpt lat="46.22041" lon="6.4835">
        <ele>1327.4921875</ele>
        <time>2021-08-26T15:19:55Z</time>
      </trkpt>
      <trkpt lat="46.22038" lon="6.48344">
        <ele>1326.1953125</ele>
        <time>2021-08-26T15:19:56Z</time>
      </trkpt>
      <trkpt lat="46.22036" lon="6.4834">
        <ele>1325.23046875</ele>
        <time>2021-08-26T15:19:57Z</time>
      </trkpt>
      <trkpt lat="46.22029" lon="6.4833">
        <ele>1322.671875</ele>
        <time>2021-08-26T15:20:00Z</time>
      </trkpt>
      <trkpt lat="46.22016" lon="6.48309">
        <ele>1318.6796875</ele>
        <time>2021-08-26T15:20:05Z</time>
      </trkpt>
      <trkpt lat="46.22011" lon="6.483">
        <ele>1317.125</ele>
        <time>2021-08-26T15:20:07Z</time>
      </trkpt>
      <trkpt lat="46.22006" lon="6.48297">
        <ele>1315.30078125</ele>
        <time>2021-08-26T15:20:15Z</time>
      </trkpt>
      <trkpt lat="46.22005" lon="6.4829">
        <ele>1314.75</ele>
        <time>2021-08-26T15:20:24Z</time>
      </trkpt>
      <trkpt lat="46.22003" lon="6.48285">
        <ele>1314.10546875</ele>
        <time>2021-08-26T15:20:25Z</time>
      </trkpt>
      <trkpt lat="46.22" lon="6.48279">
        <ele>1313.00390625</ele>
        <time>2021-08-26T15:20:26Z</time>
      </trkpt>
      <trkpt lat="46.21986" lon="6.48255">
        <ele>1308.93359375</ele>
        <time>2021-08-26T15:20:29Z</time>
      </trkpt>
      <trkpt lat="46.21976" lon="6.4824">
        <ele>1306.2265625</ele>
        <time>2021-08-26T15:20:31Z</time>
      </trkpt>
      <trkpt lat="46.2197" lon="6.48235">
        <ele>1304.67578125</ele>
        <time>2021-08-26T15:20:32Z</time>
      </trkpt>
      <trkpt lat="46.21963" lon="6.4823">
        <ele>1302.96484375</ele>
        <time>2021-08-26T15:20:33Z</time>
      </trkpt>
      <trkpt lat="46.21956" lon="6.48226">
        <ele>1301.28125</ele>
        <time>2021-08-26T15:20:34Z</time>
      </trkpt>
      <trkpt lat="46.21949" lon="6.48222">
        <ele>1299.58984375</ele>
        <time>2021-08-26T15:20:35Z</time>
      </trkpt>
      <trkpt lat="46.21942" lon="6.48221">
        <ele>1297.85546875</ele>
        <time>2021-08-26T15:20:36Z</time>
      </trkpt>
      <trkpt lat="46.21935" lon="6.4822">
        <ele>1296.0625</ele>
        <time>2021-08-26T15:20:37Z</time>
      </trkpt>
      <trkpt lat="46.2191" lon="6.48218">
        <ele>1290.703125</ele>
        <time>2021-08-26T15:20:41Z</time>
      </trkpt>
      <trkpt lat="46.21905" lon="6.48215">
        <ele>1289.8515625</ele>
        <time>2021-08-26T15:20:43Z</time>
      </trkpt>
      <trkpt lat="46.21903" lon="6.48175">
        <ele>1291.47265625</ele>
        <time>2021-08-26T15:20:51Z</time>
      </trkpt>
      <trkpt lat="46.21905" lon="6.48163">
        <ele>1291.76953125</ele>
        <time>2021-08-26T15:20:53Z</time>
      </trkpt>
      <trkpt lat="46.21903" lon="6.48159">
        <ele>1291.5390625</ele>
        <time>2021-08-26T15:20:54Z</time>
      </trkpt>
      <trkpt lat="46.219" lon="6.48156">
        <ele>1291.1796875</ele>
        <time>2021-08-26T15:20:55Z</time>
      </trkpt>
      <trkpt lat="46.21897" lon="6.48155">
        <ele>1290.76953125</ele>
        <time>2021-08-26T15:20:56Z</time>
      </trkpt>
      <trkpt lat="46.21893" lon="6.48156">
        <ele>1290.265625</ele>
        <time>2021-08-26T15:20:57Z</time>
      </trkpt>
      <trkpt lat="46.21889" lon="6.48158">
        <ele>1289.640625</ele>
        <time>2021-08-26T15:20:58Z</time>
      </trkpt>
      <trkpt lat="46.21885" lon="6.48161">
        <ele>1288.90234375</ele>
        <time>2021-08-26T15:20:59Z</time>
      </trkpt>
      <trkpt lat="46.2188" lon="6.48163">
        <ele>1288.1484375</ele>
        <time>2021-08-26T15:21:00Z</time>
      </trkpt>
      <trkpt lat="46.21862" lon="6.48168">
        <ele>1287.86328125</ele>
        <time>2021-08-26T15:21:03Z</time>
      </trkpt>
      <trkpt lat="46.21843" lon="6.48174">
        <ele>1287.25</ele>
        <time>2021-08-26T15:21:06Z</time>
      </trkpt>
      <trkpt lat="46.21812" lon="6.48192">
        <ele>1284.77734375</ele>
        <time>2021-08-26T15:21:15Z</time>
      </trkpt>
      <trkpt lat="46.21806" lon="6.48197">
        <ele>1284.06640625</ele>
        <time>2021-08-26T15:21:19Z</time>
      </trkpt>
      <trkpt lat="46.21802" lon="6.48197">
        <ele>1283.9609375</ele>
        <time>2021-08-26T15:21:21Z</time>
      </trkpt>
      <trkpt lat="46.21793" lon="6.482">
        <ele>1283.4140625</ele>
        <time>2021-08-26T15:21:25Z</time>
      </trkpt>
      <trkpt lat="46.21791" lon="6.48201">
        <ele>1283.16015625</ele>
        <time>2021-08-26T15:21:26Z</time>
      </trkpt>
      <trkpt lat="46.21762" lon="6.48199">
        <ele>1282.60546875</ele>
        <time>2021-08-26T15:21:38Z</time>
      </trkpt>
      <trkpt lat="46.21724" lon="6.4817">
        <ele>1292.92578125</ele>
        <time>2021-08-26T15:21:53Z</time>
      </trkpt>
      <trkpt lat="46.21716" lon="6.48168">
        <ele>1294.96484375</ele>
        <time>2021-08-26T15:21:56Z</time>
      </trkpt>
      <trkpt lat="46.21713" lon="6.4817">
        <ele>1294.91796875</ele>
        <time>2021-08-26T15:21:57Z</time>
      </trkpt>
      <trkpt lat="46.2171" lon="6.48172">
        <ele>1294.75390625</ele>
        <time>2021-08-26T15:21:58Z</time>
      </trkpt>
      <trkpt lat="46.21684" lon="6.48195">
        <ele>1291.40234375</ele>
        <time>2021-08-26T15:22:08Z</time>
      </trkpt>
      <trkpt lat="46.21671" lon="6.48196">
        <ele>1294.546875</ele>
        <time>2021-08-26T15:22:11Z</time>
      </trkpt>
      <trkpt lat="46.21667" lon="6.48197">
        <ele>1295.203125</ele>
        <time>2021-08-26T15:22:12Z</time>
      </trkpt>
      <trkpt lat="46.21662" lon="6.482">
        <ele>1295.26953125</ele>
        <time>2021-08-26T15:22:13Z</time>
      </trkpt>
      <trkpt lat="46.21658" lon="6.48203">
        <ele>1295.01953125</ele>
        <time>2021-08-26T15:22:14Z</time>
      </trkpt>
      <trkpt lat="46.21654" lon="6.48207">
        <ele>1294.47265625</ele>
        <time>2021-08-26T15:22:15Z</time>
      </trkpt>
      <trkpt lat="46.21645" lon="6.48216">
        <ele>1292.12109375</ele>
        <time>2021-08-26T15:22:17Z</time>
      </trkpt>
      <trkpt lat="46.2164" lon="6.48222">
        <ele>1290.1640625</ele>
        <time>2021-08-26T15:22:18Z</time>
      </trkpt>
      <trkpt lat="46.21619" lon="6.48249">
        <ele>1281.85546875</ele>
        <time>2021-08-26T15:22:22Z</time>
      </trkpt>
      <trkpt lat="46.21614" lon="6.48256">
        <ele>1280.6328125</ele>
        <time>2021-08-26T15:22:23Z</time>
      </trkpt>
      <trkpt lat="46.216" lon="6.48269">
        <ele>1278.0078125</ele>
        <time>2021-08-26T15:22:25Z</time>
      </trkpt>
      <trkpt lat="46.21579" lon="6.48289">
        <ele>1272.1875</ele>
        <time>2021-08-26T15:22:28Z</time>
      </trkpt>
      <trkpt lat="46.21556" lon="6.48306">
        <ele>1267.12890625</ele>
        <time>2021-08-26T15:22:31Z</time>
      </trkpt>
      <trkpt lat="46.2153" lon="6.48323">
        <ele>1261.609375</ele>
        <time>2021-08-26T15:22:34Z</time>
      </trkpt>
      <trkpt lat="46.21523" lon="6.48327">
        <ele>1260.1484375</ele>
        <time>2021-08-26T15:22:35Z</time>
      </trkpt>
      <trkpt lat="46.21504" lon="6.4833">
        <ele>1257.83203125</ele>
        <time>2021-08-26T15:22:37Z</time>
      </trkpt>
      <trkpt lat="46.21494" lon="6.48331">
        <ele>1257.05859375</ele>
        <time>2021-08-26T15:22:38Z</time>
      </trkpt>
      <trkpt lat="46.21476" lon="6.48331">
        <ele>1255.58984375</ele>
        <time>2021-08-26T15:22:40Z</time>
      </trkpt>
      <trkpt lat="46.21449" lon="6.4833">
        <ele>1255.05078125</ele>
        <time>2021-08-26T15:22:43Z</time>
      </trkpt>
      <trkpt lat="46.21432" lon="6.48331">
        <ele>1254.9609375</ele>
        <time>2021-08-26T15:22:45Z</time>
      </trkpt>
      <trkpt lat="46.21424" lon="6.48333">
        <ele>1254.76171875</ele>
        <time>2021-08-26T15:22:46Z</time>
      </trkpt>
      <trkpt lat="46.2136" lon="6.48352">
        <ele>1257.8125</ele>
        <time>2021-08-26T15:22:55Z</time>
      </trkpt>
      <trkpt lat="46.21343" lon="6.48356">
        <ele>1260.13671875</ele>
        <time>2021-08-26T15:23:01Z</time>
      </trkpt>
      <trkpt lat="46.21325" lon="6.48368">
        <ele>1259.95703125</ele>
        <time>2021-08-26T15:23:11Z</time>
      </trkpt>
      <trkpt lat="46.21321" lon="6.4837">
        <ele>1259.890625</ele>
        <time>2021-08-26T15:23:12Z</time>
      </trkpt>
      <trkpt lat="46.21318" lon="6.48372">
        <ele>1259.87109375</ele>
        <time>2021-08-26T15:23:13Z</time>
      </trkpt>
      <trkpt lat="46.21315" lon="6.48374">
        <ele>1259.734375</ele>
        <time>2021-08-26T15:23:14Z</time>
      </trkpt>
      <trkpt lat="46.21312" lon="6.48377">
        <ele>1259.58203125</ele>
        <time>2021-08-26T15:23:15Z</time>
      </trkpt>
      <trkpt lat="46.2131" lon="6.48379">
        <ele>1259.42578125</ele>
        <time>2021-08-26T15:23:16Z</time>
      </trkpt>
      <trkpt lat="46.21307" lon="6.4838">
        <ele>1259.5859375</ele>
        <time>2021-08-26T15:23:17Z</time>
      </trkpt>
      <trkpt lat="46.21304" lon="6.48381">
        <ele>1259.82421875</ele>
        <time>2021-08-26T15:23:18Z</time>
      </trkpt>
      <trkpt lat="46.21302" lon="6.48382">
        <ele>1260.17578125</ele>
        <time>2021-08-26T15:23:19Z</time>
      </trkpt>
      <trkpt lat="46.21299" lon="6.48382">
        <ele>1260.44140625</ele>
        <time>2021-08-26T15:23:20Z</time>
      </trkpt>
      <trkpt lat="46.21297" lon="6.48383">
        <ele>1260.6796875</ele>
        <time>2021-08-26T15:23:21Z</time>
      </trkpt>
      <trkpt lat="46.21294" lon="6.48384">
        <ele>1261.02734375</ele>
        <time>2021-08-26T15:23:22Z</time>
      </trkpt>
      <trkpt lat="46.21291" lon="6.48384">
        <ele>1261.34375</ele>
        <time>2021-08-26T15:23:23Z</time>
      </trkpt>
      <trkpt lat="46.21252" lon="6.48405">
        <ele>1261.12890625</ele>
        <time>2021-08-26T15:23:35Z</time>
      </trkpt>
      <trkpt lat="46.21248" lon="6.48406">
        <ele>1261.1640625</ele>
        <time>2021-08-26T15:23:36Z</time>
      </trkpt>
      <trkpt lat="46.21187" lon="6.48409">
        <ele>1263.17578125</ele>
        <time>2021-08-26T15:23:48Z</time>
      </trkpt>
      <trkpt lat="46.21148" lon="6.4841">
        <ele>1265.65625</ele>
        <time>2021-08-26T15:23:55Z</time>
      </trkpt>
      <trkpt lat="46.21142" lon="6.48411">
        <ele>1265.97265625</ele>
        <time>2021-08-26T15:23:56Z</time>
      </trkpt>
      <trkpt lat="46.21136" lon="6.48414">
        <ele>1266.20703125</ele>
        <time>2021-08-26T15:23:57Z</time>
      </trkpt>
      <trkpt lat="46.21106" lon="6.48431">
        <ele>1266.515625</ele>
        <time>2021-08-26T15:24:02Z</time>
      </trkpt>
      <trkpt lat="46.21102" lon="6.48435">
        <ele>1266.2890625</ele>
        <time>2021-08-26T15:24:03Z</time>
      </trkpt>
      <trkpt lat="46.21097" lon="6.48438">
        <ele>1266</ele>
        <time>2021-08-26T15:24:04Z</time>
      </trkpt>
      <trkpt lat="46.21088" lon="6.48441">
        <ele>1265.375</ele>
        <time>2021-08-26T15:24:06Z</time>
      </trkpt>
      <trkpt lat="46.21084" lon="6.48441">
        <ele>1265.41796875</ele>
        <time>2021-08-26T15:24:07Z</time>
      </trkpt>
      <trkpt lat="46.21059" lon="6.48439">
        <ele>1265.91015625</ele>
        <time>2021-08-26T15:24:17Z</time>
      </trkpt>
      <trkpt lat="46.21027" lon="6.48439">
        <ele>1266.5859375</ele>
        <time>2021-08-26T15:24:31Z</time>
      </trkpt>
      <trkpt lat="46.2099" lon="6.48427">
        <ele>1271.29296875</ele>
        <time>2021-08-26T15:24:46Z</time>
      </trkpt>
      <trkpt lat="46.20956" lon="6.48425">
        <ele>1277.19921875</ele>
        <time>2021-08-26T15:24:59Z</time>
      </trkpt>
      <trkpt lat="46.20931" lon="6.48422">
        <ele>1283.0390625</ele>
        <time>2021-08-26T15:25:09Z</time>
      </trkpt>
      <trkpt lat="46.20926" lon="6.48422">
        <ele>1284.27734375</ele>
        <time>2021-08-26T15:25:11Z</time>
      </trkpt>
      <trkpt lat="46.20918" lon="6.48424">
        <ele>1286.21484375</ele>
        <time>2021-08-26T15:25:16Z</time>
      </trkpt>
      <trkpt lat="46.20892" lon="6.48437">
        <ele>1288.91796875</ele>
        <time>2021-08-26T15:25:28Z</time>
      </trkpt>
      <trkpt lat="46.20871" lon="6.48448">
        <ele>1293.7109375</ele>
        <time>2021-08-26T15:25:42Z</time>
      </trkpt>
      <trkpt lat="46.20867" lon="6.48449">
        <ele>1294.6328125</ele>
        <time>2021-08-26T15:25:44Z</time>
      </trkpt>
      <trkpt lat="46.20864" lon="6.48451">
        <ele>1295.453125</ele>
        <time>2021-08-26T15:25:46Z</time>
      </trkpt>
      <trkpt lat="46.20851" lon="6.48468">
        <ele>1298.15234375</ele>
        <time>2021-08-26T15:25:58Z</time>
      </trkpt>
      <trkpt lat="46.20836" lon="6.48491">
        <ele>1302.19921875</ele>
        <time>2021-08-26T15:26:09Z</time>
      </trkpt>
      <trkpt lat="46.2081" lon="6.48516">
        <ele>1309.59375</ele>
        <time>2021-08-26T15:26:21Z</time>
      </trkpt>
      <trkpt lat="46.20778" lon="6.48528">
        <ele>1313.8828125</ele>
        <time>2021-08-26T15:26:35Z</time>
      </trkpt>
      <trkpt lat="46.20748" lon="6.48516">
        <ele>1313.94140625</ele>
        <time>2021-08-26T15:26:50Z</time>
      </trkpt>
      <trkpt lat="46.20721" lon="6.48494">
        <ele>1311.9765625</ele>
        <time>2021-08-26T15:27:05Z</time>
      </trkpt>
      <trkpt lat="46.20703" lon="6.48472">
        <ele>1309.04296875</ele>
        <time>2021-08-26T15:27:18Z</time>
      </trkpt>
      <trkpt lat="46.2069" lon="6.48454">
        <ele>1307.125</ele>
        <time>2021-08-26T15:27:30Z</time>
      </trkpt>
      <trkpt lat="46.20686" lon="6.48447">
        <ele>1306.74609375</ele>
        <time>2021-08-26T15:27:33Z</time>
      </trkpt>
      <trkpt lat="46.20685" lon="6.48445">
        <ele>1306.6484375</ele>
        <time>2021-08-26T15:27:34Z</time>
      </trkpt>
      <trkpt lat="46.20684" lon="6.48443">
        <ele>1306.5078125</ele>
        <time>2021-08-26T15:27:35Z</time>
      </trkpt>
      <trkpt lat="46.20683" lon="6.4844">
        <ele>1306.30859375</ele>
        <time>2021-08-26T15:27:36Z</time>
      </trkpt>
      <trkpt lat="46.20682" lon="6.48438">
        <ele>1306.109375</ele>
        <time>2021-08-26T15:27:37Z</time>
      </trkpt>
      <trkpt lat="46.2068" lon="6.48436">
        <ele>1305.93359375</ele>
        <time>2021-08-26T15:27:38Z</time>
      </trkpt>
      <trkpt lat="46.20679" lon="6.48434">
        <ele>1305.7734375</ele>
        <time>2021-08-26T15:27:39Z</time>
      </trkpt>
      <trkpt lat="46.20678" lon="6.48432">
        <ele>1305.62890625</ele>
        <time>2021-08-26T15:27:40Z</time>
      </trkpt>
      <trkpt lat="46.20677" lon="6.48429">
        <ele>1305.546875</ele>
        <time>2021-08-26T15:27:41Z</time>
      </trkpt>
      <trkpt lat="46.20676" lon="6.48427">
        <ele>1305.49609375</ele>
        <time>2021-08-26T15:27:42Z</time>
      </trkpt>
      <trkpt lat="46.20675" lon="6.48424">
        <ele>1305.53125</ele>
        <time>2021-08-26T15:27:43Z</time>
      </trkpt>
      <trkpt lat="46.20675" lon="6.48421">
        <ele>1305.55078125</ele>
        <time>2021-08-26T15:27:44Z</time>
      </trkpt>
      <trkpt lat="46.20675" lon="6.4838">
        <ele>1309.7265625</ele>
        <time>2021-08-26T15:27:56Z</time>
      </trkpt>
      <trkpt lat="46.20703" lon="6.48345">
        <ele>1317.53125</ele>
        <time>2021-08-26T15:28:09Z</time>
      </trkpt>
      <trkpt lat="46.20735" lon="6.48349">
        <ele>1320.5234375</ele>
        <time>2021-08-26T15:28:23Z</time>
      </trkpt>
      <trkpt lat="46.2074" lon="6.48349">
        <ele>1320.84375</ele>
        <time>2021-08-26T15:28:25Z</time>
      </trkpt>
      <trkpt lat="46.20769" lon="6.48354">
        <ele>1322.22265625</ele>
        <time>2021-08-26T15:28:39Z</time>
      </trkpt>
      <trkpt lat="46.20797" lon="6.48367">
        <ele>1321.05859375</ele>
        <time>2021-08-26T15:28:55Z</time>
      </trkpt>
      <trkpt lat="46.2081" lon="6.48368">
        <ele>1320.37890625</ele>
        <time>2021-08-26T15:29:02Z</time>
      </trkpt>
      <trkpt lat="46.20835" lon="6.48346">
        <ele>1325.015625</ele>
        <time>2021-08-26T15:29:16Z</time>
      </trkpt>
      <trkpt lat="46.20826" lon="6.48301">
        <ele>1334.3984375</ele>
        <time>2021-08-26T15:29:29Z</time>
      </trkpt>
      <trkpt lat="46.20807" lon="6.48277">
        <ele>1339.01171875</ele>
        <time>2021-08-26T15:29:42Z</time>
      </trkpt>
      <trkpt lat="46.20794" lon="6.48274">
        <ele>1340.4140625</ele>
        <time>2021-08-26T15:29:49Z</time>
      </trkpt>
      <trkpt lat="46.20761" lon="6.48272">
        <ele>1337.27734375</ele>
        <time>2021-08-26T15:30:05Z</time>
      </trkpt>
      <trkpt lat="46.20735" lon="6.48263">
        <ele>1336.1171875</ele>
        <time>2021-08-26T15:30:18Z</time>
      </trkpt>
      <trkpt lat="46.20715" lon="6.48233">
        <ele>1338.1875</ele>
        <time>2021-08-26T15:30:32Z</time>
      </trkpt>
      <trkpt lat="46.20703" lon="6.48188">
        <ele>1345.56640625</ele>
        <time>2021-08-26T15:30:49Z</time>
      </trkpt>
      <trkpt lat="46.20701" lon="6.48169">
        <ele>1348.91015625</ele>
        <time>2021-08-26T15:30:56Z</time>
      </trkpt>
      <trkpt lat="46.207" lon="6.48167">
        <ele>1349.0546875</ele>
        <time>2021-08-26T15:30:57Z</time>
      </trkpt>
      <trkpt lat="46.20686" lon="6.48129">
        <ele>1352.80078125</ele>
        <time>2021-08-26T15:31:11Z</time>
      </trkpt>
      <trkpt lat="46.20664" lon="6.48099">
        <ele>1354.3125</ele>
        <time>2021-08-26T15:31:26Z</time>
      </trkpt>
      <trkpt lat="46.20646" lon="6.48077">
        <ele>1354.796875</ele>
        <time>2021-08-26T15:31:38Z</time>
      </trkpt>
      <trkpt lat="46.20626" lon="6.48055">
        <ele>1355.1171875</ele>
        <time>2021-08-26T15:31:50Z</time>
      </trkpt>
      <trkpt lat="46.20624" lon="6.48053">
        <ele>1355.1015625</ele>
        <time>2021-08-26T15:31:51Z</time>
      </trkpt>
      <trkpt lat="46.20599" lon="6.48025">
        <ele>1356.8671875</ele>
        <time>2021-08-26T15:32:05Z</time>
      </trkpt>
      <trkpt lat="46.20587" lon="6.47989">
        <ele>1362.4765625</ele>
        <time>2021-08-26T15:32:19Z</time>
      </trkpt>
      <trkpt lat="46.20578" lon="6.47955">
        <ele>1369.5234375</ele>
        <time>2021-08-26T15:32:32Z</time>
      </trkpt>
      <trkpt lat="46.20574" lon="6.47944">
        <ele>1371.578125</ele>
        <time>2021-08-26T15:32:45Z</time>
      </trkpt>
      <trkpt lat="46.20571" lon="6.4794">
        <ele>1372.390625</ele>
        <time>2021-08-26T15:33:10Z</time>
      </trkpt>
      <trkpt lat="46.20571" lon="6.4794">
        <ele>1372.5625</ele>
        <time>2021-08-26T15:33:30Z</time>
      </trkpt>
      <trkpt lat="46.20571" lon="6.47937">
        <ele>1373.0546875</ele>
        <time>2021-08-26T15:33:39Z</time>
      </trkpt>
      <trkpt lat="46.2057" lon="6.47935">
        <ele>1373.44921875</ele>
        <time>2021-08-26T15:33:40Z</time>
      </trkpt>
      <trkpt lat="46.20569" lon="6.47932">
        <ele>1374</ele>
        <time>2021-08-26T15:33:41Z</time>
      </trkpt>
      <trkpt lat="46.20567" lon="6.47929">
        <ele>1374.61328125</ele>
        <time>2021-08-26T15:33:42Z</time>
      </trkpt>
      <trkpt lat="46.20564" lon="6.47926">
        <ele>1375.1640625</ele>
        <time>2021-08-26T15:33:43Z</time>
      </trkpt>
      <trkpt lat="46.20561" lon="6.47924">
        <ele>1375.4296875</ele>
        <time>2021-08-26T15:33:44Z</time>
      </trkpt>
      <trkpt lat="46.20558" lon="6.47923">
        <ele>1375.4921875</ele>
        <time>2021-08-26T15:33:45Z</time>
      </trkpt>
      <trkpt lat="46.20555" lon="6.47923">
        <ele>1375.36328125</ele>
        <time>2021-08-26T15:33:46Z</time>
      </trkpt>
      <trkpt lat="46.20552" lon="6.47924">
        <ele>1375.07421875</ele>
        <time>2021-08-26T15:33:47Z</time>
      </trkpt>
      <trkpt lat="46.20549" lon="6.47924">
        <ele>1374.7734375</ele>
        <time>2021-08-26T15:33:48Z</time>
      </trkpt>
      <trkpt lat="46.20495" lon="6.47931">
        <ele>1375.5546875</ele>
        <time>2021-08-26T15:34:03Z</time>
      </trkpt>
      <trkpt lat="46.20447" lon="6.47935">
        <ele>1379.94921875</ele>
        <time>2021-08-26T15:34:14Z</time>
      </trkpt>
      <trkpt lat="46.20442" lon="6.47937">
        <ele>1380.26953125</ele>
        <time>2021-08-26T15:34:15Z</time>
      </trkpt>
      <trkpt lat="46.20438" lon="6.4794">
        <ele>1380.3828125</ele>
        <time>2021-08-26T15:34:16Z</time>
      </trkpt>
      <trkpt lat="46.20434" lon="6.47943">
        <ele>1380.4296875</ele>
        <time>2021-08-26T15:34:17Z</time>
      </trkpt>
      <trkpt lat="46.2043" lon="6.47947">
        <ele>1380.265625</ele>
        <time>2021-08-26T15:34:18Z</time>
      </trkpt>
      <trkpt lat="46.20428" lon="6.47952">
        <ele>1380.0234375</ele>
        <time>2021-08-26T15:34:19Z</time>
      </trkpt>
      <trkpt lat="46.20426" lon="6.47955">
        <ele>1379.78515625</ele>
        <time>2021-08-26T15:34:20Z</time>
      </trkpt>
      <trkpt lat="46.20419" lon="6.47968">
        <ele>1379.0234375</ele>
        <time>2021-08-26T15:34:23Z</time>
      </trkpt>
      <trkpt lat="46.20416" lon="6.47972">
        <ele>1379.09765625</ele>
        <time>2021-08-26T15:34:24Z</time>
      </trkpt>
      <trkpt lat="46.20412" lon="6.47975">
        <ele>1379.34375</ele>
        <time>2021-08-26T15:34:25Z</time>
      </trkpt>
      <trkpt lat="46.20404" lon="6.47979">
        <ele>1379.76953125</ele>
        <time>2021-08-26T15:34:27Z</time>
      </trkpt>
      <trkpt lat="46.204" lon="6.4798">
        <ele>1379.79296875</ele>
        <time>2021-08-26T15:34:28Z</time>
      </trkpt>
      <trkpt lat="46.20396" lon="6.47981">
        <ele>1379.84375</ele>
        <time>2021-08-26T15:34:29Z</time>
      </trkpt>
      <trkpt lat="46.20392" lon="6.4798">
        <ele>1380.03515625</ele>
        <time>2021-08-26T15:34:30Z</time>
      </trkpt>
      <trkpt lat="46.20388" lon="6.47979">
        <ele>1380.27734375</ele>
        <time>2021-08-26T15:34:31Z</time>
      </trkpt>
      <trkpt lat="46.20366" lon="6.47969">
        <ele>1381.65625</ele>
        <time>2021-08-26T15:34:41Z</time>
      </trkpt>
      <trkpt lat="46.20364" lon="6.47967">
        <ele>1381.8828125</ele>
        <time>2021-08-26T15:34:54Z</time>
      </trkpt>
      <trkpt lat="46.20362" lon="6.4797">
        <ele>1381.47265625</ele>
        <time>2021-08-26T15:35:03Z</time>
      </trkpt>
      <trkpt lat="46.20358" lon="6.47978">
        <ele>1380.34375</ele>
        <time>2021-08-26T15:35:07Z</time>
      </trkpt>
      <trkpt lat="46.20357" lon="6.47979">
        <ele>1380.29296875</ele>
        <time>2021-08-26T15:35:08Z</time>
      </trkpt>
      <trkpt lat="46.20355" lon="6.47979">
        <ele>1380.234375</ele>
        <time>2021-08-26T15:35:21Z</time>
      </trkpt>
      <trkpt lat="46.20347" lon="6.47978">
        <ele>1380.12109375</ele>
        <time>2021-08-26T15:35:55Z</time>
      </trkpt>
      <trkpt lat="46.20324" lon="6.47984">
        <ele>1378.2578125</ele>
        <time>2021-08-26T15:36:05Z</time>
      </trkpt>
      <trkpt lat="46.20318" lon="6.47988">
        <ele>1377.1328125</ele>
        <time>2021-08-26T15:36:13Z</time>
      </trkpt>
      <trkpt lat="46.20318" lon="6.47986">
        <ele>1377.44140625</ele>
        <time>2021-08-26T15:36:14Z</time>
      </trkpt>
      <trkpt lat="46.20312" lon="6.47977">
        <ele>1378.89453125</ele>
        <time>2021-08-26T15:36:21Z</time>
      </trkpt>
      <trkpt lat="46.2031" lon="6.47979">
        <ele>1378.41796875</ele>
        <time>2021-08-26T15:36:30Z</time>
      </trkpt>
      <trkpt lat="46.20306" lon="6.47981">
        <ele>1377.82421875</ele>
        <time>2021-08-26T15:36:33Z</time>
      </trkpt>
      <trkpt lat="46.20304" lon="6.47982">
        <ele>1377.5859375</ele>
        <time>2021-08-26T15:36:34Z</time>
      </trkpt>
      <trkpt lat="46.20301" lon="6.47983">
        <ele>1377.3203125</ele>
        <time>2021-08-26T15:36:35Z</time>
      </trkpt>
      <trkpt lat="46.20271" lon="6.47986">
        <ele>1375.3125</ele>
        <time>2021-08-26T15:36:42Z</time>
      </trkpt>
      <trkpt lat="46.20241" lon="6.47998">
        <ele>1370.69921875</ele>
        <time>2021-08-26T15:36:48Z</time>
      </trkpt>
      <trkpt lat="46.20232" lon="6.48007">
        <ele>1368.7578125</ele>
        <time>2021-08-26T15:36:51Z</time>
      </trkpt>
      <trkpt lat="46.20224" lon="6.48014">
        <ele>1367.04296875</ele>
        <time>2021-08-26T15:36:54Z</time>
      </trkpt>
      <trkpt lat="46.20217" lon="6.48034">
        <ele>1364.0625</ele>
        <time>2021-08-26T15:36:59Z</time>
      </trkpt>
      <trkpt lat="46.20217" lon="6.48043">
        <ele>1363.03515625</ele>
        <time>2021-08-26T15:37:01Z</time>
      </trkpt>
      <trkpt lat="46.20218" lon="6.48048">
        <ele>1362.62890625</ele>
        <time>2021-08-26T15:37:02Z</time>
      </trkpt>
      <trkpt lat="46.2022" lon="6.48052">
        <ele>1362.1796875</ele>
        <time>2021-08-26T15:37:03Z</time>
      </trkpt>
      <trkpt lat="46.20221" lon="6.48057">
        <ele>1361.734375</ele>
        <time>2021-08-26T15:37:04Z</time>
      </trkpt>
      <trkpt lat="46.20223" lon="6.48061">
        <ele>1361.41796875</ele>
        <time>2021-08-26T15:37:05Z</time>
      </trkpt>
      <trkpt lat="46.20226" lon="6.48064">
        <ele>1361.17578125</ele>
        <time>2021-08-26T15:37:06Z</time>
      </trkpt>
      <trkpt lat="46.20245" lon="6.48082">
        <ele>1358.97265625</ele>
        <time>2021-08-26T15:37:13Z</time>
      </trkpt>
      <trkpt lat="46.20245" lon="6.48087">
        <ele>1358</ele>
        <time>2021-08-26T15:37:14Z</time>
      </trkpt>
      <trkpt lat="46.20244" lon="6.48093">
        <ele>1357.0546875</ele>
        <time>2021-08-26T15:37:15Z</time>
      </trkpt>
      <trkpt lat="46.20243" lon="6.48098">
        <ele>1356.234375</ele>
        <time>2021-08-26T15:37:16Z</time>
      </trkpt>
      <trkpt lat="46.20242" lon="6.48102">
        <ele>1355.43359375</ele>
        <time>2021-08-26T15:37:17Z</time>
      </trkpt>
      <trkpt lat="46.2024" lon="6.48108">
        <ele>1354.50390625</ele>
        <time>2021-08-26T15:37:18Z</time>
      </trkpt>
      <trkpt lat="46.20239" lon="6.48114">
        <ele>1353.4140625</ele>
        <time>2021-08-26T15:37:19Z</time>
      </trkpt>
      <trkpt lat="46.20238" lon="6.48121">
        <ele>1352.21875</ele>
        <time>2021-08-26T15:37:20Z</time>
      </trkpt>
      <trkpt lat="46.20238" lon="6.48128">
        <ele>1351.03125</ele>
        <time>2021-08-26T15:37:21Z</time>
      </trkpt>
      <trkpt lat="46.20236" lon="6.48134">
        <ele>1349.97265625</ele>
        <time>2021-08-26T15:37:22Z</time>
      </trkpt>
      <trkpt lat="46.20235" lon="6.4814">
        <ele>1349.13671875</ele>
        <time>2021-08-26T15:37:23Z</time>
      </trkpt>
      <trkpt lat="46.20233" lon="6.48145">
        <ele>1348.453125</ele>
        <time>2021-08-26T15:37:24Z</time>
      </trkpt>
      <trkpt lat="46.2023" lon="6.48148">
        <ele>1347.984375</ele>
        <time>2021-08-26T15:37:25Z</time>
      </trkpt>
      <trkpt lat="46.20227" lon="6.4815">
        <ele>1347.72265625</ele>
        <time>2021-08-26T15:37:26Z</time>
      </trkpt>
      <trkpt lat="46.20222" lon="6.48152">
        <ele>1347.5</ele>
        <time>2021-08-26T15:37:27Z</time>
      </trkpt>
      <trkpt lat="46.202" lon="6.4816">
        <ele>1346.02734375</ele>
        <time>2021-08-26T15:37:31Z</time>
      </trkpt>
      <trkpt lat="46.20196" lon="6.48164">
        <ele>1345.58203125</ele>
        <time>2021-08-26T15:37:32Z</time>
      </trkpt>
      <trkpt lat="46.20193" lon="6.4817">
        <ele>1344.9296875</ele>
        <time>2021-08-26T15:37:33Z</time>
      </trkpt>
      <trkpt lat="46.20191" lon="6.48177">
        <ele>1344.109375</ele>
        <time>2021-08-26T15:37:34Z</time>
      </trkpt>
      <trkpt lat="46.20188" lon="6.48185">
        <ele>1343.31640625</ele>
        <time>2021-08-26T15:37:35Z</time>
      </trkpt>
      <trkpt lat="46.20185" lon="6.48192">
        <ele>1342.640625</ele>
        <time>2021-08-26T15:37:36Z</time>
      </trkpt>
      <trkpt lat="46.20182" lon="6.48198">
        <ele>1341.71484375</ele>
        <time>2021-08-26T15:37:37Z</time>
      </trkpt>
      <trkpt lat="46.20179" lon="6.48205">
        <ele>1340.953125</ele>
        <time>2021-08-26T15:37:38Z</time>
      </trkpt>
      <trkpt lat="46.20176" lon="6.4821">
        <ele>1340.41796875</ele>
        <time>2021-08-26T15:37:39Z</time>
      </trkpt>
      <trkpt lat="46.20173" lon="6.48214">
        <ele>1340.109375</ele>
        <time>2021-08-26T15:37:40Z</time>
      </trkpt>
      <trkpt lat="46.2017" lon="6.48218">
        <ele>1339.9765625</ele>
        <time>2021-08-26T15:37:41Z</time>
      </trkpt>
      <trkpt lat="46.20166" lon="6.48222">
        <ele>1340.01171875</ele>
        <time>2021-08-26T15:37:42Z</time>
      </trkpt>
      <trkpt lat="46.20153" lon="6.48233">
        <ele>1340.82421875</ele>
        <time>2021-08-26T15:37:45Z</time>
      </trkpt>
      <trkpt lat="46.20145" lon="6.48241">
        <ele>1341.71875</ele>
        <time>2021-08-26T15:37:47Z</time>
      </trkpt>
      <trkpt lat="46.20141" lon="6.48245">
        <ele>1342.27734375</ele>
        <time>2021-08-26T15:37:48Z</time>
      </trkpt>
      <trkpt lat="46.20137" lon="6.48249">
        <ele>1342.91015625</ele>
        <time>2021-08-26T15:37:49Z</time>
      </trkpt>
      <trkpt lat="46.20134" lon="6.48251">
        <ele>1343.39453125</ele>
        <time>2021-08-26T15:37:50Z</time>
      </trkpt>
      <trkpt lat="46.2013" lon="6.4825">
        <ele>1343.65234375</ele>
        <time>2021-08-26T15:37:51Z</time>
      </trkpt>
      <trkpt lat="46.20125" lon="6.48249">
        <ele>1343.671875</ele>
        <time>2021-08-26T15:37:52Z</time>
      </trkpt>
      <trkpt lat="46.2012" lon="6.48246">
        <ele>1343.59375</ele>
        <time>2021-08-26T15:37:53Z</time>
      </trkpt>
      <trkpt lat="46.20093" lon="6.48228">
        <ele>1341.7421875</ele>
        <time>2021-08-26T15:37:58Z</time>
      </trkpt>
      <trkpt lat="46.20088" lon="6.48224">
        <ele>1340.98046875</ele>
        <time>2021-08-26T15:37:59Z</time>
      </trkpt>
      <trkpt lat="46.20083" lon="6.48219">
        <ele>1339.9765625</ele>
        <time>2021-08-26T15:38:00Z</time>
      </trkpt>
      <trkpt lat="46.20079" lon="6.48214">
        <ele>1338.79296875</ele>
        <time>2021-08-26T15:38:01Z</time>
      </trkpt>
      <trkpt lat="46.20074" lon="6.48209">
        <ele>1337.70703125</ele>
        <time>2021-08-26T15:38:02Z</time>
      </trkpt>
      <trkpt lat="46.20069" lon="6.48204">
        <ele>1336.73828125</ele>
        <time>2021-08-26T15:38:03Z</time>
      </trkpt>
      <trkpt lat="46.20065" lon="6.482">
        <ele>1335.80859375</ele>
        <time>2021-08-26T15:38:04Z</time>
      </trkpt>
      <trkpt lat="46.20061" lon="6.48196">
        <ele>1335.02734375</ele>
        <time>2021-08-26T15:38:05Z</time>
      </trkpt>
      <trkpt lat="46.20058" lon="6.48192">
        <ele>1334.1015625</ele>
        <time>2021-08-26T15:38:06Z</time>
      </trkpt>
      <trkpt lat="46.20054" lon="6.48188">
        <ele>1333.20703125</ele>
        <time>2021-08-26T15:38:07Z</time>
      </trkpt>
      <trkpt lat="46.20045" lon="6.4818">
        <ele>1332.03125</ele>
        <time>2021-08-26T15:38:09Z</time>
      </trkpt>
      <trkpt lat="46.20022" lon="6.48164">
        <ele>1328.8359375</ele>
        <time>2021-08-26T15:38:14Z</time>
      </trkpt>
      <trkpt lat="46.20007" lon="6.4815">
        <ele>1326.22265625</ele>
        <time>2021-08-26T15:38:17Z</time>
      </trkpt>
      <trkpt lat="46.19988" lon="6.48136">
        <ele>1322.48828125</ele>
        <time>2021-08-26T15:38:20Z</time>
      </trkpt>
      <trkpt lat="46.19982" lon="6.48134">
        <ele>1321.8203125</ele>
        <time>2021-08-26T15:38:21Z</time>
      </trkpt>
      <trkpt lat="46.19976" lon="6.48132">
        <ele>1321.30078125</ele>
        <time>2021-08-26T15:38:22Z</time>
      </trkpt>
      <trkpt lat="46.1997" lon="6.48128">
        <ele>1320.59375</ele>
        <time>2021-08-26T15:38:23Z</time>
      </trkpt>
      <trkpt lat="46.19965" lon="6.48122">
        <ele>1319.5546875</ele>
        <time>2021-08-26T15:38:24Z</time>
      </trkpt>
      <trkpt lat="46.19961" lon="6.48115">
        <ele>1318.37109375</ele>
        <time>2021-08-26T15:38:25Z</time>
      </trkpt>
      <trkpt lat="46.19958" lon="6.48107">
        <ele>1317.11328125</ele>
        <time>2021-08-26T15:38:26Z</time>
      </trkpt>
      <trkpt lat="46.19955" lon="6.48099">
        <ele>1316.15625</ele>
        <time>2021-08-26T15:38:27Z</time>
      </trkpt>
      <trkpt lat="46.19951" lon="6.48092">
        <ele>1315.31640625</ele>
        <time>2021-08-26T15:38:28Z</time>
      </trkpt>
      <trkpt lat="46.19948" lon="6.48083">
        <ele>1314.4921875</ele>
        <time>2021-08-26T15:38:29Z</time>
      </trkpt>
      <trkpt lat="46.19935" lon="6.48052">
        <ele>1312.15234375</ele>
        <time>2021-08-26T15:38:33Z</time>
      </trkpt>
      <trkpt lat="46.19932" lon="6.48043">
        <ele>1311.53515625</ele>
        <time>2021-08-26T15:38:34Z</time>
      </trkpt>
      <trkpt lat="46.19928" lon="6.48024">
        <ele>1310.17578125</ele>
        <time>2021-08-26T15:38:36Z</time>
      </trkpt>
      <trkpt lat="46.19918" lon="6.47989">
        <ele>1308.0703125</ele>
        <time>2021-08-26T15:38:40Z</time>
      </trkpt>
      <trkpt lat="46.19906" lon="6.47952">
        <ele>1305.40234375</ele>
        <time>2021-08-26T15:38:47Z</time>
      </trkpt>
      <trkpt lat="46.19905" lon="6.47951">
        <ele>1305.25390625</ele>
        <time>2021-08-26T15:38:59Z</time>
      </trkpt>
      <trkpt lat="46.19903" lon="6.47949">
        <ele>1305.109375</ele>
        <time>2021-08-26T15:39:00Z</time>
      </trkpt>
      <trkpt lat="46.19902" lon="6.47948">
        <ele>1304.9296875</ele>
        <time>2021-08-26T15:39:01Z</time>
      </trkpt>
      <trkpt lat="46.19899" lon="6.47946">
        <ele>1304.69921875</ele>
        <time>2021-08-26T15:39:02Z</time>
      </trkpt>
      <trkpt lat="46.19897" lon="6.47944">
        <ele>1304.44140625</ele>
        <time>2021-08-26T15:39:03Z</time>
      </trkpt>
      <trkpt lat="46.19894" lon="6.47944">
        <ele>1304.1875</ele>
        <time>2021-08-26T15:39:04Z</time>
      </trkpt>
      <trkpt lat="46.1989" lon="6.47944">
        <ele>1303.953125</ele>
        <time>2021-08-26T15:39:05Z</time>
      </trkpt>
      <trkpt lat="46.19886" lon="6.47946">
        <ele>1303.76953125</ele>
        <time>2021-08-26T15:39:06Z</time>
      </trkpt>
      <trkpt lat="46.19883" lon="6.47949">
        <ele>1303.6015625</ele>
        <time>2021-08-26T15:39:07Z</time>
      </trkpt>
      <trkpt lat="46.19878" lon="6.47953">
        <ele>1303.359375</ele>
        <time>2021-08-26T15:39:08Z</time>
      </trkpt>
      <trkpt lat="46.19872" lon="6.47955">
        <ele>1302.98828125</ele>
        <time>2021-08-26T15:39:09Z</time>
      </trkpt>
      <trkpt lat="46.19854" lon="6.47961">
        <ele>1301.75</ele>
        <time>2021-08-26T15:39:12Z</time>
      </trkpt>
      <trkpt lat="46.1984" lon="6.47963">
        <ele>1301.34765625</ele>
        <time>2021-08-26T15:39:14Z</time>
      </trkpt>
      <trkpt lat="46.19833" lon="6.47965">
        <ele>1301.19921875</ele>
        <time>2021-08-26T15:39:15Z</time>
      </trkpt>
      <trkpt lat="46.19826" lon="6.47967">
        <ele>1301.171875</ele>
        <time>2021-08-26T15:39:16Z</time>
      </trkpt>
      <trkpt lat="46.19818" lon="6.47969">
        <ele>1301.1640625</ele>
        <time>2021-08-26T15:39:17Z</time>
      </trkpt>
      <trkpt lat="46.19802" lon="6.47966">
        <ele>1300.1953125</ele>
        <time>2021-08-26T15:39:19Z</time>
      </trkpt>
      <trkpt lat="46.19778" lon="6.47962">
        <ele>1297.7421875</ele>
        <time>2021-08-26T15:39:23Z</time>
      </trkpt>
      <trkpt lat="46.19761" lon="6.47968">
        <ele>1296.28515625</ele>
        <time>2021-08-26T15:39:27Z</time>
      </trkpt>
      <trkpt lat="46.19751" lon="6.47974">
        <ele>1295.484375</ele>
        <time>2021-08-26T15:39:29Z</time>
      </trkpt>
      <trkpt lat="46.19741" lon="6.47982">
        <ele>1294.55859375</ele>
        <time>2021-08-26T15:39:31Z</time>
      </trkpt>
      <trkpt lat="46.1973" lon="6.47991">
        <ele>1293.3359375</ele>
        <time>2021-08-26T15:39:33Z</time>
      </trkpt>
      <trkpt lat="46.19703" lon="6.48027">
        <ele>1291.24609375</ele>
        <time>2021-08-26T15:39:39Z</time>
      </trkpt>
      <trkpt lat="46.19696" lon="6.4805">
        <ele>1290.734375</ele>
        <time>2021-08-26T15:39:42Z</time>
      </trkpt>
      <trkpt lat="46.19686" lon="6.48071">
        <ele>1288.546875</ele>
        <time>2021-08-26T15:39:45Z</time>
      </trkpt>
      <trkpt lat="46.19681" lon="6.48079">
        <ele>1287.44921875</ele>
        <time>2021-08-26T15:39:46Z</time>
      </trkpt>
      <trkpt lat="46.19671" lon="6.48092">
        <ele>1285.03515625</ele>
        <time>2021-08-26T15:39:48Z</time>
      </trkpt>
      <trkpt lat="46.19657" lon="6.48121">
        <ele>1280.90234375</ele>
        <time>2021-08-26T15:39:56Z</time>
      </trkpt>
      <trkpt lat="46.1965" lon="6.48137">
        <ele>1279.98046875</ele>
        <time>2021-08-26T15:40:00Z</time>
      </trkpt>
      <trkpt lat="46.19638" lon="6.48146">
        <ele>1279.21484375</ele>
        <time>2021-08-26T15:40:05Z</time>
      </trkpt>
      <trkpt lat="46.1963" lon="6.48156">
        <ele>1277.69140625</ele>
        <time>2021-08-26T15:40:09Z</time>
      </trkpt>
      <trkpt lat="46.1963" lon="6.48169">
        <ele>1275.77734375</ele>
        <time>2021-08-26T15:40:11Z</time>
      </trkpt>
      <trkpt lat="46.19629" lon="6.48179">
        <ele>1274.40625</ele>
        <time>2021-08-26T15:40:12Z</time>
      </trkpt>
      <trkpt lat="46.19626" lon="6.48195">
        <ele>1272.1015625</ele>
        <time>2021-08-26T15:40:14Z</time>
      </trkpt>
      <trkpt lat="46.19615" lon="6.48225">
        <ele>1267.234375</ele>
        <time>2021-08-26T15:40:18Z</time>
      </trkpt>
      <trkpt lat="46.19609" lon="6.48233">
        <ele>1265.01171875</ele>
        <time>2021-08-26T15:40:20Z</time>
      </trkpt>
      <trkpt lat="46.19606" lon="6.48237">
        <ele>1263.9296875</ele>
        <time>2021-08-26T15:40:21Z</time>
      </trkpt>
      <trkpt lat="46.19597" lon="6.48264">
        <ele>1259.29296875</ele>
        <time>2021-08-26T15:40:26Z</time>
      </trkpt>
      <trkpt lat="46.19596" lon="6.48269">
        <ele>1258.56640625</ele>
        <time>2021-08-26T15:40:27Z</time>
      </trkpt>
      <trkpt lat="46.19586" lon="6.48285">
        <ele>1254.64453125</ele>
        <time>2021-08-26T15:40:32Z</time>
      </trkpt>
      <trkpt lat="46.19572" lon="6.48306">
        <ele>1248.8671875</ele>
        <time>2021-08-26T15:40:37Z</time>
      </trkpt>
      <trkpt lat="46.19567" lon="6.48311">
        <ele>1247.78125</ele>
        <time>2021-08-26T15:40:39Z</time>
      </trkpt>
      <trkpt lat="46.19553" lon="6.48328">
        <ele>1243.62890625</ele>
        <time>2021-08-26T15:40:43Z</time>
      </trkpt>
      <trkpt lat="46.19551" lon="6.48332">
        <ele>1242.55859375</ele>
        <time>2021-08-26T15:40:44Z</time>
      </trkpt>
      <trkpt lat="46.19545" lon="6.48344">
        <ele>1239.234375</ele>
        <time>2021-08-26T15:40:48Z</time>
      </trkpt>
      <trkpt lat="46.19535" lon="6.4836">
        <ele>1234.57421875</ele>
        <time>2021-08-26T15:40:53Z</time>
      </trkpt>
      <trkpt lat="46.19528" lon="6.48377">
        <ele>1229.41015625</ele>
        <time>2021-08-26T15:40:56Z</time>
      </trkpt>
      <trkpt lat="46.19527" lon="6.48383">
        <ele>1227.64453125</ele>
        <time>2021-08-26T15:40:57Z</time>
      </trkpt>
      <trkpt lat="46.19523" lon="6.4839">
        <ele>1225.51953125</ele>
        <time>2021-08-26T15:40:59Z</time>
      </trkpt>
      <trkpt lat="46.19519" lon="6.48401">
        <ele>1222.08203125</ele>
        <time>2021-08-26T15:41:08Z</time>
      </trkpt>
      <trkpt lat="46.19513" lon="6.48418">
        <ele>1219.4453125</ele>
        <time>2021-08-26T15:41:12Z</time>
      </trkpt>
      <trkpt lat="46.19508" lon="6.48435">
        <ele>1216.69921875</ele>
        <time>2021-08-26T15:41:14Z</time>
      </trkpt>
      <trkpt lat="46.19505" lon="6.48466">
        <ele>1211.36328125</ele>
        <time>2021-08-26T15:41:18Z</time>
      </trkpt>
      <trkpt lat="46.19503" lon="6.48488">
        <ele>1207.26953125</ele>
        <time>2021-08-26T15:41:22Z</time>
      </trkpt>
      <trkpt lat="46.19506" lon="6.48514">
        <ele>1201.44140625</ele>
        <time>2021-08-26T15:41:27Z</time>
      </trkpt>
      <trkpt lat="46.19508" lon="6.4852">
        <ele>1200.1640625</ele>
        <time>2021-08-26T15:41:28Z</time>
      </trkpt>
      <trkpt lat="46.19517" lon="6.48536">
        <ele>1194.84375</ele>
        <time>2021-08-26T15:41:31Z</time>
      </trkpt>
      <trkpt lat="46.19521" lon="6.4855">
        <ele>1191.421875</ele>
        <time>2021-08-26T15:41:33Z</time>
      </trkpt>
      <trkpt lat="46.19523" lon="6.48557">
        <ele>1190.296875</ele>
        <time>2021-08-26T15:41:35Z</time>
      </trkpt>
      <trkpt lat="46.19524" lon="6.48561">
        <ele>1189.40625</ele>
        <time>2021-08-26T15:41:44Z</time>
      </trkpt>
      <trkpt lat="46.19537" lon="6.48591">
        <ele>1185.27734375</ele>
        <time>2021-08-26T15:41:52Z</time>
      </trkpt>
      <trkpt lat="46.19539" lon="6.48596">
        <ele>1184.6015625</ele>
        <time>2021-08-26T15:41:53Z</time>
      </trkpt>
      <trkpt lat="46.19541" lon="6.48601">
        <ele>1183.96484375</ele>
        <time>2021-08-26T15:41:54Z</time>
      </trkpt>
      <trkpt lat="46.19548" lon="6.48622">
        <ele>1179.71875</ele>
        <time>2021-08-26T15:42:04Z</time>
      </trkpt>
      <trkpt lat="46.19549" lon="6.48625">
        <ele>1179.0390625</ele>
        <time>2021-08-26T15:42:09Z</time>
      </trkpt>
      <trkpt lat="46.19552" lon="6.48644">
        <ele>1173.35546875</ele>
        <time>2021-08-26T15:42:14Z</time>
      </trkpt>
      <trkpt lat="46.19557" lon="6.48661">
        <ele>1168.73828125</ele>
        <time>2021-08-26T15:42:18Z</time>
      </trkpt>
      <trkpt lat="46.19557" lon="6.4867">
        <ele>1166.15625</ele>
        <time>2021-08-26T15:42:22Z</time>
      </trkpt>
      <trkpt lat="46.19557" lon="6.48671">
        <ele>1165.66015625</ele>
        <time>2021-08-26T15:42:23Z</time>
      </trkpt>
      <trkpt lat="46.19548" lon="6.48668">
        <ele>1162.19921875</ele>
        <time>2021-08-26T15:42:28Z</time>
      </trkpt>
      <trkpt lat="46.19546" lon="6.4867">
        <ele>1160.53125</ele>
        <time>2021-08-26T15:42:41Z</time>
      </trkpt>
      <trkpt lat="46.19546" lon="6.48673">
        <ele>1159.75390625</ele>
        <time>2021-08-26T15:42:44Z</time>
      </trkpt>
      <trkpt lat="46.19545" lon="6.48678">
        <ele>1157.73828125</ele>
        <time>2021-08-26T15:42:47Z</time>
      </trkpt>
      <trkpt lat="46.19534" lon="6.48675">
        <ele>1153.6875</ele>
        <time>2021-08-26T15:42:52Z</time>
      </trkpt>
      <trkpt lat="46.19527" lon="6.48673">
        <ele>1151.359375</ele>
        <time>2021-08-26T15:42:56Z</time>
      </trkpt>
      <trkpt lat="46.19527" lon="6.48672">
        <ele>1151.3203125</ele>
        <time>2021-08-26T15:42:57Z</time>
      </trkpt>
      <trkpt lat="46.1952" lon="6.4867">
        <ele>1148.8984375</ele>
        <time>2021-08-26T15:43:02Z</time>
      </trkpt>
      <trkpt lat="46.19511" lon="6.48668">
        <ele>1149.0390625</ele>
        <time>2021-08-26T15:43:05Z</time>
      </trkpt>
      <trkpt lat="46.19501" lon="6.48669">
        <ele>1148.3359375</ele>
        <time>2021-08-26T15:43:11Z</time>
      </trkpt>
      <trkpt lat="46.19496" lon="6.48671">
        <ele>1147.4921875</ele>
        <time>2021-08-26T15:43:23Z</time>
      </trkpt>
      <trkpt lat="46.19486" lon="6.48678">
        <ele>1144.39453125</ele>
        <time>2021-08-26T15:43:31Z</time>
      </trkpt>
      <trkpt lat="46.19478" lon="6.48693">
        <ele>1138.17578125</ele>
        <time>2021-08-26T15:43:34Z</time>
      </trkpt>
      <trkpt lat="46.19472" lon="6.48702">
        <ele>1134.35546875</ele>
        <time>2021-08-26T15:43:36Z</time>
      </trkpt>
      <trkpt lat="46.19471" lon="6.48705">
        <ele>1132.9765625</ele>
        <time>2021-08-26T15:43:37Z</time>
      </trkpt>
      <trkpt lat="46.19471" lon="6.48718">
        <ele>1127.56640625</ele>
        <time>2021-08-26T15:43:42Z</time>
      </trkpt>
      <trkpt lat="46.19471" lon="6.48721">
        <ele>1126.5625</ele>
        <time>2021-08-26T15:43:45Z</time>
      </trkpt>
      <trkpt lat="46.1947" lon="6.48731">
        <ele>1122.64453125</ele>
        <time>2021-08-26T15:43:55Z</time>
      </trkpt>
      <trkpt lat="46.1947" lon="6.48732">
        <ele>1122.22265625</ele>
        <time>2021-08-26T15:43:58Z</time>
      </trkpt>
      <trkpt lat="46.19452" lon="6.48733">
        <ele>1119.73046875</ele>
        <time>2021-08-26T15:44:03Z</time>
      </trkpt>
      <trkpt lat="46.19447" lon="6.48732">
        <ele>1119.91796875</ele>
        <time>2021-08-26T15:44:04Z</time>
      </trkpt>
      <trkpt lat="46.19442" lon="6.48729">
        <ele>1120.3984375</ele>
        <time>2021-08-26T15:44:05Z</time>
      </trkpt>
      <trkpt lat="46.19431" lon="6.48725">
        <ele>1121.01953125</ele>
        <time>2021-08-26T15:44:07Z</time>
      </trkpt>
      <trkpt lat="46.19427" lon="6.48723">
        <ele>1121.13671875</ele>
        <time>2021-08-26T15:44:08Z</time>
      </trkpt>
      <trkpt lat="46.19423" lon="6.48721">
        <ele>1121.2734375</ele>
        <time>2021-08-26T15:44:09Z</time>
      </trkpt>
      <trkpt lat="46.19414" lon="6.48717">
        <ele>1121.5703125</ele>
        <time>2021-08-26T15:44:11Z</time>
      </trkpt>
      <trkpt lat="46.19404" lon="6.48715">
        <ele>1120.796875</ele>
        <time>2021-08-26T15:44:13Z</time>
      </trkpt>
      <trkpt lat="46.19385" lon="6.48713">
        <ele>1118.34765625</ele>
        <time>2021-08-26T15:44:16Z</time>
      </trkpt>
      <trkpt lat="46.19379" lon="6.48713">
        <ele>1117.01953125</ele>
        <time>2021-08-26T15:44:17Z</time>
      </trkpt>
      <trkpt lat="46.19364" lon="6.48715">
        <ele>1114.30859375</ele>
        <time>2021-08-26T15:44:19Z</time>
      </trkpt>
      <trkpt lat="46.19357" lon="6.48714">
        <ele>1113.44140625</ele>
        <time>2021-08-26T15:44:20Z</time>
      </trkpt>
      <trkpt lat="46.19345" lon="6.48712">
        <ele>1112.58984375</ele>
        <time>2021-08-26T15:44:22Z</time>
      </trkpt>
      <trkpt lat="46.19313" lon="6.48696">
        <ele>1112.98828125</ele>
        <time>2021-08-26T15:44:28Z</time>
      </trkpt>
      <trkpt lat="46.19265" lon="6.48674">
        <ele>1112.41796875</ele>
        <time>2021-08-26T15:44:39Z</time>
      </trkpt>
      <trkpt lat="46.19262" lon="6.48672">
        <ele>1112.76171875</ele>
        <time>2021-08-26T15:44:40Z</time>
      </trkpt>
      <trkpt lat="46.19238" lon="6.48658">
        <ele>1113.56640625</ele>
        <time>2021-08-26T15:44:48Z</time>
      </trkpt>
      <trkpt lat="46.19233" lon="6.48656">
        <ele>1113.7578125</ele>
        <time>2021-08-26T15:44:49Z</time>
      </trkpt>
      <trkpt lat="46.19212" lon="6.48647">
        <ele>1113.6953125</ele>
        <time>2021-08-26T15:44:57Z</time>
      </trkpt>
      <trkpt lat="46.1921" lon="6.48646">
        <ele>1113.4921875</ele>
        <time>2021-08-26T15:45:13Z</time>
      </trkpt>
      <trkpt lat="46.19206" lon="6.48647">
        <ele>1112.15234375</ele>
        <time>2021-08-26T15:45:36Z</time>
      </trkpt>
      <trkpt lat="46.19196" lon="6.48651">
        <ele>1109.0390625</ele>
        <time>2021-08-26T15:46:12Z</time>
      </trkpt>
      <trkpt lat="46.19195" lon="6.4865">
        <ele>1109.06640625</ele>
        <time>2021-08-26T15:46:13Z</time>
      </trkpt>
      <trkpt lat="46.19193" lon="6.48648">
        <ele>1109.390625</ele>
        <time>2021-08-26T15:46:15Z</time>
      </trkpt>
      <trkpt lat="46.19192" lon="6.48647">
        <ele>1109.58984375</ele>
        <time>2021-08-26T15:46:16Z</time>
      </trkpt>
      <trkpt lat="46.1919" lon="6.48646">
        <ele>1109.6171875</ele>
        <time>2021-08-26T15:46:17Z</time>
      </trkpt>
      <trkpt lat="46.19187" lon="6.48644">
        <ele>1109.57421875</ele>
        <time>2021-08-26T15:46:18Z</time>
      </trkpt>
      <trkpt lat="46.19183" lon="6.48642">
        <ele>1109.4765625</ele>
        <time>2021-08-26T15:46:19Z</time>
      </trkpt>
      <trkpt lat="46.19164" lon="6.48634">
        <ele>1109.484375</ele>
        <time>2021-08-26T15:46:23Z</time>
      </trkpt>
      <trkpt lat="46.19152" lon="6.48628">
        <ele>1109.1640625</ele>
        <time>2021-08-26T15:46:26Z</time>
      </trkpt>
      <trkpt lat="46.1913" lon="6.48626">
        <ele>1105.81640625</ele>
        <time>2021-08-26T15:46:30Z</time>
      </trkpt>
      <trkpt lat="46.19124" lon="6.48627">
        <ele>1104.51171875</ele>
        <time>2021-08-26T15:46:31Z</time>
      </trkpt>
      <trkpt lat="46.19115" lon="6.4863">
        <ele>1102.078125</ele>
        <time>2021-08-26T15:46:33Z</time>
      </trkpt>
      <trkpt lat="46.1911" lon="6.48629">
        <ele>1101.49609375</ele>
        <time>2021-08-26T15:46:34Z</time>
      </trkpt>
      <trkpt lat="46.19096" lon="6.48624">
        <ele>1100.69140625</ele>
        <time>2021-08-26T15:46:37Z</time>
      </trkpt>
      <trkpt lat="46.19086" lon="6.4862">
        <ele>1100.625</ele>
        <time>2021-08-26T15:46:39Z</time>
      </trkpt>
      <trkpt lat="46.19052" lon="6.48602">
        <ele>1100.625</ele>
        <time>2021-08-26T15:46:46Z</time>
      </trkpt>
      <trkpt lat="46.19046" lon="6.48598">
        <ele>1100.84375</ele>
        <time>2021-08-26T15:46:47Z</time>
      </trkpt>
      <trkpt lat="46.1903" lon="6.48588">
        <ele>1100.96484375</ele>
        <time>2021-08-26T15:46:50Z</time>
      </trkpt>
      <trkpt lat="46.18998" lon="6.48563">
        <ele>1103.109375</ele>
        <time>2021-08-26T15:46:59Z</time>
      </trkpt>
      <trkpt lat="46.18992" lon="6.48553">
        <ele>1105.02734375</ele>
        <time>2021-08-26T15:47:05Z</time>
      </trkpt>
      <trkpt lat="46.18987" lon="6.48546">
        <ele>1106.44140625</ele>
        <time>2021-08-26T15:47:09Z</time>
      </trkpt>
      <trkpt lat="46.18983" lon="6.48544">
        <ele>1106.5</ele>
        <time>2021-08-26T15:47:11Z</time>
      </trkpt>
      <trkpt lat="46.18978" lon="6.48539">
        <ele>1107.21484375</ele>
        <time>2021-08-26T15:47:15Z</time>
      </trkpt>
      <trkpt lat="46.18976" lon="6.48537">
        <ele>1107.359375</ele>
        <time>2021-08-26T15:47:16Z</time>
      </trkpt>
      <trkpt lat="46.18948" lon="6.48532">
        <ele>1103.6796875</ele>
        <time>2021-08-26T15:47:26Z</time>
      </trkpt>
      <trkpt lat="46.18926" lon="6.48526">
        <ele>1100.796875</ele>
        <time>2021-08-26T15:47:31Z</time>
      </trkpt>
      <trkpt lat="46.18922" lon="6.48524">
        <ele>1100.390625</ele>
        <time>2021-08-26T15:47:32Z</time>
      </trkpt>
      <trkpt lat="46.18917" lon="6.48521">
        <ele>1100.10546875</ele>
        <time>2021-08-26T15:47:33Z</time>
      </trkpt>
      <trkpt lat="46.18907" lon="6.48513">
        <ele>1099.6953125</ele>
        <time>2021-08-26T15:47:35Z</time>
      </trkpt>
      <trkpt lat="46.18898" lon="6.48507">
        <ele>1099.703125</ele>
        <time>2021-08-26T15:47:37Z</time>
      </trkpt>
      <trkpt lat="46.18894" lon="6.48505">
        <ele>1099.56640625</ele>
        <time>2021-08-26T15:47:38Z</time>
      </trkpt>
      <trkpt lat="46.1889" lon="6.48503">
        <ele>1099.38671875</ele>
        <time>2021-08-26T15:47:39Z</time>
      </trkpt>
      <trkpt lat="46.1888" lon="6.48501">
        <ele>1098.48046875</ele>
        <time>2021-08-26T15:47:42Z</time>
      </trkpt>
      <trkpt lat="46.18868" lon="6.48503">
        <ele>1096.93359375</ele>
        <time>2021-08-26T15:47:46Z</time>
      </trkpt>
      <trkpt lat="46.18865" lon="6.48504">
        <ele>1096.22265625</ele>
        <time>2021-08-26T15:47:48Z</time>
      </trkpt>
      <trkpt lat="46.18863" lon="6.48506">
        <ele>1095.60546875</ele>
        <time>2021-08-26T15:47:49Z</time>
      </trkpt>
      <trkpt lat="46.1886" lon="6.48508">
        <ele>1094.58984375</ele>
        <time>2021-08-26T15:47:50Z</time>
      </trkpt>
      <trkpt lat="46.18852" lon="6.48514">
        <ele>1092.1328125</ele>
        <time>2021-08-26T15:47:52Z</time>
      </trkpt>
      <trkpt lat="46.18828" lon="6.48531">
        <ele>1086.76171875</ele>
        <time>2021-08-26T15:47:57Z</time>
      </trkpt>
      <trkpt lat="46.18807" lon="6.48541">
        <ele>1083.328125</ele>
        <time>2021-08-26T15:48:01Z</time>
      </trkpt>
      <trkpt lat="46.18796" lon="6.48544">
        <ele>1082.2109375</ele>
        <time>2021-08-26T15:48:04Z</time>
      </trkpt>
      <trkpt lat="46.1879" lon="6.4855">
        <ele>1080.65625</ele>
        <time>2021-08-26T15:48:15Z</time>
      </trkpt>
      <trkpt lat="46.18764" lon="6.48554">
        <ele>1079.09765625</ele>
        <time>2021-08-26T15:48:23Z</time>
      </trkpt>
      <trkpt lat="46.18759" lon="6.48551">
        <ele>1079.640625</ele>
        <time>2021-08-26T15:48:30Z</time>
      </trkpt>
      <trkpt lat="46.1876" lon="6.48554">
        <ele>1079.078125</ele>
        <time>2021-08-26T15:48:44Z</time>
      </trkpt>
      <trkpt lat="46.18763" lon="6.48558">
        <ele>1078.37890625</ele>
        <time>2021-08-26T15:48:49Z</time>
      </trkpt>
      <trkpt lat="46.18767" lon="6.48563">
        <ele>1077.4609375</ele>
        <time>2021-08-26T15:48:52Z</time>
      </trkpt>
      <trkpt lat="46.18767" lon="6.48567">
        <ele>1076.8359375</ele>
        <time>2021-08-26T15:48:53Z</time>
      </trkpt>
      <trkpt lat="46.18768" lon="6.48571">
        <ele>1076.00390625</ele>
        <time>2021-08-26T15:48:54Z</time>
      </trkpt>
      <trkpt lat="46.18769" lon="6.48576">
        <ele>1075.1484375</ele>
        <time>2021-08-26T15:48:55Z</time>
      </trkpt>
      <trkpt lat="46.18771" lon="6.48581">
        <ele>1074.56640625</ele>
        <time>2021-08-26T15:48:56Z</time>
      </trkpt>
      <trkpt lat="46.18775" lon="6.48585">
        <ele>1074.05078125</ele>
        <time>2021-08-26T15:48:57Z</time>
      </trkpt>
      <trkpt lat="46.18779" lon="6.4859">
        <ele>1073.5</ele>
        <time>2021-08-26T15:48:58Z</time>
      </trkpt>
      <trkpt lat="46.18783" lon="6.48593">
        <ele>1072.92578125</ele>
        <time>2021-08-26T15:48:59Z</time>
      </trkpt>
      <trkpt lat="46.18789" lon="6.48598">
        <ele>1072.23828125</ele>
        <time>2021-08-26T15:49:00Z</time>
      </trkpt>
      <trkpt lat="46.18795" lon="6.48602">
        <ele>1071.42578125</ele>
        <time>2021-08-26T15:49:01Z</time>
      </trkpt>
      <trkpt lat="46.18816" lon="6.48617">
        <ele>1068.6875</ele>
        <time>2021-08-26T15:49:04Z</time>
      </trkpt>
      <trkpt lat="46.1884" lon="6.48634">
        <ele>1065.7734375</ele>
        <time>2021-08-26T15:49:07Z</time>
      </trkpt>
      <trkpt lat="46.18847" lon="6.4864">
        <ele>1064.421875</ele>
        <time>2021-08-26T15:49:08Z</time>
      </trkpt>
      <trkpt lat="46.18863" lon="6.48657">
        <ele>1061.16796875</ele>
        <time>2021-08-26T15:49:11Z</time>
      </trkpt>
      <trkpt lat="46.18866" lon="6.4866">
        <ele>1060.6328125</ele>
        <time>2021-08-26T15:49:12Z</time>
      </trkpt>
      <trkpt lat="46.18867" lon="6.48662">
        <ele>1060.0703125</ele>
        <time>2021-08-26T15:49:13Z</time>
      </trkpt>
      <trkpt lat="46.18868" lon="6.48664">
        <ele>1059.56640625</ele>
        <time>2021-08-26T15:49:14Z</time>
      </trkpt>
      <trkpt lat="46.18866" lon="6.48665">
        <ele>1059.37109375</ele>
        <time>2021-08-26T15:49:16Z</time>
      </trkpt>
      <trkpt lat="46.18864" lon="6.48664">
        <ele>1059.484375</ele>
        <time>2021-08-26T15:49:17Z</time>
      </trkpt>
      <trkpt lat="46.18861" lon="6.48663">
        <ele>1059.796875</ele>
        <time>2021-08-26T15:49:18Z</time>
      </trkpt>
      <trkpt lat="46.18859" lon="6.4866">
        <ele>1060.21484375</ele>
        <time>2021-08-26T15:49:19Z</time>
      </trkpt>
      <trkpt lat="46.18855" lon="6.48658">
        <ele>1060.58984375</ele>
        <time>2021-08-26T15:49:20Z</time>
      </trkpt>
      <trkpt lat="46.18851" lon="6.48656">
        <ele>1061.09375</ele>
        <time>2021-08-26T15:49:21Z</time>
      </trkpt>
      <trkpt lat="46.18845" lon="6.48653">
        <ele>1061.90625</ele>
        <time>2021-08-26T15:49:22Z</time>
      </trkpt>
      <trkpt lat="46.18839" lon="6.48652">
        <ele>1062.5390625</ele>
        <time>2021-08-26T15:49:23Z</time>
      </trkpt>
      <trkpt lat="46.18833" lon="6.48651">
        <ele>1062.94140625</ele>
        <time>2021-08-26T15:49:24Z</time>
      </trkpt>
      <trkpt lat="46.18827" lon="6.48651">
        <ele>1063.1640625</ele>
        <time>2021-08-26T15:49:25Z</time>
      </trkpt>
      <trkpt lat="46.18821" lon="6.48652">
        <ele>1063.73828125</ele>
        <time>2021-08-26T15:49:26Z</time>
      </trkpt>
      <trkpt lat="46.18808" lon="6.48653">
        <ele>1065.68359375</ele>
        <time>2021-08-26T15:49:28Z</time>
      </trkpt>
      <trkpt lat="46.18801" lon="6.48651">
        <ele>1066.72265625</ele>
        <time>2021-08-26T15:49:29Z</time>
      </trkpt>
      <trkpt lat="46.18745" lon="6.48637">
        <ele>1075.24609375</ele>
        <time>2021-08-26T15:49:38Z</time>
      </trkpt>
      <trkpt lat="46.1874" lon="6.48636">
        <ele>1075.703125</ele>
        <time>2021-08-26T15:49:39Z</time>
      </trkpt>
      <trkpt lat="46.18679" lon="6.48627">
        <ele>1078.65234375</ele>
        <time>2021-08-26T15:49:53Z</time>
      </trkpt>
      <trkpt lat="46.1865" lon="6.48635">
        <ele>1079.26953125</ele>
        <time>2021-08-26T15:50:02Z</time>
      </trkpt>
      <trkpt lat="46.18617" lon="6.48647">
        <ele>1079.62890625</ele>
        <time>2021-08-26T15:50:15Z</time>
      </trkpt>
      <trkpt lat="46.18613" lon="6.48648">
        <ele>1079.36328125</ele>
        <time>2021-08-26T15:50:17Z</time>
      </trkpt>
      <trkpt lat="46.1858" lon="6.48656">
        <ele>1077.4609375</ele>
        <time>2021-08-26T15:50:29Z</time>
      </trkpt>
      <trkpt lat="46.18535" lon="6.48668">
        <ele>1074.9921875</ele>
        <time>2021-08-26T15:50:37Z</time>
      </trkpt>
      <trkpt lat="46.18514" lon="6.48674">
        <ele>1074.05859375</ele>
        <time>2021-08-26T15:50:40Z</time>
      </trkpt>
      <trkpt lat="46.18491" lon="6.48676">
        <ele>1072.5</ele>
        <time>2021-08-26T15:50:43Z</time>
      </trkpt>
      <trkpt lat="46.18461" lon="6.48678">
        <ele>1069.96875</ele>
        <time>2021-08-26T15:50:47Z</time>
      </trkpt>
      <trkpt lat="46.18454" lon="6.48677">
        <ele>1069.12109375</ele>
        <time>2021-08-26T15:50:48Z</time>
      </trkpt>
      <trkpt lat="46.18448" lon="6.48673">
        <ele>1068.19921875</ele>
        <time>2021-08-26T15:50:49Z</time>
      </trkpt>
      <trkpt lat="46.18383" lon="6.48645">
        <ele>1061.43359375</ele>
        <time>2021-08-26T15:50:59Z</time>
      </trkpt>
      <trkpt lat="46.18377" lon="6.48646">
        <ele>1060.59375</ele>
        <time>2021-08-26T15:51:00Z</time>
      </trkpt>
      <trkpt lat="46.18371" lon="6.48649">
        <ele>1059.7109375</ele>
        <time>2021-08-26T15:51:01Z</time>
      </trkpt>
      <trkpt lat="46.18366" lon="6.48654">
        <ele>1058.7890625</ele>
        <time>2021-08-26T15:51:02Z</time>
      </trkpt>
      <trkpt lat="46.18361" lon="6.4866">
        <ele>1057.87890625</ele>
        <time>2021-08-26T15:51:03Z</time>
      </trkpt>
      <trkpt lat="46.18356" lon="6.48664">
        <ele>1057.45703125</ele>
        <time>2021-08-26T15:51:04Z</time>
      </trkpt>
      <trkpt lat="46.18351" lon="6.48667">
        <ele>1056.96484375</ele>
        <time>2021-08-26T15:51:05Z</time>
      </trkpt>
      <trkpt lat="46.18345" lon="6.48671">
        <ele>1056.1640625</ele>
        <time>2021-08-26T15:51:06Z</time>
      </trkpt>
      <trkpt lat="46.18332" lon="6.48677">
        <ele>1054.2578125</ele>
        <time>2021-08-26T15:51:08Z</time>
      </trkpt>
      <trkpt lat="46.18313" lon="6.48682">
        <ele>1051.85546875</ele>
        <time>2021-08-26T15:51:11Z</time>
      </trkpt>
      <trkpt lat="46.18294" lon="6.48685">
        <ele>1049.16015625</ele>
        <time>2021-08-26T15:51:14Z</time>
      </trkpt>
      <trkpt lat="46.18289" lon="6.48685">
        <ele>1048.33984375</ele>
        <time>2021-08-26T15:51:15Z</time>
      </trkpt>
      <trkpt lat="46.18284" lon="6.48685">
        <ele>1047.4609375</ele>
        <time>2021-08-26T15:51:16Z</time>
      </trkpt>
      <trkpt lat="46.18279" lon="6.48684">
        <ele>1046.3515625</ele>
        <time>2021-08-26T15:51:17Z</time>
      </trkpt>
      <trkpt lat="46.18272" lon="6.48682">
        <ele>1045.078125</ele>
        <time>2021-08-26T15:51:18Z</time>
      </trkpt>
      <trkpt lat="46.18265" lon="6.48681">
        <ele>1043.77734375</ele>
        <time>2021-08-26T15:51:19Z</time>
      </trkpt>
      <trkpt lat="46.18257" lon="6.48679">
        <ele>1042.46484375</ele>
        <time>2021-08-26T15:51:20Z</time>
      </trkpt>
      <trkpt lat="46.18236" lon="6.48676">
        <ele>1038.59765625</ele>
        <time>2021-08-26T15:51:23Z</time>
      </trkpt>
      <trkpt lat="46.18228" lon="6.48676">
        <ele>1037.2890625</ele>
        <time>2021-08-26T15:51:24Z</time>
      </trkpt>
      <trkpt lat="46.18211" lon="6.48678">
        <ele>1034.4921875</ele>
        <time>2021-08-26T15:51:27Z</time>
      </trkpt>
      <trkpt lat="46.18191" lon="6.48681">
        <ele>1032.4765625</ele>
        <time>2021-08-26T15:51:30Z</time>
      </trkpt>
      <trkpt lat="46.18183" lon="6.48681">
        <ele>1031.88671875</ele>
        <time>2021-08-26T15:51:31Z</time>
      </trkpt>
      <trkpt lat="46.18177" lon="6.48682">
        <ele>1031.57421875</ele>
        <time>2021-08-26T15:51:32Z</time>
      </trkpt>
      <trkpt lat="46.18157" lon="6.48684">
        <ele>1030.87109375</ele>
        <time>2021-08-26T15:51:35Z</time>
      </trkpt>
      <trkpt lat="46.18142" lon="6.48682">
        <ele>1027.8828125</ele>
        <time>2021-08-26T15:51:38Z</time>
      </trkpt>
      <trkpt lat="46.18132" lon="6.48678">
        <ele>1025.1171875</ele>
        <time>2021-08-26T15:51:40Z</time>
      </trkpt>
      <trkpt lat="46.18122" lon="6.48671">
        <ele>1021.84375</ele>
        <time>2021-08-26T15:51:42Z</time>
      </trkpt>
      <trkpt lat="46.18109" lon="6.48664">
        <ele>1017.859375</ele>
        <time>2021-08-26T15:51:45Z</time>
      </trkpt>
      <trkpt lat="46.18104" lon="6.4866">
        <ele>1016.30078125</ele>
        <time>2021-08-26T15:51:46Z</time>
      </trkpt>
      <trkpt lat="46.18099" lon="6.48658">
        <ele>1014.51953125</ele>
        <time>2021-08-26T15:51:47Z</time>
      </trkpt>
      <trkpt lat="46.1809" lon="6.48656">
        <ele>1011.24609375</ele>
        <time>2021-08-26T15:51:49Z</time>
      </trkpt>
      <trkpt lat="46.1808" lon="6.48653">
        <ele>1007.80078125</ele>
        <time>2021-08-26T15:51:51Z</time>
      </trkpt>
      <trkpt lat="46.18063" lon="6.48648">
        <ele>1003.37109375</ele>
        <time>2021-08-26T15:51:54Z</time>
      </trkpt>
      <trkpt lat="46.18053" lon="6.48645">
        <ele>1001.140625</ele>
        <time>2021-08-26T15:51:56Z</time>
      </trkpt>
      <trkpt lat="46.18047" lon="6.48644">
        <ele>999.89453125</ele>
        <time>2021-08-26T15:51:57Z</time>
      </trkpt>
      <trkpt lat="46.18034" lon="6.48663">
        <ele>996.34375</ele>
        <time>2021-08-26T15:52:00Z</time>
      </trkpt>
      <trkpt lat="46.18012" lon="6.48686">
        <ele>989.8515625</ele>
        <time>2021-08-26T15:52:04Z</time>
      </trkpt>
      <trkpt lat="46.17995" lon="6.48697">
        <ele>984.7578125</ele>
        <time>2021-08-26T15:52:06Z</time>
      </trkpt>
      <trkpt lat="46.1798" lon="6.48711">
        <ele>980.34765625</ele>
        <time>2021-08-26T15:52:08Z</time>
      </trkpt>
      <trkpt lat="46.17955" lon="6.48738">
        <ele>972.34375</ele>
        <time>2021-08-26T15:52:12Z</time>
      </trkpt>
      <trkpt lat="46.17949" lon="6.48741">
        <ele>970.890625</ele>
        <time>2021-08-26T15:52:13Z</time>
      </trkpt>
      <trkpt lat="46.17942" lon="6.48742">
        <ele>969.35546875</ele>
        <time>2021-08-26T15:52:14Z</time>
      </trkpt>
      <trkpt lat="46.17935" lon="6.48743">
        <ele>967.7890625</ele>
        <time>2021-08-26T15:52:15Z</time>
      </trkpt>
      <trkpt lat="46.17928" lon="6.48742">
        <ele>966.23828125</ele>
        <time>2021-08-26T15:52:16Z</time>
      </trkpt>
      <trkpt lat="46.17921" lon="6.48739">
        <ele>964.7109375</ele>
        <time>2021-08-26T15:52:17Z</time>
      </trkpt>
      <trkpt lat="46.17914" lon="6.48736">
        <ele>963.16796875</ele>
        <time>2021-08-26T15:52:18Z</time>
      </trkpt>
      <trkpt lat="46.17907" lon="6.48734">
        <ele>961.4921875</ele>
        <time>2021-08-26T15:52:19Z</time>
      </trkpt>
      <trkpt lat="46.17901" lon="6.48731">
        <ele>959.65234375</ele>
        <time>2021-08-26T15:52:20Z</time>
      </trkpt>
      <trkpt lat="46.17897" lon="6.48725">
        <ele>958.50390625</ele>
        <time>2021-08-26T15:52:21Z</time>
      </trkpt>
      <trkpt lat="46.17894" lon="6.48718">
        <ele>957.78125</ele>
        <time>2021-08-26T15:52:22Z</time>
      </trkpt>
      <trkpt lat="46.17891" lon="6.48711">
        <ele>957.01171875</ele>
        <time>2021-08-26T15:52:23Z</time>
      </trkpt>
      <trkpt lat="46.17888" lon="6.48704">
        <ele>956.0390625</ele>
        <time>2021-08-26T15:52:24Z</time>
      </trkpt>
      <trkpt lat="46.17884" lon="6.487">
        <ele>954.90234375</ele>
        <time>2021-08-26T15:52:25Z</time>
      </trkpt>
      <trkpt lat="46.1788" lon="6.48694">
        <ele>953.87890625</ele>
        <time>2021-08-26T15:52:26Z</time>
      </trkpt>
      <trkpt lat="46.17878" lon="6.48688">
        <ele>952.859375</ele>
        <time>2021-08-26T15:52:27Z</time>
      </trkpt>
      <trkpt lat="46.17872" lon="6.48669">
        <ele>951.14453125</ele>
        <time>2021-08-26T15:52:29Z</time>
      </trkpt>
      <trkpt lat="46.17868" lon="6.48659">
        <ele>950.328125</ele>
        <time>2021-08-26T15:52:30Z</time>
      </trkpt>
      <trkpt lat="46.17863" lon="6.4865">
        <ele>950.0703125</ele>
        <time>2021-08-26T15:52:31Z</time>
      </trkpt>
      <trkpt lat="46.17857" lon="6.48642">
        <ele>949.35546875</ele>
        <time>2021-08-26T15:52:32Z</time>
      </trkpt>
      <trkpt lat="46.17852" lon="6.48637">
        <ele>948.296875</ele>
        <time>2021-08-26T15:52:33Z</time>
      </trkpt>
      <trkpt lat="46.17847" lon="6.48634">
        <ele>947.26171875</ele>
        <time>2021-08-26T15:52:34Z</time>
      </trkpt>
      <trkpt lat="46.17842" lon="6.48632">
        <ele>946.3515625</ele>
        <time>2021-08-26T15:52:35Z</time>
      </trkpt>
      <trkpt lat="46.17838" lon="6.4863">
        <ele>945.375</ele>
        <time>2021-08-26T15:52:36Z</time>
      </trkpt>
      <trkpt lat="46.17832" lon="6.48628">
        <ele>944.31640625</ele>
        <time>2021-08-26T15:52:37Z</time>
      </trkpt>
      <trkpt lat="46.17826" lon="6.48624">
        <ele>943.19140625</ele>
        <time>2021-08-26T15:52:38Z</time>
      </trkpt>
      <trkpt lat="46.1782" lon="6.48618">
        <ele>941.87890625</ele>
        <time>2021-08-26T15:52:39Z</time>
      </trkpt>
      <trkpt lat="46.17815" lon="6.4861">
        <ele>940.7109375</ele>
        <time>2021-08-26T15:52:40Z</time>
      </trkpt>
      <trkpt lat="46.17809" lon="6.486">
        <ele>939.28125</ele>
        <time>2021-08-26T15:52:41Z</time>
      </trkpt>
      <trkpt lat="46.17802" lon="6.48591">
        <ele>937.38671875</ele>
        <time>2021-08-26T15:52:42Z</time>
      </trkpt>
      <trkpt lat="46.17786" lon="6.48554">
        <ele>931.08984375</ele>
        <time>2021-08-26T15:52:45Z</time>
      </trkpt>
      <trkpt lat="46.17783" lon="6.48539">
        <ele>929.39453125</ele>
        <time>2021-08-26T15:52:46Z</time>
      </trkpt>
      <trkpt lat="46.1778" lon="6.48524">
        <ele>927.875</ele>
        <time>2021-08-26T15:52:47Z</time>
      </trkpt>
      <trkpt lat="46.17779" lon="6.48509">
        <ele>927.3984375</ele>
        <time>2021-08-26T15:52:48Z</time>
      </trkpt>
      <trkpt lat="46.17779" lon="6.48496">
        <ele>927.42578125</ele>
        <time>2021-08-26T15:52:49Z</time>
      </trkpt>
      <trkpt lat="46.17779" lon="6.48484">
        <ele>927.17578125</ele>
        <time>2021-08-26T15:52:50Z</time>
      </trkpt>
      <trkpt lat="46.17782" lon="6.48471">
        <ele>927.3671875</ele>
        <time>2021-08-26T15:52:51Z</time>
      </trkpt>
      <trkpt lat="46.17785" lon="6.48459">
        <ele>927.5234375</ele>
        <time>2021-08-26T15:52:52Z</time>
      </trkpt>
      <trkpt lat="46.17788" lon="6.48447">
        <ele>927.4921875</ele>
        <time>2021-08-26T15:52:53Z</time>
      </trkpt>
      <trkpt lat="46.17791" lon="6.48437">
        <ele>927.625</ele>
        <time>2021-08-26T15:52:54Z</time>
      </trkpt>
      <trkpt lat="46.17792" lon="6.48428">
        <ele>927.74609375</ele>
        <time>2021-08-26T15:52:55Z</time>
      </trkpt>
      <trkpt lat="46.17791" lon="6.48417">
        <ele>926.8828125</ele>
        <time>2021-08-26T15:52:56Z</time>
      </trkpt>
      <trkpt lat="46.17789" lon="6.48406">
        <ele>925.53515625</ele>
        <time>2021-08-26T15:52:57Z</time>
      </trkpt>
      <trkpt lat="46.17785" lon="6.48395">
        <ele>923.79296875</ele>
        <time>2021-08-26T15:52:58Z</time>
      </trkpt>
      <trkpt lat="46.17781" lon="6.48384">
        <ele>921.53515625</ele>
        <time>2021-08-26T15:52:59Z</time>
      </trkpt>
      <trkpt lat="46.17775" lon="6.48375">
        <ele>921.1796875</ele>
        <time>2021-08-26T15:53:00Z</time>
      </trkpt>
      <trkpt lat="46.17769" lon="6.48367">
        <ele>920.59765625</ele>
        <time>2021-08-26T15:53:01Z</time>
      </trkpt>
      <trkpt lat="46.17762" lon="6.48361">
        <ele>918.7734375</ele>
        <time>2021-08-26T15:53:02Z</time>
      </trkpt>
      <trkpt lat="46.17752" lon="6.48358">
        <ele>914.65625</ele>
        <time>2021-08-26T15:53:03Z</time>
      </trkpt>
      <trkpt lat="46.17746" lon="6.48356">
        <ele>911.80078125</ele>
        <time>2021-08-26T15:53:04Z</time>
      </trkpt>
      <trkpt lat="46.1774" lon="6.48352">
        <ele>909.3515625</ele>
        <time>2021-08-26T15:53:05Z</time>
      </trkpt>
      <trkpt lat="46.17735" lon="6.48347">
        <ele>907.62109375</ele>
        <time>2021-08-26T15:53:06Z</time>
      </trkpt>
      <trkpt lat="46.1773" lon="6.4834">
        <ele>906.203125</ele>
        <time>2021-08-26T15:53:07Z</time>
      </trkpt>
      <trkpt lat="46.17727" lon="6.4833">
        <ele>906.125</ele>
        <time>2021-08-26T15:53:08Z</time>
      </trkpt>
      <trkpt lat="46.17724" lon="6.4832">
        <ele>905.24609375</ele>
        <time>2021-08-26T15:53:09Z</time>
      </trkpt>
      <trkpt lat="46.17722" lon="6.48308">
        <ele>904.39453125</ele>
        <time>2021-08-26T15:53:10Z</time>
      </trkpt>
      <trkpt lat="46.17717" lon="6.48275">
        <ele>901.03515625</ele>
        <time>2021-08-26T15:53:14Z</time>
      </trkpt>
      <trkpt lat="46.17716" lon="6.48282">
        <ele>900.18359375</ele>
        <time>2021-08-26T15:53:23Z</time>
      </trkpt>
      <trkpt lat="46.17715" lon="6.48284">
        <ele>899.625</ele>
        <time>2021-08-26T15:53:25Z</time>
      </trkpt>
      <trkpt lat="46.17714" lon="6.48287">
        <ele>899.15625</ele>
        <time>2021-08-26T15:53:26Z</time>
      </trkpt>
      <trkpt lat="46.17713" lon="6.48291">
        <ele>898.86328125</ele>
        <time>2021-08-26T15:53:27Z</time>
      </trkpt>
      <trkpt lat="46.17712" lon="6.48297">
        <ele>898.87109375</ele>
        <time>2021-08-26T15:53:28Z</time>
      </trkpt>
      <trkpt lat="46.17712" lon="6.48305">
        <ele>898.69140625</ele>
        <time>2021-08-26T15:53:29Z</time>
      </trkpt>
      <trkpt lat="46.17711" lon="6.48313">
        <ele>898.0703125</ele>
        <time>2021-08-26T15:53:30Z</time>
      </trkpt>
      <trkpt lat="46.17709" lon="6.48321">
        <ele>897.140625</ele>
        <time>2021-08-26T15:53:31Z</time>
      </trkpt>
      <trkpt lat="46.17703" lon="6.48346">
        <ele>891.50390625</ele>
        <time>2021-08-26T15:53:34Z</time>
      </trkpt>
      <trkpt lat="46.17699" lon="6.48362">
        <ele>887.24609375</ele>
        <time>2021-08-26T15:53:36Z</time>
      </trkpt>
      <trkpt lat="46.17699" lon="6.48368">
        <ele>885.8046875</ele>
        <time>2021-08-26T15:53:37Z</time>
      </trkpt>
      <trkpt lat="46.177" lon="6.48373">
        <ele>885.42578125</ele>
        <time>2021-08-26T15:53:38Z</time>
      </trkpt>
      <trkpt lat="46.17702" lon="6.48378">
        <ele>885.5078125</ele>
        <time>2021-08-26T15:53:39Z</time>
      </trkpt>
      <trkpt lat="46.17703" lon="6.48382">
        <ele>885.421875</ele>
        <time>2021-08-26T15:53:40Z</time>
      </trkpt>
      <trkpt lat="46.17705" lon="6.48386">
        <ele>885.59375</ele>
        <time>2021-08-26T15:53:41Z</time>
      </trkpt>
      <trkpt lat="46.17707" lon="6.4839">
        <ele>886.47265625</ele>
        <time>2021-08-26T15:53:42Z</time>
      </trkpt>
      <trkpt lat="46.17711" lon="6.48394">
        <ele>887.78125</ele>
        <time>2021-08-26T15:53:43Z</time>
      </trkpt>
      <trkpt lat="46.17714" lon="6.48398">
        <ele>889.00390625</ele>
        <time>2021-08-26T15:53:44Z</time>
      </trkpt>
      <trkpt lat="46.17718" lon="6.48402">
        <ele>890.39453125</ele>
        <time>2021-08-26T15:53:45Z</time>
      </trkpt>
      <trkpt lat="46.17721" lon="6.48407">
        <ele>891.73046875</ele>
        <time>2021-08-26T15:53:46Z</time>
      </trkpt>
      <trkpt lat="46.17724" lon="6.48411">
        <ele>892.91015625</ele>
        <time>2021-08-26T15:53:47Z</time>
      </trkpt>
      <trkpt lat="46.17732" lon="6.4843">
        <ele>896.7890625</ele>
        <time>2021-08-26T15:53:50Z</time>
      </trkpt>
      <trkpt lat="46.17731" lon="6.48435">
        <ele>896.44140625</ele>
        <time>2021-08-26T15:53:51Z</time>
      </trkpt>
      <trkpt lat="46.17729" lon="6.48439">
        <ele>895.671875</ele>
        <time>2021-08-26T15:53:52Z</time>
      </trkpt>
      <trkpt lat="46.17728" lon="6.48442">
        <ele>895.33203125</ele>
        <time>2021-08-26T15:53:53Z</time>
      </trkpt>
      <trkpt lat="46.17728" lon="6.48444">
        <ele>895.26171875</ele>
        <time>2021-08-26T15:53:54Z</time>
      </trkpt>
      <trkpt lat="46.17727" lon="6.48446">
        <ele>895.19921875</ele>
        <time>2021-08-26T15:53:55Z</time>
      </trkpt>
      <trkpt lat="46.17726" lon="6.48448">
        <ele>894.80078125</ele>
        <time>2021-08-26T15:53:56Z</time>
      </trkpt>
      <trkpt lat="46.17725" lon="6.48451">
        <ele>894.38671875</ele>
        <time>2021-08-26T15:53:57Z</time>
      </trkpt>
      <trkpt lat="46.17724" lon="6.48454">
        <ele>893.7890625</ele>
        <time>2021-08-26T15:53:58Z</time>
      </trkpt>
      <trkpt lat="46.17723" lon="6.48457">
        <ele>893.2421875</ele>
        <time>2021-08-26T15:53:59Z</time>
      </trkpt>
      <trkpt lat="46.17721" lon="6.4846">
        <ele>892.5703125</ele>
        <time>2021-08-26T15:54:00Z</time>
      </trkpt>
      <trkpt lat="46.17719" lon="6.48464">
        <ele>891.62109375</ele>
        <time>2021-08-26T15:54:01Z</time>
      </trkpt>
      <trkpt lat="46.17717" lon="6.48468">
        <ele>890.85546875</ele>
        <time>2021-08-26T15:54:02Z</time>
      </trkpt>
      <trkpt lat="46.17716" lon="6.48472">
        <ele>890.609375</ele>
        <time>2021-08-26T15:54:03Z</time>
      </trkpt>
      <trkpt lat="46.17716" lon="6.48477">
        <ele>891.06640625</ele>
        <time>2021-08-26T15:54:04Z</time>
      </trkpt>
      <trkpt lat="46.17717" lon="6.48482">
        <ele>891.44921875</ele>
        <time>2021-08-26T15:54:05Z</time>
      </trkpt>
      <trkpt lat="46.17714" lon="6.4851">
        <ele>891.86328125</ele>
        <time>2021-08-26T15:54:10Z</time>
      </trkpt>
      <trkpt lat="46.17713" lon="6.48517">
        <ele>891.859375</ele>
        <time>2021-08-26T15:54:11Z</time>
      </trkpt>
      <trkpt lat="46.17713" lon="6.48525">
        <ele>892.21484375</ele>
        <time>2021-08-26T15:54:12Z</time>
      </trkpt>
      <trkpt lat="46.17712" lon="6.48545">
        <ele>893.046875</ele>
        <time>2021-08-26T15:54:15Z</time>
      </trkpt>
      <trkpt lat="46.17711" lon="6.48552">
        <ele>893.3046875</ele>
        <time>2021-08-26T15:54:16Z</time>
      </trkpt>
      <trkpt lat="46.17712" lon="6.48557">
        <ele>894.140625</ele>
        <time>2021-08-26T15:54:17Z</time>
      </trkpt>
      <trkpt lat="46.17718" lon="6.4859">
        <ele>898.59375</ele>
        <time>2021-08-26T15:54:25Z</time>
      </trkpt>
      <trkpt lat="46.17717" lon="6.48592">
        <ele>898.36328125</ele>
        <time>2021-08-26T15:54:26Z</time>
      </trkpt>
      <trkpt lat="46.17708" lon="6.48611">
        <ele>893.01171875</ele>
        <time>2021-08-26T15:54:31Z</time>
      </trkpt>
      <trkpt lat="46.17711" lon="6.48631">
        <ele>894.08984375</ele>
        <time>2021-08-26T15:54:36Z</time>
      </trkpt>
      <trkpt lat="46.17709" lon="6.48639">
        <ele>892.4140625</ele>
        <time>2021-08-26T15:54:38Z</time>
      </trkpt>
      <trkpt lat="46.17711" lon="6.4866">
        <ele>892.97265625</ele>
        <time>2021-08-26T15:54:42Z</time>
      </trkpt>
      <trkpt lat="46.17713" lon="6.48664">
        <ele>893.58984375</ele>
        <time>2021-08-26T15:54:43Z</time>
      </trkpt>
      <trkpt lat="46.17715" lon="6.48681">
        <ele>892.62109375</ele>
        <time>2021-08-26T15:54:47Z</time>
      </trkpt>
      <trkpt lat="46.17717" lon="6.48705">
        <ele>889.13671875</ele>
        <time>2021-08-26T15:54:51Z</time>
      </trkpt>
      <trkpt lat="46.17717" lon="6.48712">
        <ele>888.015625</ele>
        <time>2021-08-26T15:54:52Z</time>
      </trkpt>
      <trkpt lat="46.17718" lon="6.48718">
        <ele>887.125</ele>
        <time>2021-08-26T15:54:53Z</time>
      </trkpt>
      <trkpt lat="46.17718" lon="6.48725">
        <ele>885.8828125</ele>
        <time>2021-08-26T15:54:54Z</time>
      </trkpt>
      <trkpt lat="46.17718" lon="6.48732">
        <ele>884.625</ele>
        <time>2021-08-26T15:54:55Z</time>
      </trkpt>
      <trkpt lat="46.17718" lon="6.48737">
        <ele>884.11328125</ele>
        <time>2021-08-26T15:54:56Z</time>
      </trkpt>
      <trkpt lat="46.1772" lon="6.48739">
        <ele>884.296875</ele>
        <time>2021-08-26T15:54:57Z</time>
      </trkpt>
      <trkpt lat="46.17722" lon="6.48743">
        <ele>884.5078125</ele>
        <time>2021-08-26T15:54:58Z</time>
      </trkpt>
      <trkpt lat="46.17725" lon="6.48748">
        <ele>884.55859375</ele>
        <time>2021-08-26T15:54:59Z</time>
      </trkpt>
      <trkpt lat="46.17727" lon="6.48753">
        <ele>884.6484375</ele>
        <time>2021-08-26T15:55:00Z</time>
      </trkpt>
      <trkpt lat="46.17729" lon="6.48757">
        <ele>884.91015625</ele>
        <time>2021-08-26T15:55:01Z</time>
      </trkpt>
      <trkpt lat="46.17734" lon="6.48767">
        <ele>884.97265625</ele>
        <time>2021-08-26T15:55:03Z</time>
      </trkpt>
      <trkpt lat="46.17736" lon="6.4878">
        <ele>883.2578125</ele>
        <time>2021-08-26T15:55:06Z</time>
      </trkpt>
      <trkpt lat="46.17737" lon="6.48791">
        <ele>881.56640625</ele>
        <time>2021-08-26T15:55:15Z</time>
      </trkpt>
      <trkpt lat="46.17738" lon="6.48797">
        <ele>880.671875</ele>
        <time>2021-08-26T15:55:26Z</time>
      </trkpt>
      <trkpt lat="46.17738" lon="6.48798">
        <ele>880.55859375</ele>
        <time>2021-08-26T15:55:27Z</time>
      </trkpt>
      <trkpt lat="46.17731" lon="6.48817">
        <ele>873.13671875</ele>
        <time>2021-08-26T15:55:32Z</time>
      </trkpt>
      <trkpt lat="46.17723" lon="6.48832">
        <ele>865.6015625</ele>
        <time>2021-08-26T15:55:35Z</time>
      </trkpt>
      <trkpt lat="46.1772" lon="6.48851">
        <ele>859.7265625</ele>
        <time>2021-08-26T15:55:37Z</time>
      </trkpt>
      <trkpt lat="46.17724" lon="6.48871">
        <ele>856.69921875</ele>
        <time>2021-08-26T15:55:43Z</time>
      </trkpt>
      <trkpt lat="46.17731" lon="6.48882">
        <ele>857.8515625</ele>
        <time>2021-08-26T15:55:47Z</time>
      </trkpt>
      <trkpt lat="46.1773" lon="6.48886">
        <ele>856.18359375</ele>
        <time>2021-08-26T15:55:49Z</time>
      </trkpt>
      <trkpt lat="46.17722" lon="6.48892">
        <ele>850.2890625</ele>
        <time>2021-08-26T15:55:53Z</time>
      </trkpt>
      <trkpt lat="46.1772" lon="6.48897">
        <ele>847.546875</ele>
        <time>2021-08-26T15:56:01Z</time>
      </trkpt>
      <trkpt lat="46.17716" lon="6.48901">
        <ele>843.93359375</ele>
        <time>2021-08-26T15:56:11Z</time>
      </trkpt>
      <trkpt lat="46.17714" lon="6.48904">
        <ele>841.57421875</ele>
        <time>2021-08-26T15:56:18Z</time>
      </trkpt>
      <trkpt lat="46.17713" lon="6.48908">
        <ele>840.12890625</ele>
        <time>2021-08-26T15:56:20Z</time>
      </trkpt>
      <trkpt lat="46.17714" lon="6.48912">
        <ele>839.12109375</ele>
        <time>2021-08-26T15:56:21Z</time>
      </trkpt>
      <trkpt lat="46.17714" lon="6.48918">
        <ele>837.578125</ele>
        <time>2021-08-26T15:56:22Z</time>
      </trkpt>
      <trkpt lat="46.17713" lon="6.48925">
        <ele>835.78125</ele>
        <time>2021-08-26T15:56:23Z</time>
      </trkpt>
      <trkpt lat="46.17713" lon="6.48932">
        <ele>833.78515625</ele>
        <time>2021-08-26T15:56:24Z</time>
      </trkpt>
      <trkpt lat="46.17713" lon="6.48938">
        <ele>831.98828125</ele>
        <time>2021-08-26T15:56:25Z</time>
      </trkpt>
      <trkpt lat="46.17712" lon="6.48942">
        <ele>830.671875</ele>
        <time>2021-08-26T15:56:26Z</time>
      </trkpt>
      <trkpt lat="46.17712" lon="6.48947">
        <ele>829.81640625</ele>
        <time>2021-08-26T15:56:27Z</time>
      </trkpt>
      <trkpt lat="46.17713" lon="6.48952">
        <ele>829.12109375</ele>
        <time>2021-08-26T15:56:28Z</time>
      </trkpt>
      <trkpt lat="46.17714" lon="6.48957">
        <ele>828.48828125</ele>
        <time>2021-08-26T15:56:29Z</time>
      </trkpt>
      <trkpt lat="46.17715" lon="6.48963">
        <ele>828.25390625</ele>
        <time>2021-08-26T15:56:30Z</time>
      </trkpt>
      <trkpt lat="46.17717" lon="6.4897">
        <ele>828.1875</ele>
        <time>2021-08-26T15:56:31Z</time>
      </trkpt>
      <trkpt lat="46.1772" lon="6.48977">
        <ele>827.9296875</ele>
        <time>2021-08-26T15:56:33Z</time>
      </trkpt>
      <trkpt lat="46.1772" lon="6.48979">
        <ele>827.50390625</ele>
        <time>2021-08-26T15:56:34Z</time>
      </trkpt>
      <trkpt lat="46.17722" lon="6.48991">
        <ele>826.296875</ele>
        <time>2021-08-26T15:56:37Z</time>
      </trkpt>
      <trkpt lat="46.17723" lon="6.48997">
        <ele>825.984375</ele>
        <time>2021-08-26T15:56:38Z</time>
      </trkpt>
      <trkpt lat="46.17724" lon="6.49003">
        <ele>825.28515625</ele>
        <time>2021-08-26T15:56:39Z</time>
      </trkpt>
      <trkpt lat="46.17725" lon="6.49009">
        <ele>824.55078125</ele>
        <time>2021-08-26T15:56:40Z</time>
      </trkpt>
      <trkpt lat="46.17729" lon="6.49021">
        <ele>824.109375</ele>
        <time>2021-08-26T15:56:42Z</time>
      </trkpt>
      <trkpt lat="46.17731" lon="6.49026">
        <ele>824.36328125</ele>
        <time>2021-08-26T15:56:43Z</time>
      </trkpt>
      <trkpt lat="46.17736" lon="6.49041">
        <ele>823.6953125</ele>
        <time>2021-08-26T15:56:46Z</time>
      </trkpt>
      <trkpt lat="46.17737" lon="6.49058">
        <ele>822.3125</ele>
        <time>2021-08-26T15:56:50Z</time>
      </trkpt>
      <trkpt lat="46.17735" lon="6.49085">
        <ele>819.7578125</ele>
        <time>2021-08-26T15:56:57Z</time>
      </trkpt>
      <trkpt lat="46.17731" lon="6.49105">
        <ele>817.484375</ele>
        <time>2021-08-26T15:57:01Z</time>
      </trkpt>
      <trkpt lat="46.17731" lon="6.49123">
        <ele>816.5859375</ele>
        <time>2021-08-26T15:57:05Z</time>
      </trkpt>
      <trkpt lat="46.17733" lon="6.49139">
        <ele>816.2109375</ele>
        <time>2021-08-26T15:57:19Z</time>
      </trkpt>
      <trkpt lat="46.17732" lon="6.49142">
        <ele>815.76171875</ele>
        <time>2021-08-26T15:57:20Z</time>
      </trkpt>
      <trkpt lat="46.17731" lon="6.49146">
        <ele>815.32421875</ele>
        <time>2021-08-26T15:57:21Z</time>
      </trkpt>
      <trkpt lat="46.17732" lon="6.4915">
        <ele>815.24609375</ele>
        <time>2021-08-26T15:57:22Z</time>
      </trkpt>
      <trkpt lat="46.17733" lon="6.49154">
        <ele>815.39453125</ele>
        <time>2021-08-26T15:57:23Z</time>
      </trkpt>
      <trkpt lat="46.17747" lon="6.49228">
        <ele>817.953125</ele>
        <time>2021-08-26T15:57:36Z</time>
      </trkpt>
      <trkpt lat="46.17762" lon="6.4932">
        <ele>817.4296875</ele>
        <time>2021-08-26T15:57:51Z</time>
      </trkpt>
      <trkpt lat="46.17782" lon="6.49375">
        <ele>818.3515625</ele>
        <time>2021-08-26T15:58:02Z</time>
      </trkpt>
      <trkpt lat="46.17805" lon="6.49402">
        <ele>821.91015625</ele>
        <time>2021-08-26T15:58:12Z</time>
      </trkpt>
      <trkpt lat="46.17808" lon="6.49408">
        <ele>822.25390625</ele>
        <time>2021-08-26T15:58:15Z</time>
      </trkpt>
      <trkpt lat="46.1783" lon="6.4943">
        <ele>825.9296875</ele>
        <time>2021-08-26T15:58:28Z</time>
      </trkpt>
      <trkpt lat="46.17846" lon="6.49434">
        <ele>829.59765625</ele>
        <time>2021-08-26T15:58:39Z</time>
      </trkpt>
      <trkpt lat="46.17863" lon="6.49435">
        <ele>833.67578125</ele>
        <time>2021-08-26T15:58:50Z</time>
      </trkpt>
      <trkpt lat="46.17865" lon="6.49435">
        <ele>834.109375</ele>
        <time>2021-08-26T15:58:51Z</time>
      </trkpt>
      <trkpt lat="46.17866" lon="6.49435">
        <ele>834.5390625</ele>
        <time>2021-08-26T15:58:52Z</time>
      </trkpt>
      <trkpt lat="46.17868" lon="6.49434">
        <ele>834.94921875</ele>
        <time>2021-08-26T15:58:53Z</time>
      </trkpt>
      <trkpt lat="46.17869" lon="6.49433">
        <ele>835.37109375</ele>
        <time>2021-08-26T15:58:54Z</time>
      </trkpt>
      <trkpt lat="46.17871" lon="6.49432">
        <ele>835.73828125</ele>
        <time>2021-08-26T15:58:55Z</time>
      </trkpt>
      <trkpt lat="46.17872" lon="6.49431">
        <ele>836.13671875</ele>
        <time>2021-08-26T15:58:56Z</time>
      </trkpt>
      <trkpt lat="46.17884" lon="6.49416">
        <ele>839.5234375</ele>
        <time>2021-08-26T15:59:06Z</time>
      </trkpt>
      <trkpt lat="46.17891" lon="6.49405">
        <ele>841.515625</ele>
        <time>2021-08-26T15:59:13Z</time>
      </trkpt>
      <trkpt lat="46.17895" lon="6.49401">
        <ele>842.59765625</ele>
        <time>2021-08-26T15:59:17Z</time>
      </trkpt>
      <trkpt lat="46.17898" lon="6.49398">
        <ele>843.63671875</ele>
        <time>2021-08-26T15:59:22Z</time>
      </trkpt>
      <trkpt lat="46.17902" lon="6.49401">
        <ele>844.26953125</ele>
        <time>2021-08-26T15:59:26Z</time>
      </trkpt>
      <trkpt lat="46.17906" lon="6.49405">
        <ele>844.9296875</ele>
        <time>2021-08-26T15:59:29Z</time>
      </trkpt>
      <trkpt lat="46.17915" lon="6.49407">
        <ele>847.2265625</ele>
        <time>2021-08-26T15:59:35Z</time>
      </trkpt>
      <trkpt lat="46.17926" lon="6.49417">
        <ele>849.515625</ele>
        <time>2021-08-26T15:59:43Z</time>
      </trkpt>
      <trkpt lat="46.17928" lon="6.49419">
        <ele>849.984375</ele>
        <time>2021-08-26T15:59:44Z</time>
      </trkpt>
      <trkpt lat="46.17941" lon="6.49433">
        <ele>852.99609375</ele>
        <time>2021-08-26T15:59:54Z</time>
      </trkpt>
      <trkpt lat="46.17951" lon="6.49452">
        <ele>854.453125</ele>
        <time>2021-08-26T16:00:04Z</time>
      </trkpt>
      <trkpt lat="46.17951" lon="6.49454">
        <ele>854.3203125</ele>
        <time>2021-08-26T16:00:05Z</time>
      </trkpt>
      <trkpt lat="46.17955" lon="6.4946">
        <ele>854.8359375</ele>
        <time>2021-08-26T16:00:09Z</time>
      </trkpt>
      <trkpt lat="46.17967" lon="6.49472">
        <ele>857.28125</ele>
        <time>2021-08-26T16:00:19Z</time>
      </trkpt>
      <trkpt lat="46.17971" lon="6.49477">
        <ele>858.5078125</ele>
        <time>2021-08-26T16:00:22Z</time>
      </trkpt>
      <trkpt lat="46.17982" lon="6.49493">
        <ele>861.52734375</ele>
        <time>2021-08-26T16:00:32Z</time>
      </trkpt>
      <trkpt lat="46.17995" lon="6.49509">
        <ele>864.203125</ele>
        <time>2021-08-26T16:00:42Z</time>
      </trkpt>
      <trkpt lat="46.18001" lon="6.49514">
        <ele>865.9140625</ele>
        <time>2021-08-26T16:00:46Z</time>
      </trkpt>
      <trkpt lat="46.18002" lon="6.49515">
        <ele>866.3203125</ele>
        <time>2021-08-26T16:00:47Z</time>
      </trkpt>
      <trkpt lat="46.18004" lon="6.49516">
        <ele>866.65234375</ele>
        <time>2021-08-26T16:00:48Z</time>
      </trkpt>
      <trkpt lat="46.18006" lon="6.49518">
        <ele>867.109375</ele>
        <time>2021-08-26T16:00:49Z</time>
      </trkpt>
      <trkpt lat="46.18007" lon="6.4952">
        <ele>867.390625</ele>
        <time>2021-08-26T16:00:50Z</time>
      </trkpt>
      <trkpt lat="46.18009" lon="6.49522">
        <ele>867.67578125</ele>
        <time>2021-08-26T16:00:51Z</time>
      </trkpt>
      <trkpt lat="46.1801" lon="6.49523">
        <ele>867.96484375</ele>
        <time>2021-08-26T16:00:52Z</time>
      </trkpt>
      <trkpt lat="46.18012" lon="6.49525">
        <ele>868.1015625</ele>
        <time>2021-08-26T16:00:53Z</time>
      </trkpt>
      <trkpt lat="46.18013" lon="6.49526">
        <ele>868.19140625</ele>
        <time>2021-08-26T16:00:54Z</time>
      </trkpt>
      <trkpt lat="46.18014" lon="6.49528">
        <ele>867.953125</ele>
        <time>2021-08-26T16:00:55Z</time>
      </trkpt>
      <trkpt lat="46.18015" lon="6.4953">
        <ele>867.9765625</ele>
        <time>2021-08-26T16:00:56Z</time>
      </trkpt>
      <trkpt lat="46.18016" lon="6.49532">
        <ele>867.95703125</ele>
        <time>2021-08-26T16:00:57Z</time>
      </trkpt>
      <trkpt lat="46.18025" lon="6.49545">
        <ele>868.484375</ele>
        <time>2021-08-26T16:01:05Z</time>
      </trkpt>
      <trkpt lat="46.18027" lon="6.49546">
        <ele>868.96875</ele>
        <time>2021-08-26T16:01:06Z</time>
      </trkpt>
      <trkpt lat="46.18027" lon="6.49548">
        <ele>868.98046875</ele>
        <time>2021-08-26T16:01:07Z</time>
      </trkpt>
      <trkpt lat="46.18028" lon="6.4955">
        <ele>868.87109375</ele>
        <time>2021-08-26T16:01:08Z</time>
      </trkpt>
      <trkpt lat="46.18029" lon="6.49552">
        <ele>868.796875</ele>
        <time>2021-08-26T16:01:09Z</time>
      </trkpt>
      <trkpt lat="46.1803" lon="6.49553">
        <ele>868.63671875</ele>
        <time>2021-08-26T16:01:10Z</time>
      </trkpt>
      <trkpt lat="46.18031" lon="6.49555">
        <ele>868.51171875</ele>
        <time>2021-08-26T16:01:11Z</time>
      </trkpt>
      <trkpt lat="46.18032" lon="6.49557">
        <ele>868.44921875</ele>
        <time>2021-08-26T16:01:12Z</time>
      </trkpt>
      <trkpt lat="46.18033" lon="6.49559">
        <ele>868.46484375</ele>
        <time>2021-08-26T16:01:13Z</time>
      </trkpt>
      <trkpt lat="46.18034" lon="6.49562">
        <ele>868.35546875</ele>
        <time>2021-08-26T16:01:14Z</time>
      </trkpt>
      <trkpt lat="46.18035" lon="6.49563">
        <ele>868.3125</ele>
        <time>2021-08-26T16:01:15Z</time>
      </trkpt>
      <trkpt lat="46.18037" lon="6.49565">
        <ele>868.5625</ele>
        <time>2021-08-26T16:01:16Z</time>
      </trkpt>
      <trkpt lat="46.18038" lon="6.49566">
        <ele>868.9296875</ele>
        <time>2021-08-26T16:01:17Z</time>
      </trkpt>
      <trkpt lat="46.18043" lon="6.49573">
        <ele>869.4140625</ele>
        <time>2021-08-26T16:01:21Z</time>
      </trkpt>
      <trkpt lat="46.18043" lon="6.49575">
        <ele>869.125</ele>
        <time>2021-08-26T16:01:22Z</time>
      </trkpt>
      <trkpt lat="46.18044" lon="6.49577">
        <ele>869.05078125</ele>
        <time>2021-08-26T16:01:23Z</time>
      </trkpt>
      <trkpt lat="46.18045" lon="6.49578">
        <ele>869.20703125</ele>
        <time>2021-08-26T16:01:24Z</time>
      </trkpt>
      <trkpt lat="46.18046" lon="6.4958">
        <ele>869.203125</ele>
        <time>2021-08-26T16:01:25Z</time>
      </trkpt>
      <trkpt lat="46.18048" lon="6.49581">
        <ele>869.1875</ele>
        <time>2021-08-26T16:01:26Z</time>
      </trkpt>
      <trkpt lat="46.18048" lon="6.49583">
        <ele>868.9921875</ele>
        <time>2021-08-26T16:01:27Z</time>
      </trkpt>
      <trkpt lat="46.1805" lon="6.49585">
        <ele>868.74609375</ele>
        <time>2021-08-26T16:01:28Z</time>
      </trkpt>
      <trkpt lat="46.18051" lon="6.49587">
        <ele>868.66015625</ele>
        <time>2021-08-26T16:01:29Z</time>
      </trkpt>
      <trkpt lat="46.18052" lon="6.49588">
        <ele>868.65234375</ele>
        <time>2021-08-26T16:01:30Z</time>
      </trkpt>
      <trkpt lat="46.18053" lon="6.49591">
        <ele>868.4375</ele>
        <time>2021-08-26T16:01:31Z</time>
      </trkpt>
      <trkpt lat="46.18065" lon="6.49608">
        <ele>868.171875</ele>
        <time>2021-08-26T16:01:41Z</time>
      </trkpt>
      <trkpt lat="46.18066" lon="6.49609">
        <ele>867.98046875</ele>
        <time>2021-08-26T16:01:42Z</time>
      </trkpt>
      <trkpt lat="46.18079" lon="6.49621">
        <ele>870.56640625</ele>
        <time>2021-08-26T16:01:53Z</time>
      </trkpt>
      <trkpt lat="46.18083" lon="6.49623">
        <ele>871.7890625</ele>
        <time>2021-08-26T16:01:56Z</time>
      </trkpt>
      <trkpt lat="46.18093" lon="6.49618">
        <ele>878.76171875</ele>
        <time>2021-08-26T16:02:03Z</time>
      </trkpt>
      <trkpt lat="46.18093" lon="6.49616">
        <ele>879.76171875</ele>
        <time>2021-08-26T16:02:04Z</time>
      </trkpt>
      <trkpt lat="46.18093" lon="6.49614">
        <ele>880.51953125</ele>
        <time>2021-08-26T16:02:05Z</time>
      </trkpt>
      <trkpt lat="46.18094" lon="6.49612">
        <ele>881.390625</ele>
        <time>2021-08-26T16:02:06Z</time>
      </trkpt>
      <trkpt lat="46.18094" lon="6.4961">
        <ele>882.3046875</ele>
        <time>2021-08-26T16:02:07Z</time>
      </trkpt>
      <trkpt lat="46.18095" lon="6.49608">
        <ele>883.5546875</ele>
        <time>2021-08-26T16:02:08Z</time>
      </trkpt>
      <trkpt lat="46.18103" lon="6.49597">
        <ele>891.41796875</ele>
        <time>2021-08-26T16:02:16Z</time>
      </trkpt>
      <trkpt lat="46.18117" lon="6.49587">
        <ele>897.40234375</ele>
        <time>2021-08-26T16:02:24Z</time>
      </trkpt>
      <trkpt lat="46.1814" lon="6.49579">
        <ele>904.0078125</ele>
        <time>2021-08-26T16:02:38Z</time>
      </trkpt>
      <trkpt lat="46.18157" lon="6.49589">
        <ele>904.859375</ele>
        <time>2021-08-26T16:02:49Z</time>
      </trkpt>
      <trkpt lat="46.18177" lon="6.49597">
        <ele>908.734375</ele>
        <time>2021-08-26T16:03:02Z</time>
      </trkpt>
      <trkpt lat="46.18194" lon="6.49602">
        <ele>912.421875</ele>
        <time>2021-08-26T16:03:13Z</time>
      </trkpt>
      <trkpt lat="46.182" lon="6.49601">
        <ele>914.41796875</ele>
        <time>2021-08-26T16:03:17Z</time>
      </trkpt>
      <trkpt lat="46.18201" lon="6.496">
        <ele>915.0546875</ele>
        <time>2021-08-26T16:03:18Z</time>
      </trkpt>
      <trkpt lat="46.18203" lon="6.49599">
        <ele>915.65625</ele>
        <time>2021-08-26T16:03:19Z</time>
      </trkpt>
      <trkpt lat="46.18204" lon="6.49598">
        <ele>916.203125</ele>
        <time>2021-08-26T16:03:20Z</time>
      </trkpt>
      <trkpt lat="46.18206" lon="6.49598">
        <ele>916.59375</ele>
        <time>2021-08-26T16:03:21Z</time>
      </trkpt>
      <trkpt lat="46.18207" lon="6.49598">
        <ele>916.88671875</ele>
        <time>2021-08-26T16:03:22Z</time>
      </trkpt>
      <trkpt lat="46.18211" lon="6.49598">
        <ele>918.01953125</ele>
        <time>2021-08-26T16:03:25Z</time>
      </trkpt>
      <trkpt lat="46.18212" lon="6.49597">
        <ele>918.51171875</ele>
        <time>2021-08-26T16:03:26Z</time>
      </trkpt>
      <trkpt lat="46.18213" lon="6.49597">
        <ele>918.859375</ele>
        <time>2021-08-26T16:03:27Z</time>
      </trkpt>
      <trkpt lat="46.18215" lon="6.49598">
        <ele>919.23046875</ele>
        <time>2021-08-26T16:03:28Z</time>
      </trkpt>
      <trkpt lat="46.18216" lon="6.49598">
        <ele>919.5546875</ele>
        <time>2021-08-26T16:03:29Z</time>
      </trkpt>
      <trkpt lat="46.18218" lon="6.49598">
        <ele>920.01953125</ele>
        <time>2021-08-26T16:03:30Z</time>
      </trkpt>
      <trkpt lat="46.1822" lon="6.49598">
        <ele>920.5078125</ele>
        <time>2021-08-26T16:03:31Z</time>
      </trkpt>
      <trkpt lat="46.18221" lon="6.49598">
        <ele>920.953125</ele>
        <time>2021-08-26T16:03:32Z</time>
      </trkpt>
      <trkpt lat="46.18223" lon="6.49599">
        <ele>921.359375</ele>
        <time>2021-08-26T16:03:33Z</time>
      </trkpt>
      <trkpt lat="46.18226" lon="6.496">
        <ele>922.140625</ele>
        <time>2021-08-26T16:03:35Z</time>
      </trkpt>
      <trkpt lat="46.18228" lon="6.496">
        <ele>922.609375</ele>
        <time>2021-08-26T16:03:36Z</time>
      </trkpt>
      <trkpt lat="46.1823" lon="6.49601">
        <ele>922.9140625</ele>
        <time>2021-08-26T16:03:37Z</time>
      </trkpt>
      <trkpt lat="46.18231" lon="6.49602">
        <ele>923.22265625</ele>
        <time>2021-08-26T16:03:38Z</time>
      </trkpt>
      <trkpt lat="46.18233" lon="6.49603">
        <ele>923.515625</ele>
        <time>2021-08-26T16:03:39Z</time>
      </trkpt>
      <trkpt lat="46.18235" lon="6.49604">
        <ele>923.953125</ele>
        <time>2021-08-26T16:03:40Z</time>
      </trkpt>
      <trkpt lat="46.18236" lon="6.49605">
        <ele>924.49609375</ele>
        <time>2021-08-26T16:03:41Z</time>
      </trkpt>
      <trkpt lat="46.18238" lon="6.49605">
        <ele>924.9921875</ele>
        <time>2021-08-26T16:03:42Z</time>
      </trkpt>
      <trkpt lat="46.18239" lon="6.49606">
        <ele>925.5390625</ele>
        <time>2021-08-26T16:03:43Z</time>
      </trkpt>
      <trkpt lat="46.1824" lon="6.49607">
        <ele>926.02734375</ele>
        <time>2021-08-26T16:03:44Z</time>
      </trkpt>
      <trkpt lat="46.18246" lon="6.49611">
        <ele>927.875</ele>
        <time>2021-08-26T16:03:48Z</time>
      </trkpt>
      <trkpt lat="46.18247" lon="6.49613">
        <ele>928.37109375</ele>
        <time>2021-08-26T16:03:49Z</time>
      </trkpt>
      <trkpt lat="46.18248" lon="6.49615">
        <ele>928.87109375</ele>
        <time>2021-08-26T16:03:50Z</time>
      </trkpt>
      <trkpt lat="46.18265" lon="6.4962">
        <ele>932.9453125</ele>
        <time>2021-08-26T16:04:00Z</time>
      </trkpt>
      <trkpt lat="46.18287" lon="6.49616">
        <ele>936.5625</ele>
        <time>2021-08-26T16:04:13Z</time>
      </trkpt>
      <trkpt lat="46.183" lon="6.49611">
        <ele>938.83203125</ele>
        <time>2021-08-26T16:04:21Z</time>
      </trkpt>
      <trkpt lat="46.18314" lon="6.49605">
        <ele>941.65234375</ele>
        <time>2021-08-26T16:04:31Z</time>
      </trkpt>
      <trkpt lat="46.18317" lon="6.49606">
        <ele>942.33984375</ele>
        <time>2021-08-26T16:04:33Z</time>
      </trkpt>
      <trkpt lat="46.18319" lon="6.49606">
        <ele>942.61328125</ele>
        <time>2021-08-26T16:04:34Z</time>
      </trkpt>
      <trkpt lat="46.1832" lon="6.49606">
        <ele>942.91796875</ele>
        <time>2021-08-26T16:04:35Z</time>
      </trkpt>
      <trkpt lat="46.18322" lon="6.49605">
        <ele>943.23046875</ele>
        <time>2021-08-26T16:04:36Z</time>
      </trkpt>
      <trkpt lat="46.18323" lon="6.49605">
        <ele>943.5546875</ele>
        <time>2021-08-26T16:04:37Z</time>
      </trkpt>
      <trkpt lat="46.18324" lon="6.49606">
        <ele>943.8359375</ele>
        <time>2021-08-26T16:04:38Z</time>
      </trkpt>
      <trkpt lat="46.18326" lon="6.49606">
        <ele>944.05859375</ele>
        <time>2021-08-26T16:04:39Z</time>
      </trkpt>
      <trkpt lat="46.18327" lon="6.49606">
        <ele>944.25390625</ele>
        <time>2021-08-26T16:04:40Z</time>
      </trkpt>
      <trkpt lat="46.18329" lon="6.49607">
        <ele>944.46875</ele>
        <time>2021-08-26T16:04:41Z</time>
      </trkpt>
      <trkpt lat="46.18331" lon="6.49607">
        <ele>944.69140625</ele>
        <time>2021-08-26T16:04:42Z</time>
      </trkpt>
      <trkpt lat="46.18338" lon="6.49608">
        <ele>945.62890625</ele>
        <time>2021-08-26T16:04:47Z</time>
      </trkpt>
      <trkpt lat="46.1834" lon="6.4961">
        <ele>945.71875</ele>
        <time>2021-08-26T16:04:49Z</time>
      </trkpt>
      <trkpt lat="46.18342" lon="6.4961">
        <ele>945.9140625</ele>
        <time>2021-08-26T16:04:50Z</time>
      </trkpt>
      <trkpt lat="46.18355" lon="6.49601">
        <ele>948.44921875</ele>
        <time>2021-08-26T16:05:03Z</time>
      </trkpt>
      <trkpt lat="46.18354" lon="6.49599">
        <ele>948.796875</ele>
        <time>2021-08-26T16:05:16Z</time>
      </trkpt>
      <trkpt lat="46.18362" lon="6.49599">
        <ele>948.859375</ele>
        <time>2021-08-26T16:05:27Z</time>
      </trkpt>
      <trkpt lat="46.18366" lon="6.49598">
        <ele>949.04296875</ele>
        <time>2021-08-26T16:05:28Z</time>
      </trkpt>
      <trkpt lat="46.1837" lon="6.49595">
        <ele>949.4765625</ele>
        <time>2021-08-26T16:05:29Z</time>
      </trkpt>
      <trkpt lat="46.18375" lon="6.49592">
        <ele>950.12109375</ele>
        <time>2021-08-26T16:05:30Z</time>
      </trkpt>
      <trkpt lat="46.18379" lon="6.49587">
        <ele>951.0390625</ele>
        <time>2021-08-26T16:05:31Z</time>
      </trkpt>
      <trkpt lat="46.18384" lon="6.49582">
        <ele>951.31640625</ele>
        <time>2021-08-26T16:05:32Z</time>
      </trkpt>
      <trkpt lat="46.18388" lon="6.49578">
        <ele>951.15234375</ele>
        <time>2021-08-26T16:05:33Z</time>
      </trkpt>
      <trkpt lat="46.18398" lon="6.49568">
        <ele>950.484375</ele>
        <time>2021-08-26T16:05:35Z</time>
      </trkpt>
      <trkpt lat="46.18428" lon="6.49537">
        <ele>946.359375</ele>
        <time>2021-08-26T16:05:40Z</time>
      </trkpt>
      <trkpt lat="46.18466" lon="6.4948">
        <ele>940.609375</ele>
        <time>2021-08-26T16:05:48Z</time>
      </trkpt>
      <trkpt lat="46.18474" lon="6.49468">
        <ele>939.25</ele>
        <time>2021-08-26T16:05:50Z</time>
      </trkpt>
      <trkpt lat="46.18495" lon="6.49453">
        <ele>932.7734375</ele>
        <time>2021-08-26T16:05:54Z</time>
      </trkpt>
      <trkpt lat="46.18516" lon="6.49438">
        <ele>927.99609375</ele>
        <time>2021-08-26T16:05:58Z</time>
      </trkpt>
      <trkpt lat="46.18529" lon="6.49425">
        <ele>925.484375</ele>
        <time>2021-08-26T16:06:01Z</time>
      </trkpt>
      <trkpt lat="46.18534" lon="6.49418">
        <ele>924.453125</ele>
        <time>2021-08-26T16:06:03Z</time>
      </trkpt>
      <trkpt lat="46.18546" lon="6.49401">
        <ele>922.171875</ele>
        <time>2021-08-26T16:06:07Z</time>
      </trkpt>
      <trkpt lat="46.18549" lon="6.49396">
        <ele>921.6171875</ele>
        <time>2021-08-26T16:06:08Z</time>
      </trkpt>
      <trkpt lat="46.18553" lon="6.49391">
        <ele>920.75390625</ele>
        <time>2021-08-26T16:06:09Z</time>
      </trkpt>
      <trkpt lat="46.18562" lon="6.49381">
        <ele>918.859375</ele>
        <time>2021-08-26T16:06:11Z</time>
      </trkpt>
      <trkpt lat="46.18571" lon="6.49369">
        <ele>916.68359375</ele>
        <time>2021-08-26T16:06:13Z</time>
      </trkpt>
      <trkpt lat="46.1858" lon="6.49356">
        <ele>914.38671875</ele>
        <time>2021-08-26T16:06:15Z</time>
      </trkpt>
      <trkpt lat="46.18592" lon="6.49331">
        <ele>911.9765625</ele>
        <time>2021-08-26T16:06:19Z</time>
      </trkpt>
      <trkpt lat="46.18597" lon="6.49325">
        <ele>911.1875</ele>
        <time>2021-08-26T16:06:20Z</time>
      </trkpt>
      <trkpt lat="46.18605" lon="6.49316">
        <ele>910.07421875</ele>
        <time>2021-08-26T16:06:22Z</time>
      </trkpt>
      <trkpt lat="46.18609" lon="6.49313">
        <ele>909.27734375</ele>
        <time>2021-08-26T16:06:23Z</time>
      </trkpt>
      <trkpt lat="46.18611" lon="6.4931">
        <ele>908.81640625</ele>
        <time>2021-08-26T16:06:24Z</time>
      </trkpt>
      <trkpt lat="46.18613" lon="6.49307">
        <ele>908.515625</ele>
        <time>2021-08-26T16:06:25Z</time>
      </trkpt>
      <trkpt lat="46.18615" lon="6.49305">
        <ele>908.078125</ele>
        <time>2021-08-26T16:06:26Z</time>
      </trkpt>
      <trkpt lat="46.18618" lon="6.49303">
        <ele>907.3984375</ele>
        <time>2021-08-26T16:06:27Z</time>
      </trkpt>
      <trkpt lat="46.18621" lon="6.49301">
        <ele>906.3828125</ele>
        <time>2021-08-26T16:06:28Z</time>
      </trkpt>
      <trkpt lat="46.18624" lon="6.493">
        <ele>905.3203125</ele>
        <time>2021-08-26T16:06:29Z</time>
      </trkpt>
      <trkpt lat="46.1864" lon="6.49296">
        <ele>901.08203125</ele>
        <time>2021-08-26T16:06:33Z</time>
      </trkpt>
      <trkpt lat="46.18664" lon="6.49287">
        <ele>896.35546875</ele>
        <time>2021-08-26T16:06:37Z</time>
      </trkpt>
      <trkpt lat="46.18696" lon="6.49279">
        <ele>890.96484375</ele>
        <time>2021-08-26T16:06:41Z</time>
      </trkpt>
      <trkpt lat="46.18704" lon="6.49278">
        <ele>889.6953125</ele>
        <time>2021-08-26T16:06:42Z</time>
      </trkpt>
      <trkpt lat="46.1872" lon="6.49275">
        <ele>887.765625</ele>
        <time>2021-08-26T16:06:44Z</time>
      </trkpt>
      <trkpt lat="46.18775" lon="6.49265">
        <ele>884.29296875</ele>
        <time>2021-08-26T16:06:51Z</time>
      </trkpt>
      <trkpt lat="46.18782" lon="6.49263">
        <ele>883.90234375</ele>
        <time>2021-08-26T16:06:52Z</time>
      </trkpt>
      <trkpt lat="46.18812" lon="6.49255">
        <ele>882.875</ele>
        <time>2021-08-26T16:06:59Z</time>
      </trkpt>
      <trkpt lat="46.1881" lon="6.49256">
        <ele>882.91796875</ele>
        <time>2021-08-26T16:07:22Z</time>
      </trkpt>
      <trkpt lat="46.18813" lon="6.49256">
        <ele>882.73828125</ele>
        <time>2021-08-26T16:07:46Z</time>
      </trkpt>
      <trkpt lat="46.18841" lon="6.49251">
        <ele>881.328125</ele>
        <time>2021-08-26T16:07:56Z</time>
      </trkpt>
      <trkpt lat="46.18899" lon="6.49257">
        <ele>879.99609375</ele>
        <time>2021-08-26T16:08:10Z</time>
      </trkpt>
      <trkpt lat="46.18912" lon="6.4926">
        <ele>880.05078125</ele>
        <time>2021-08-26T16:08:13Z</time>
      </trkpt>
      <trkpt lat="46.1898" lon="6.49267">
        <ele>880.7578125</ele>
        <time>2021-08-26T16:08:27Z</time>
      </trkpt>
      <trkpt lat="46.19015" lon="6.49281">
        <ele>878.90234375</ele>
        <time>2021-08-26T16:08:37Z</time>
      </trkpt>
      <trkpt lat="46.1906" lon="6.49302">
        <ele>878.625</ele>
        <time>2021-08-26T16:08:48Z</time>
      </trkpt>
      <trkpt lat="46.19075" lon="6.49311">
        <ele>878.74609375</ele>
        <time>2021-08-26T16:08:52Z</time>
      </trkpt>
      <trkpt lat="46.19129" lon="6.49361">
        <ele>876.91796875</ele>
        <time>2021-08-26T16:09:06Z</time>
      </trkpt>
      <trkpt lat="46.19132" lon="6.49365">
        <ele>876.6953125</ele>
        <time>2021-08-26T16:09:07Z</time>
      </trkpt>
      <trkpt lat="46.19195" lon="6.49416">
        <ele>876.8125</ele>
        <time>2021-08-26T16:09:20Z</time>
      </trkpt>
      <trkpt lat="46.19205" lon="6.49425">
        <ele>876.59765625</ele>
        <time>2021-08-26T16:09:22Z</time>
      </trkpt>
      <trkpt lat="46.19209" lon="6.49429">
        <ele>876.546875</ele>
        <time>2021-08-26T16:09:23Z</time>
      </trkpt>
      <trkpt lat="46.19214" lon="6.49432">
        <ele>876.58984375</ele>
        <time>2021-08-26T16:09:24Z</time>
      </trkpt>
      <trkpt lat="46.19267" lon="6.49466">
        <ele>877.734375</ele>
        <time>2021-08-26T16:09:35Z</time>
      </trkpt>
      <trkpt lat="46.19277" lon="6.49473">
        <ele>877.5234375</ele>
        <time>2021-08-26T16:09:37Z</time>
      </trkpt>
      <trkpt lat="46.19291" lon="6.49483">
        <ele>876.99609375</ele>
        <time>2021-08-26T16:09:40Z</time>
      </trkpt>
      <trkpt lat="46.19343" lon="6.49517">
        <ele>877.34765625</ele>
        <time>2021-08-26T16:09:51Z</time>
      </trkpt>
      <trkpt lat="46.19351" lon="6.49524">
        <ele>877.48828125</ele>
        <time>2021-08-26T16:09:53Z</time>
      </trkpt>
      <trkpt lat="46.19417" lon="6.49579">
        <ele>880.703125</ele>
        <time>2021-08-26T16:10:09Z</time>
      </trkpt>
      <trkpt lat="46.19454" lon="6.49595">
        <ele>881.671875</ele>
        <time>2021-08-26T16:10:17Z</time>
      </trkpt>
      <trkpt lat="46.19458" lon="6.49597">
        <ele>881.6015625</ele>
        <time>2021-08-26T16:10:18Z</time>
      </trkpt>
      <trkpt lat="46.19461" lon="6.49599">
        <ele>881.484375</ele>
        <time>2021-08-26T16:10:19Z</time>
      </trkpt>
      <trkpt lat="46.19464" lon="6.49603">
        <ele>881.16015625</ele>
        <time>2021-08-26T16:10:20Z</time>
      </trkpt>
      <trkpt lat="46.19465" lon="6.49608">
        <ele>880.5859375</ele>
        <time>2021-08-26T16:10:21Z</time>
      </trkpt>
      <trkpt lat="46.19465" lon="6.49615">
        <ele>879.8828125</ele>
        <time>2021-08-26T16:10:22Z</time>
      </trkpt>
      <trkpt lat="46.19464" lon="6.49622">
        <ele>879.1171875</ele>
        <time>2021-08-26T16:10:23Z</time>
      </trkpt>
      <trkpt lat="46.19462" lon="6.49628">
        <ele>878.4296875</ele>
        <time>2021-08-26T16:10:24Z</time>
      </trkpt>
      <trkpt lat="46.19461" lon="6.49633">
        <ele>877.8515625</ele>
        <time>2021-08-26T16:10:25Z</time>
      </trkpt>
      <trkpt lat="46.19459" lon="6.49637">
        <ele>877.46875</ele>
        <time>2021-08-26T16:10:26Z</time>
      </trkpt>
      <trkpt lat="46.19457" lon="6.4964">
        <ele>877.16015625</ele>
        <time>2021-08-26T16:10:27Z</time>
      </trkpt>
      <trkpt lat="46.19428" lon="6.49635">
        <ele>876.18359375</ele>
        <time>2021-08-26T16:10:37Z</time>
      </trkpt>
      <trkpt lat="46.19421" lon="6.49631">
        <ele>876.02734375</ele>
        <time>2021-08-26T16:10:39Z</time>
      </trkpt>
      <trkpt lat="46.19416" lon="6.49643">
        <ele>874.37890625</ele>
        <time>2021-08-26T16:10:47Z</time>
      </trkpt>
      <trkpt lat="46.19419" lon="6.49645">
        <ele>874.37109375</ele>
        <time>2021-08-26T16:11:01Z</time>
      </trkpt>
      <trkpt lat="46.19419" lon="6.49646">
        <ele>874.296875</ele>
        <time>2021-08-26T16:11:13Z</time>
      </trkpt>
      <trkpt lat="46.19418" lon="6.49648">
        <ele>873.9921875</ele>
        <time>2021-08-26T16:11:24Z</time>
      </trkpt>
      <trkpt lat="46.19418" lon="6.4965">
        <ele>873.796875</ele>
        <time>2021-08-26T16:11:58Z</time>
      </trkpt>
      <trkpt lat="46.1942" lon="6.49649">
        <ele>874.03125</ele>
        <time>2021-08-26T16:12:24Z</time>
      </trkpt>
    </trkseg>
  </trk>
</gpx>